[[[{"header":{"parameterUnit":"kt","parameterCategory":2,"dx":1,"dy":1,"la1":29.587661999999998,"la2":31.0,"lo1":-88.76705300000003,"lo2":-86.6583820000003,"nx":115,"ny":88,"refTime":"2022-10-06T12:00:00:Z","depth":0,"parameterNumber":1,"parameterNumberName":"U-component_of_WINDS"},"data":[17.3262,17.3262,17.3262,17.3262,17.3262,17.3262,17.3262,17.3262,17.3262,17.3262,17.3262,17.3262,17.3262,17.3262,17.3262,17.3262,17.3366,17.3997,17.4693,17.489,17.4391,17.4654,17.4589,17.3958,17.409,17.4917,17.6167,17.7942,17.9492,18.0676,18.1493,18.1916,18.1945,18.1945,18.1945,18.1945,18.1785,18.1061,17.9549,17.7679,17.6693,17.5208,17.3657,17.3262,17.3262,17.3262,17.3262,17.3262,17.3262,17.3262,17.3262,17.3262,17.3262,17.3262,17.3262,17.3262,17.3262,17.3262,17.3262,17.3262,17.3262,17.3262,17.3262,17.3196,17.3196,17.3196,17.3332,17.3332,17.3289,17.3289,17.3289,17.3289,17.3289,17.3289,17.3289,17.3289,17.3224,17.3224,17.3332,17.3507,17.3534,17.3549,17.3576,17.3939,17.4142,17.4315,17.4555,17.4608,17.4635,17.5046,17.5417,17.5654,17.5957,17.6278,17.6799,17.7103,17.6499,17.6499,17.6499,17.6499,17.6499,17.6499,17.6499,17.6499,17.6499,17.6499,17.6499,17.6499,17.6499,17.6499,17.6499,17.6397,17.6114,17.5881,17.5881,17.3262,17.3262,17.3262,17.3262,17.3262,17.3262,17.3262,17.3262,17.3262,17.3262,17.3262,17.3262,17.3262,17.3262,17.3262,17.3262,17.3366,17.3761,17.3629,17.3629,17.3629,17.3827,17.3695,17.3394,17.3432,17.409,17.5246,17.7257,17.9595,18.0281,18.1099,18.1785,18.1945,18.1945,18.1945,18.1945,18.1945,18.1193,17.9417,17.7745,17.6326,17.4813,17.3657,17.3262,17.3262,17.3262,17.3262,17.3262,17.3262,17.3262,17.3262,17.3262,17.3262,17.3262,17.3262,17.3262,17.3262,17.3262,17.3262,17.3262,17.3262,17.3262,17.3262,17.3196,17.3196,17.3332,17.3549,17.3522,17.3425,17.3344,17.3344,17.3344,17.3344,17.3344,17.3344,17.3344,17.3278,17.3278,17.3549,17.3939,17.4074,17.4235,17.4422,17.4688,17.4794,17.4821,17.4874,17.49,17.5125,17.556,17.5836,17.6044,17.6668,17.7478,17.8057,17.7598,17.6499,17.6499,17.6499,17.6499,17.6499,17.6499,17.6499,17.6499,17.6499,17.6499,17.6499,17.6499,17.6499,17.6499,17.6499,17.6448,17.6217,17.6165,17.6191,17.3262,17.3262,17.3262,17.3262,17.3262,17.3262,17.3262,17.3262,17.3262,17.3262,17.3262,17.3262,17.3262,17.3262,17.3262,17.3262,17.3262,17.3262,17.3262,17.3262,17.3301,17.3262,17.3262,17.3262,17.3262,17.3564,17.4852,17.6731,17.9361,18.0281,18.0967,18.1785,18.1945,18.1945,18.1945,18.1945,18.1945,18.1719,17.8957,17.7219,17.5969,17.455,17.3328,17.3262,17.3262,17.3262,17.3262,17.3262,17.3262,17.3262,17.3262,17.3262,17.3262,17.3224,17.3224,17.3224,17.3251,17.3262,17.3262,17.3262,17.3262,17.3262,17.3262,17.3549,17.3522,17.3993,17.4208,17.4288,17.4101,17.3993,17.3966,17.3966,17.3966,17.3966,17.3966,17.3966,17.3966,17.3927,17.4115,17.4475,17.4582,17.4768,17.4887,17.5217,17.5374,17.54,17.5725,17.5829,17.5881,17.6155,17.6181,17.6418,17.7499,17.8325,17.8268,17.7464,17.6566,17.6499,17.6499,17.6499,17.6499,17.6499,17.6499,17.6499,17.6499,17.6499,17.6499,17.6499,17.6499,17.6499,17.6499,17.6499,17.6474,17.6423,17.6397,17.3262,17.3262,17.3262,17.3262,17.3262,17.3262,17.3262,17.3262,17.3262,17.3262,17.3262,17.3262,17.3262,17.3262,17.3262,17.3262,17.3262,17.3262,17.3262,17.3262,17.3262,17.3262,17.3262,17.3262,17.3262,17.3761,17.5076,17.7087,17.8994,18.0704,18.1916,18.1945,18.1945,18.1945,18.1945,18.1945,18.1522,18.0901,17.8666,17.6956,17.5641,17.4221,17.3262,17.3262,17.3262,17.3262,17.3262,17.3262,17.3262,17.3262,17.3262,17.3196,17.3289,17.3332,17.336,17.3414,17.3603,17.3603,17.3603,17.3723,17.3831,17.3777,17.3804,17.39,17.4142,17.4661,17.4966,17.5046,17.4979,17.4874,17.4821,17.4821,17.4821,17.4821,17.4821,17.4821,17.4821,17.4874,17.49,17.5032,17.5111,17.5269,17.5386,17.5595,17.5803,17.6062,17.6371,17.6474,17.6397,17.6907,17.7041,17.7536,17.851,17.8402,17.7665,17.7061,17.6634,17.6499,17.6499,17.6499,17.6499,17.6499,17.6499,17.6499,17.6499,17.6499,17.6499,17.6499,17.6499,17.6499,17.6499,17.6499,17.6499,17.6499,17.6499,17.3262,17.3262,17.3262,17.3262,17.3262,17.3262,17.3262,17.3262,17.3262,17.3262,17.3262,17.3262,17.3262,17.3262,17.3262,17.3262,17.3262,17.3262,17.3262,17.3262,17.3262,17.3262,17.3262,17.3262,17.3262,17.4156,17.5537,17.7153,17.8431,18.0075,18.1588,18.1945,18.1945,18.1945,18.1945,18.1945,18.1127,17.9981,17.8074,17.643,17.5115,17.409,17.3262,17.3262,17.3262,17.3262,17.3262,17.3196,17.3262,17.3262,17.3224,17.3305,17.3468,17.3657,17.3846,17.3981,17.4342,17.4288,17.4181,17.4315,17.4528,17.4635,17.4768,17.4768,17.4874,17.5217,17.5479,17.5583,17.5479,17.54,17.54,17.54,17.5374,17.5374,17.5374,17.5374,17.5374,17.54,17.5479,17.561,17.5714,17.5751,17.5907,17.5959,17.6165,17.632,17.6499,17.6499,17.6876,17.7881,17.8283,17.8779,17.914,17.9006,17.8134,17.7263,17.6768,17.6499,17.6499,17.6499,17.6499,17.6499,17.6499,17.6499,17.6499,17.6499,17.6499,17.6499,17.6499,17.6499,17.6499,17.6499,17.6499,17.6499,17.6499,17.3262,17.3262,17.3262,17.3262,17.3262,17.3262,17.3262,17.3262,17.3262,17.3262,17.3262,17.3262,17.3262,17.3262,17.3262,17.3262,17.3262,17.3262,17.3262,17.3262,17.3262,17.3262,17.3262,17.3262,17.3262,17.4221,17.5603,17.7153,17.7087,17.8929,18.1164,18.1719,18.1945,18.1945,18.1851,18.1588,18.0507,17.86,17.6956,17.5443,17.4391,17.3498,17.3262,17.3262,17.3262,17.3262,17.3224,17.3576,17.363,17.3657,17.4154,17.4235,17.4315,17.4395,17.4489,17.4608,17.4874,17.4794,17.4688,17.4913,17.49,17.49,17.4874,17.5269,17.5557,17.5766,17.5881,17.601,17.5974,17.587,17.5896,17.5922,17.5896,17.5829,17.5829,17.5829,17.5896,17.587,17.6,17.6088,17.6191,17.6294,17.6371,17.6423,17.6499,17.6499,17.6499,17.6499,17.7103,17.8268,17.9006,17.9341,17.9475,17.9475,17.8469,17.7531,17.6902,17.6499,17.6499,17.6499,17.6499,17.6499,17.6499,17.6499,17.6499,17.6499,17.6499,17.6499,17.6499,17.6499,17.6499,17.6499,17.6499,17.6499,17.6499,17.3262,17.3262,17.3262,17.3262,17.3262,17.3262,17.3262,17.3262,17.3262,17.3262,17.3262,17.3262,17.3262,17.3262,17.3262,17.3262,17.3262,17.3262,17.3262,17.3262,17.3262,17.3262,17.3262,17.3262,17.3564,17.455,17.5838,17.7087,17.6759,17.8281,18.0413,18.1099,18.1033,18.1588,18.1456,18.1061,17.9088,17.7219,17.6101,17.472,17.3695,17.3301,17.3398,17.3441,17.3495,17.3723,17.3858,17.4181,17.4261,17.4315,17.4688,17.4874,17.4953,17.5085,17.5164,17.5164,17.5295,17.5295,17.5217,17.5322,17.5479,17.5531,17.5505,17.5907,17.6191,17.6397,17.6371,17.6371,17.6294,17.6217,17.6191,17.6217,17.6217,17.6217,17.6217,17.6217,17.6191,17.6191,17.6217,17.6346,17.6346,17.6423,17.6448,17.6499,17.6499,17.6499,17.6499,17.6499,17.7036,17.8603,17.9408,17.9542,17.9542,17.93,17.8469,17.7505,17.6902,17.6499,17.6499,17.6499,17.6499,17.6499,17.6499,17.6499,17.6499,17.6499,17.6499,17.6499,17.6499,17.6499,17.6499,17.6499,17.6499,17.6499,17.6499,17.3262,17.3262,17.3262,17.3262,17.3262,17.3262,17.3262,17.3262,17.3262,17.3262,17.3262,17.3262,17.3262,17.3262,17.3262,17.3262,17.3262,17.3262,17.3262,17.3262,17.3262,17.3262,17.3262,17.3262,17.3695,17.5115,17.6232,17.6759,17.735,17.844,17.9135,17.9492,17.9586,18.0244,18.0141,17.922,17.7285,17.6167,17.518,17.4287,17.3553,17.3251,17.3495,17.3711,17.3927,17.4235,17.4502,17.4794,17.4874,17.4926,17.5006,17.5006,17.5138,17.5386,17.561,17.5777,17.614,17.5959,17.5896,17.6062,17.6191,17.614,17.6243,17.6371,17.6499,17.6499,17.6499,17.6499,17.6499,17.6499,17.6499,17.6499,17.6499,17.6499,17.6499,17.6499,17.6499,17.6499,17.6499,17.6499,17.6499,17.6499,17.6499,17.6499,17.6499,17.6499,17.6499,17.6634,17.7531,17.9006,17.9408,17.9542,17.9542,17.9166,17.8335,17.7371,17.6835,17.6499,17.6499,17.6499,17.6499,17.6499,17.6499,17.6499,17.6499,17.6499,17.6499,17.6499,17.6499,17.6499,17.6499,17.6499,17.6499,17.6499,17.6499,17.3262,17.3262,17.3262,17.3262,17.3262,17.3262,17.3262,17.3262,17.3262,17.3262,17.3262,17.3262,17.3262,17.3262,17.3262,17.3262,17.3262,17.3262,17.3262,17.3262,17.3262,17.3262,17.3262,17.3328,17.3695,17.409,17.5115,17.5575,17.5208,17.7153,17.7613,17.7388,17.7745,17.8534,17.8205,17.7416,17.5744,17.5312,17.4419,17.3761,17.3568,17.3495,17.3765,17.4061,17.4395,17.4715,17.4953,17.5217,17.5412,17.5583,17.5766,17.6026,17.5985,17.6114,17.6191,17.6217,17.6423,17.6371,17.6243,17.6448,17.6474,17.6499,17.6499,17.6499,17.6499,17.6499,17.6499,17.6499,17.6499,17.6499,17.6499,17.6499,17.6499,17.6499,17.6499,17.6499,17.6499,17.6499,17.6499,17.6499,17.6499,17.6499,17.6499,17.6499,17.6499,17.6499,17.6499,17.733,17.816,17.883,17.9233,17.9609,17.9743,17.9006,17.8134,17.7237,17.6768,17.6499,17.6499,17.6499,17.6499,17.6499,17.6499,17.6499,17.6499,17.6499,17.6499,17.6499,17.6499,17.6499,17.6499,17.6499,17.6499,17.6499,17.6499,17.3262,17.3262,17.3262,17.3262,17.3262,17.3262,17.3262,17.3262,17.3262,17.3262,17.3262,17.3262,17.3262,17.3262,17.3262,17.3262,17.3262,17.3262,17.3262,17.3262,17.3262,17.3262,17.3262,17.3262,17.3564,17.4062,17.4589,17.4852,17.3827,17.5706,17.5838,17.5312,17.5969,17.6458,17.5838,17.5312,17.4654,17.4457,17.392,17.3305,17.3534,17.3765,17.4142,17.4595,17.5006,17.5322,17.561,17.5803,17.5959,17.601,17.6165,17.6371,17.6397,17.6397,17.6474,17.6474,17.6499,17.6499,17.6499,17.6499,17.6499,17.6499,17.6499,17.6499,17.6499,17.6499,17.6499,17.6499,17.6499,17.6499,17.6499,17.6499,17.6499,17.6499,17.6499,17.6499,17.6499,17.6499,17.6499,17.6499,17.6499,17.6499,17.6499,17.6499,17.6499,17.6499,17.6499,17.7195,17.7531,17.8134,17.8469,17.9006,17.914,17.8469,17.7933,17.7103,17.6566,17.6499,17.6499,17.6499,17.6499,17.6499,17.6499,17.6499,17.6499,17.6499,17.6499,17.6499,17.6499,17.6499,17.6499,17.6499,17.6499,17.6499,17.6499,17.3262,17.3262,17.3262,17.3262,17.3262,17.3262,17.3262,17.3262,17.3262,17.3262,17.3262,17.3262,17.3262,17.3262,17.3262,17.3262,17.3262,17.3262,17.3262,17.3262,17.3262,17.3262,17.3262,17.3301,17.3602,17.489,17.4983,17.4852,17.4917,17.5246,17.4589,17.4156,17.4589,17.4813,17.3459,17.3235,17.3262,17.3262,17.3382,17.3576,17.39,17.4142,17.4728,17.5203,17.5662,17.5881,17.6088,17.6294,17.632,17.6346,17.6474,17.6499,17.6499,17.6499,17.6499,17.6499,17.6499,17.6499,17.6499,17.6499,17.6499,17.6499,17.6499,17.6499,17.6499,17.6499,17.6499,17.6499,17.6499,17.6499,17.6499,17.6499,17.6499,17.6499,17.6499,17.6499,17.6499,17.6499,17.6499,17.6499,17.6499,17.6499,17.6499,17.6499,17.6499,17.6499,17.6499,17.6566,17.6701,17.6969,17.717,17.7505,17.7505,17.717,17.717,17.6634,17.6499,17.6499,17.6499,17.6499,17.6499,17.6499,17.6499,17.6499,17.6499,17.6499,17.6499,17.6499,17.6499,17.6499,17.6499,17.6499,17.6499,17.6499,17.6499,17.3262,17.3262,17.3262,17.3262,17.3262,17.3262,17.3262,17.3262,17.3262,17.3262,17.3262,17.3262,17.3262,17.3262,17.3262,17.3262,17.3262,17.3262,17.3262,17.3262,17.3262,17.3262,17.3262,17.3301,17.3432,17.3629,17.3799,17.3893,17.4024,17.3893,17.3629,17.3498,17.3564,17.3695,17.3262,17.3289,17.3453,17.363,17.3765,17.4008,17.4661,17.4913,17.5465,17.5621,17.6062,17.6346,17.6423,17.6499,17.6499,17.6499,17.6499,17.6499,17.6499,17.6499,17.6499,17.6499,17.6499,17.6499,17.6499,17.6499,17.6499,17.6499,17.6499,17.6499,17.6499,17.6499,17.6499,17.6499,17.6499,17.6499,17.6499,17.6499,17.6499,17.6499,17.6499,17.6499,17.6499,17.6499,17.6499,17.6499,17.6499,17.6499,17.6499,17.6499,17.6499,17.6499,17.6499,17.6499,17.6499,17.6499,17.6499,17.6499,17.6499,17.6499,17.6499,17.6499,17.6499,17.6499,17.6499,17.6499,17.6499,17.6499,17.6499,17.6499,17.6499,17.6499,17.6499,17.6499,17.6499,17.6499,17.6499,17.6499,17.6499,17.6499,17.6499,17.3262,17.3262,17.3262,17.3262,17.3262,17.3262,17.3262,17.3262,17.3262,17.3262,17.3262,17.3262,17.3262,17.3262,17.3262,17.3262,17.3262,17.3262,17.3262,17.3262,17.3262,17.3262,17.3262,17.3262,17.3262,17.3235,17.3262,17.3262,17.3262,17.3366,17.3262,17.3262,17.3328,17.3262,17.3305,17.3414,17.3792,17.4142,17.4422,17.4661,17.519,17.561,17.5844,17.5959,17.6423,17.6474,17.6499,17.6499,17.6499,17.6499,17.6499,17.6499,17.6499,17.6499,17.6499,17.6499,17.6499,17.6499,17.6499,17.6499,17.6499,17.6499,17.6499,17.6499,17.6499,17.6499,17.6499,17.6499,17.6499,17.6499,17.6499,17.6499,17.6499,17.6499,17.6499,17.6499,17.6499,17.6499,17.6499,17.6499,17.6499,17.6499,17.6499,17.6499,17.6499,17.6499,17.6499,17.6499,17.6499,17.6499,17.6499,17.6499,17.6499,17.6499,17.6499,17.6499,17.6499,17.6499,17.6499,17.6499,17.6499,17.6499,17.6499,17.6499,17.6499,17.6499,17.6499,17.6499,17.6499,17.6499,17.6499,17.6499,17.6499,17.6499,17.6499,17.3262,17.3262,17.3262,17.3262,17.3262,17.3262,17.3262,17.3262,17.3262,17.3262,17.3262,17.3262,17.3262,17.3262,17.3262,17.3262,17.3262,17.3262,17.3262,17.3262,17.3262,17.3262,17.3262,17.3262,17.3262,17.3262,17.3262,17.3262,17.3262,17.3262,17.3196,17.3224,17.336,17.3305,17.3495,17.39,17.4368,17.4661,17.4953,17.5243,17.5595,17.5829,17.6077,17.6397,17.6474,17.6499,17.6499,17.6499,17.6499,17.6499,17.6499,17.6499,17.6499,17.6499,17.6499,17.6499,17.6499,17.6499,17.6499,17.6499,17.6499,17.6499,17.6499,17.6499,17.6499,17.6499,17.6499,17.6499,17.6499,17.6499,17.6499,17.6499,17.6499,17.6499,17.6499,17.6499,17.6499,17.6499,17.6499,17.6499,17.6499,17.6499,17.6499,17.6499,17.6499,17.6499,17.6499,17.6499,17.6499,17.6499,17.6499,17.6499,17.6499,17.6499,17.6499,17.6499,17.6499,17.6499,17.6499,17.6499,17.6499,17.6499,17.6499,17.6499,17.6499,17.6499,17.6499,17.6499,17.6499,17.6499,17.6499,17.6499,17.6499,17.6499,17.6499,17.3262,17.3262,17.3262,17.3262,17.3262,17.3262,17.3262,17.3262,17.3262,17.3262,17.3262,17.3262,17.3262,17.3262,17.3262,17.3262,17.3262,17.3262,17.3262,17.3262,17.3262,17.3262,17.3262,17.3262,17.3262,17.3262,17.3262,17.3224,17.3224,17.3251,17.3441,17.3765,17.3792,17.3954,17.4395,17.4635,17.4741,17.5032,17.5348,17.5751,17.6165,17.6268,17.6371,17.6448,17.6499,17.6499,17.6499,17.6499,17.6499,17.6499,17.6499,17.6499,17.6499,17.6499,17.6499,17.6499,17.6499,17.6499,17.6499,17.6499,17.6499,17.6499,17.6499,17.6499,17.6499,17.6499,17.6499,17.6499,17.6499,17.6499,17.6499,17.6499,17.6499,17.6499,17.6499,17.6499,17.6499,17.6499,17.6499,17.6499,17.6499,17.6499,17.6499,17.6499,17.6499,17.6499,17.6499,17.6499,17.6499,17.6499,17.6499,17.6499,17.6499,17.6499,17.6499,17.6499,17.6499,17.6499,17.6499,17.6499,17.6499,17.6499,17.6499,17.6499,17.6499,17.6499,17.6499,17.6499,17.6499,17.6499,17.6499,17.6499,17.6499,17.6499,17.6499,17.3262,17.3262,17.3262,17.3262,17.3262,17.3262,17.3262,17.3262,17.3262,17.3262,17.3262,17.3262,17.3262,17.3262,17.3262,17.3262,17.3262,17.3262,17.3262,17.3262,17.3262,17.3262,17.3262,17.3262,17.3262,17.3262,17.3196,17.3278,17.3495,17.3576,17.3819,17.4342,17.4448,17.4635,17.4768,17.5138,17.5243,17.5427,17.5818,17.6191,17.6423,17.6499,17.6499,17.6499,17.6499,17.6499,17.6499,17.6499,17.6499,17.6499,17.6499,17.6499,17.6499,17.6499,17.6499,17.6499,17.6499,17.6499,17.6499,17.6499,17.6499,17.6499,17.6499,17.6499,17.6499,17.6499,17.6499,17.6499,17.6499,17.6499,17.6499,17.6499,17.6499,17.6499,17.6499,17.6499,17.6499,17.6499,17.6499,17.6499,17.6499,17.6499,17.6499,17.6499,17.6499,17.6499,17.6499,17.6499,17.6499,17.6499,17.6499,17.6499,17.6499,17.6499,17.6499,17.6499,17.6499,17.6499,17.6499,17.6499,17.6499,17.6499,17.6499,17.6499,17.6499,17.6499,17.6499,17.6499,17.6499,17.6499,17.6499,17.6499,17.6499,17.6499,17.6499,17.3262,17.3262,17.3262,17.3262,17.3262,17.3262,17.3262,17.3262,17.3262,17.3262,17.3262,17.3262,17.3262,17.3262,17.3262,17.3262,17.3262,17.3262,17.3262,17.3262,17.3262,17.3262,17.3262,17.3289,17.3332,17.3262,17.3278,17.3576,17.402,17.4061,17.4382,17.49,17.5032,17.5111,17.5348,17.5688,17.5751,17.5922,17.6243,17.6474,17.6499,17.6499,17.6499,17.6499,17.6499,17.6499,17.6499,17.6499,17.6499,17.6499,17.6499,17.6499,17.6499,17.6499,17.6499,17.6499,17.6499,17.6499,17.6499,17.6499,17.6499,17.6499,17.6499,17.6499,17.6499,17.6499,17.6499,17.6499,17.6499,17.6499,17.6499,17.6499,17.6499,17.6499,17.6499,17.6499,17.6499,17.6499,17.6499,17.6499,17.6499,17.6499,17.6499,17.6499,17.6499,17.6499,17.6499,17.6499,17.6499,17.6499,17.6499,17.6499,17.6499,17.6499,17.6499,17.6499,17.6499,17.6499,17.6499,17.6499,17.6499,17.6499,17.6499,17.6499,17.6499,17.6499,17.6499,17.6499,17.6499,17.6499,17.6499,17.6499,17.6499,17.6499,17.6499,17.3262,17.3262,17.3262,17.3262,17.3262,17.3262,17.3262,17.3262,17.3262,17.3262,17.3262,17.3262,17.3262,17.3262,17.3262,17.3262,17.3262,17.3262,17.3224,17.3224,17.3251,17.3196,17.3332,17.3495,17.3657,17.3561,17.3657,17.4115,17.4635,17.4715,17.5085,17.5453,17.5583,17.5699,17.601,17.6165,17.6294,17.6371,17.6474,17.6499,17.6499,17.6499,17.6499,17.6499,17.6499,17.6499,17.6499,17.6499,17.6499,17.6499,17.6499,17.6499,17.6499,17.6499,17.6499,17.6499,17.6499,17.6499,17.6499,17.6499,17.6499,17.6499,17.6499,17.6499,17.6499,17.6499,17.6499,17.6499,17.6499,17.6499,17.6499,17.6499,17.6499,17.6499,17.6499,17.6499,17.6499,17.6499,17.6499,17.6499,17.6499,17.6499,17.6499,17.6499,17.6499,17.6499,17.6499,17.6499,17.6499,17.6499,17.6499,17.6499,17.6499,17.6499,17.6499,17.6499,17.6499,17.6499,17.6499,17.6499,17.6499,17.6499,17.6499,17.6499,17.6499,17.6499,17.6499,17.6499,17.6499,17.6499,17.6499,17.6499,17.6499,17.6499,17.6499,17.3262,17.3262,17.3262,17.3262,17.3262,17.3262,17.3262,17.3262,17.3262,17.3262,17.3262,17.3262,17.3262,17.3262,17.3262,17.3262,17.3262,17.3262,17.3332,17.3549,17.3576,17.3657,17.4127,17.4315,17.4261,17.4288,17.4515,17.5018,17.5295,17.5322,17.5636,17.6,17.6088,17.6217,17.6448,17.6499,17.6474,17.6474,17.6499,17.6499,17.6499,17.6499,17.6499,17.6499,17.6499,17.6499,17.6499,17.6499,17.6499,17.6499,17.6499,17.6499,17.6499,17.6499,17.6499,17.6499,17.6499,17.6499,17.6499,17.6499,17.6499,17.6499,17.6499,17.6499,17.6499,17.6499,17.6499,17.6499,17.6499,17.6499,17.6499,17.6499,17.6499,17.6499,17.6499,17.6499,17.6499,17.6499,17.6499,17.6499,17.6499,17.6499,17.6499,17.6499,17.6499,17.6499,17.6499,17.6499,17.6499,17.6499,17.6499,17.6499,17.6499,17.6499,17.6499,17.6499,17.6499,17.6499,17.6499,17.6499,17.6499,17.6499,17.6499,17.6499,17.6499,17.6499,17.6499,17.6499,17.6499,17.6499,17.6499,17.6499,17.6499,17.6499,17.6499,17.3262,17.3262,17.3262,17.3262,17.3262,17.3262,17.3262,17.3262,17.3262,17.3262,17.3262,17.3262,17.3262,17.3262,17.3262,17.3262,17.3224,17.3387,17.3576,17.3846,17.4181,17.4342,17.4741,17.4926,17.5111,17.5295,17.5517,17.5751,17.5829,17.5896,17.6103,17.6371,17.6448,17.6448,17.6474,17.6499,17.6499,17.6499,17.6499,17.6499,17.6499,17.6499,17.6499,17.6499,17.6499,17.6499,17.6499,17.6499,17.6499,17.6499,17.6499,17.6499,17.6499,17.6499,17.6499,17.6499,17.6499,17.6499,17.6499,17.6499,17.6499,17.6499,17.6499,17.6499,17.6499,17.6499,17.6499,17.6499,17.6499,17.6499,17.6499,17.6499,17.6499,17.6499,17.6499,17.6499,17.6499,17.6499,17.6499,17.6499,17.6499,17.6499,17.6499,17.6499,17.6499,17.6499,17.6499,17.6499,17.6499,17.6499,17.6499,17.6499,17.6499,17.6499,17.6499,17.6499,17.6499,17.6499,17.6499,17.6499,17.6499,17.6499,17.6499,17.6499,17.6499,17.6499,17.6499,17.6499,17.6499,17.6499,17.6499,17.6499,17.6499,17.6499,17.6499,17.3262,17.3262,17.3262,17.3262,17.3262,17.3262,17.3262,17.3262,17.3262,17.3262,17.3262,17.3262,17.3278,17.3224,17.3251,17.3289,17.3332,17.3603,17.3954,17.4168,17.4608,17.49,17.5138,17.5412,17.5751,17.6243,17.6294,17.632,17.632,17.6397,17.6371,17.6448,17.6499,17.6499,17.6499,17.6499,17.6499,17.6499,17.6499,17.6499,17.6499,17.6499,17.6499,17.6499,17.6499,17.6499,17.6499,17.6499,17.6499,17.6499,17.6499,17.6499,17.6499,17.6499,17.6499,17.6499,17.6499,17.6499,17.6499,17.6499,17.6499,17.6499,17.6499,17.6499,17.6499,17.6499,17.6499,17.6499,17.6499,17.6499,17.6499,17.6499,17.6499,17.6499,17.6499,17.6499,17.6499,17.6499,17.6499,17.6499,17.6499,17.6499,17.6499,17.6499,17.6499,17.6499,17.6499,17.6499,17.6499,17.6499,17.6499,17.6499,17.6499,17.6499,17.6499,17.6499,17.6499,17.6499,17.6499,17.6499,17.6499,17.6499,17.6499,17.6499,17.6499,17.6499,17.6499,17.6499,17.6499,17.6499,17.6499,17.6499,17.6499,17.6499,17.6499,17.3262,17.3262,17.3262,17.3262,17.3262,17.3262,17.3262,17.3262,17.3262,17.3262,17.3224,17.3561,17.3603,17.363,17.3993,17.4127,17.4208,17.4422,17.4635,17.4953,17.5164,17.5531,17.5751,17.6036,17.6217,17.6423,17.6499,17.6499,17.6499,17.6474,17.6499,17.6499,17.6499,17.6499,17.6499,17.6499,17.6499,17.6499,17.6499,17.6499,17.6499,17.6499,17.6499,17.6499,17.6499,17.6499,17.6432,17.6432,17.6432,17.6298,17.5762,17.5628,17.6324,17.6499,17.6499,17.6499,17.6499,17.6499,17.6499,17.6499,17.6432,17.6499,17.6499,17.6499,17.6499,17.6499,17.6499,17.6499,17.6499,17.6499,17.6499,17.6499,17.6499,17.6499,17.6499,17.6499,17.6499,17.6499,17.6499,17.6499,17.6499,17.6499,17.6499,17.6499,17.6499,17.6499,17.6499,17.6499,17.6499,17.6499,17.6499,17.6499,17.6499,17.6499,17.6499,17.6499,17.6499,17.6499,17.6499,17.6499,17.6499,17.6499,17.6499,17.6499,17.6499,17.6499,17.6499,17.6499,17.6499,17.6499,17.6499,17.6499,17.6499,17.6499,17.6499,17.3262,17.3262,17.3262,17.3262,17.3262,17.3262,17.3262,17.3262,17.3262,17.3262,17.3305,17.3738,17.3927,17.3981,17.4555,17.4926,17.4821,17.4874,17.5217,17.5647,17.5844,17.614,17.6371,17.6448,17.6499,17.6499,17.6499,17.6499,17.6499,17.6499,17.6499,17.6499,17.6499,17.6499,17.6499,17.6499,17.6499,17.6499,17.6499,17.6499,17.6499,17.6499,17.6499,17.6499,17.6499,17.6365,17.6097,17.5788,17.5896,17.5963,17.536,17.4916,17.5586,17.5561,17.5293,17.5226,17.536,17.5427,17.5519,17.5293,17.5561,17.5293,17.5226,17.5695,17.5896,17.5963,17.6097,17.6499,17.6499,17.6499,17.6499,17.6499,17.6499,17.6499,17.6499,17.6499,17.6499,17.6499,17.6499,17.6499,17.6499,17.6499,17.6499,17.6499,17.6499,17.6499,17.6499,17.6499,17.6499,17.6499,17.6499,17.6499,17.6499,17.6499,17.6499,17.6499,17.6499,17.6499,17.6499,17.6499,17.6499,17.6499,17.6499,17.6499,17.6499,17.6499,17.6499,17.6499,17.6499,17.6499,17.6499,17.6499,17.6499,17.6499,17.6499,17.3262,17.3262,17.3262,17.3262,17.3262,17.3262,17.3262,17.3196,17.3317,17.3251,17.3414,17.3765,17.4115,17.3981,17.4847,17.4979,17.4979,17.5111,17.5374,17.5751,17.614,17.6371,17.6499,17.6499,17.6499,17.6499,17.6499,17.6499,17.6499,17.6499,17.6499,17.6499,17.6499,17.6499,17.6499,17.6499,17.6499,17.6499,17.6499,17.6499,17.6499,17.6499,17.6365,17.6298,17.6298,17.5963,17.4757,17.3977,17.3977,17.6298,17.5117,17.4447,17.4313,17.3307,17.2905,17.2972,17.3106,17.3039,17.2771,17.3039,17.2905,17.3039,17.2972,17.3106,17.4313,17.4622,17.505,17.6097,17.6432,17.6365,17.6432,17.6499,17.6499,17.6499,17.6499,17.6499,17.6499,17.6499,17.6499,17.6499,17.6499,17.6499,17.6499,17.6499,17.6499,17.6499,17.6499,17.6499,17.6499,17.6499,17.6499,17.6499,17.6499,17.6499,17.6499,17.6499,17.6499,17.6499,17.6499,17.6499,17.6499,17.6499,17.6499,17.6499,17.6499,17.6499,17.6499,17.6499,17.6499,17.6499,17.6499,17.6499,17.6499,17.6499,17.6499,17.2446,17.3196,17.3262,17.3262,17.3262,17.3262,17.336,17.3603,17.363,17.3792,17.4288,17.4794,17.4966,17.5045,17.5543,17.587,17.5829,17.5829,17.5933,17.615,17.6263,17.6365,17.6432,17.6499,17.6499,17.6499,17.6499,17.6499,17.6499,17.6499,17.6499,17.6499,17.6499,17.6499,17.6499,17.6499,17.6499,17.6499,17.6499,17.6499,17.6499,17.6499,17.619,17.5519,17.6123,17.5829,17.469,17.4581,17.4313,17.3843,17.3508,17.3106,17.3039,17.2502,17.2234,17.2259,17.2259,17.2192,17.2259,17.2259,17.2259,17.2167,17.2259,17.2569,17.2972,17.3173,17.3709,17.5025,17.5251,17.5721,17.6231,17.6499,17.6499,17.6499,17.6499,17.6499,17.6499,17.6432,17.6499,17.6499,17.6499,17.6499,17.6499,17.6499,17.6499,17.6499,17.6499,17.6499,17.6499,17.6499,17.6499,17.6499,17.6499,17.6499,17.6499,17.6499,17.6499,17.6499,17.6499,17.6499,17.6499,17.6499,17.6499,17.6499,17.6499,17.6499,17.6499,17.6499,17.6499,17.6499,17.6499,17.6499,17.6499,17.6499,17.6499,17.1184,17.2267,17.2267,17.2348,17.2483,17.2483,17.2631,17.3017,17.2978,17.3349,17.4262,17.4905,17.5221,17.5725,17.5815,17.5896,17.5778,17.5804,17.5896,17.5922,17.5653,17.536,17.5385,17.5721,17.6097,17.6432,17.6499,17.6499,17.6499,17.6499,17.6499,17.6499,17.6499,17.6499,17.6499,17.6499,17.6499,17.6499,17.6499,17.6499,17.6499,17.6499,17.5922,17.505,17.5989,17.5695,17.4648,17.536,17.4715,17.2435,17.1899,17.1631,17.1564,17.1162,17.0759,17.0759,17.0893,17.096,17.096,17.0893,17.096,17.1095,17.0759,17.1229,17.1497,17.1966,17.2972,17.4044,17.4849,17.5427,17.6231,17.6499,17.6499,17.6499,17.6499,17.6298,17.5963,17.5896,17.5922,17.5989,17.5829,17.6097,17.6298,17.6499,17.6499,17.6499,17.6499,17.6499,17.6499,17.6499,17.6499,17.6499,17.6499,17.6499,17.6499,17.6499,17.6499,17.6499,17.6499,17.6499,17.6499,17.6499,17.6499,17.6499,17.6499,17.6499,17.6499,17.6499,17.6499,17.6499,17.6499,17.6499,17.6499,17.6499,17.6499,16.9357,16.9831,16.9924,17.0332,17.0697,17.0749,17.0934,17.0812,17.0905,17.1687,17.2799,17.3543,17.439,17.5321,17.4955,17.4715,17.4488,17.4648,17.4648,17.4044,17.3441,17.2905,17.3106,17.4044,17.505,17.5989,17.6231,17.6365,17.6231,17.6432,17.6499,17.6499,17.6499,17.6499,17.6499,17.6499,17.6499,17.6499,17.6499,17.6499,17.6499,17.6432,17.6231,17.6056,17.603,17.5427,17.4179,17.4246,17.3776,17.2301,17.096,17.0198,16.9796,16.8748,16.8346,16.8413,16.8145,16.8279,16.812,16.848,16.8413,16.848,16.8547,16.8522,16.993,17.1027,17.2234,17.3709,17.4916,17.5829,17.603,17.6231,17.6231,17.6432,17.5963,17.5519,17.4622,17.4447,17.4447,17.4514,17.4581,17.4916,17.5963,17.6097,17.6164,17.6164,17.603,17.603,17.6097,17.6097,17.6365,17.6499,17.6499,17.6499,17.6499,17.6499,17.6499,17.6499,17.6499,17.6499,17.6499,17.6499,17.6499,17.6499,17.6499,17.6499,17.6499,17.6499,17.6499,17.6499,17.6499,17.6499,17.6499,17.6499,17.6499,16.8184,16.9186,16.9555,16.9843,17.0025,17.0363,17.0672,17.0954,17.0939,17.1502,17.2249,17.2569,17.354,17.4595,17.4546,17.438,17.438,17.438,17.3374,17.1765,17.1832,17.2259,17.2301,17.2838,17.3374,17.3843,17.4715,17.5184,17.5226,17.6056,17.6499,17.6499,17.6499,17.6432,17.6499,17.6499,17.6499,17.6499,17.6432,17.6499,17.6298,17.5653,17.469,17.391,17.3843,17.3039,17.174,17.2502,17.2796,17.21,17.0735,16.9485,16.8614,16.8145,16.7742,16.7742,16.7742,16.7742,16.7742,16.7742,16.7742,16.7742,16.7742,16.8053,16.8455,16.8925,17.0064,17.1271,17.2234,17.2771,17.3776,17.4488,17.4648,17.3977,17.391,17.3575,17.324,17.2972,17.3039,17.3039,17.3039,17.3265,17.3642,17.3843,17.3843,17.3843,17.3843,17.3977,17.4891,17.5117,17.5788,17.6231,17.6097,17.603,17.6298,17.6365,17.6365,17.6231,17.603,17.5829,17.5829,17.5762,17.5829,17.5762,17.5829,17.5695,17.5762,17.5963,17.5896,17.6432,17.6499,17.6365,17.6164,17.6231,17.5963,16.6841,16.8104,16.8468,16.8804,16.9098,16.9496,16.9809,17.0136,17.0161,17.0654,17.138,17.1497,17.2301,17.3374,17.3173,17.2947,17.2972,17.2905,17.1631,16.9729,17.029,17.0759,17.0826,17.1296,17.1497,17.1765,17.2972,17.3709,17.3843,17.4648,17.5184,17.5184,17.5117,17.5159,17.5025,17.5184,17.5184,17.5184,17.5184,17.5184,17.5092,17.4179,17.324,17.2326,17.2192,17.1229,16.9418,17.0223,17.0759,17.0759,16.9821,16.8791,16.8011,16.7742,16.7742,16.7742,16.7742,16.7742,16.7742,16.7742,16.7742,16.7742,16.7742,16.7742,16.7742,16.8254,16.8992,16.9729,17.0332,17.096,17.21,17.3173,17.3039,17.1631,17.1966,17.2393,17.2301,17.1832,17.1564,17.1497,17.1497,17.1765,17.21,17.2301,17.2502,17.2435,17.2435,17.2637,17.3441,17.3709,17.4246,17.4916,17.4983,17.4782,17.4849,17.4824,17.469,17.4488,17.438,17.4246,17.4421,17.4488,17.4648,17.4715,17.4782,17.4782,17.4824,17.4824,17.4581,17.4849,17.505,17.5293,17.5628,17.5494,17.5159,16.508,16.6076,16.6202,16.6727,16.7668,16.7791,16.7803,16.8047,16.8004,16.8809,16.9863,16.993,17.0759,17.1698,17.1003,17.0064,17.0131,17.0131,16.9351,16.8078,16.8053,16.8145,16.8279,16.9394,16.993,16.9997,17.143,17.2167,17.2234,17.2502,17.2637,17.2435,17.2637,17.2771,17.2368,17.2637,17.2502,17.2637,17.2704,17.2502,17.2234,17.2301,17.21,17.21,17.1924,17.0625,16.8011,16.8011,16.8212,16.8078,16.7943,16.7809,16.7809,16.7742,16.7742,16.7742,16.7742,16.7742,16.7742,16.7742,16.7742,16.7742,16.7742,16.7742,16.7742,16.8681,16.9461,16.962,17.0625,17.1765,17.1765,17.1832,17.1296,17.0332,17.096,17.1631,17.1631,17.0735,16.993,16.993,16.993,17.0558,17.1631,17.1698,17.1564,17.1564,17.1631,17.1765,17.21,17.2167,17.2234,17.2502,17.2972,17.3307,17.3307,17.3265,17.3022,17.2846,17.2921,17.3106,17.3374,17.3441,17.3575,17.3508,17.3575,17.3508,17.3575,17.3575,17.3374,17.3307,17.2972,17.3173,17.3642,17.3977,17.3843,16.28,16.3147,16.354,16.444,16.5783,16.619,16.6847,16.7742,16.7742,16.7986,16.8388,16.848,16.9284,17.0332,17.0131,16.9394,16.8522,16.8455,16.8187,16.7742,16.7742,16.7742,16.7852,16.8212,16.848,16.8614,16.9016,16.9754,17.06,17.1698,17.2167,17.2167,17.2259,17.2259,17.2259,17.2259,17.2259,17.2259,17.2259,17.2167,17.21,17.1229,17.0692,17.0533,16.9687,16.8681,16.7876,16.7742,16.7742,16.7742,16.7742,16.7742,16.7742,16.7742,16.7742,16.7742,16.7742,16.7742,16.7742,16.7742,16.7742,16.7742,16.7742,16.7273,16.6536,16.7584,16.7876,16.7541,16.8346,16.9217,16.9016,16.8413,16.8011,16.8547,16.8858,16.915,16.915,16.8748,16.848,16.848,16.848,16.8681,16.9083,16.9217,16.9284,16.9217,16.9193,16.9687,17.0424,17.0692,17.0893,17.1966,17.1966,17.1924,17.2561,17.2268,17.1729,17.1857,17.1949,17.2282,17.2569,17.2435,17.246,17.2326,17.2326,17.2259,17.2259,17.2259,17.2326,17.2301,17.1899,17.1564,17.21,17.2393,17.2435,16.1704,16.1753,16.2246,16.3208,16.4269,16.4649,16.5262,16.62,16.6737,16.6737,16.631,16.6713,16.7541,16.8321,16.7785,16.7048,16.62,16.6133,16.6109,16.6176,16.6109,16.6444,16.6938,16.7005,16.7206,16.7675,16.7809,16.8187,16.9217,17.0089,17.0625,17.0625,17.0625,17.0625,17.0625,17.0625,17.0625,17.0625,17.0625,17.0625,17.0424,16.962,16.9126,16.9059,16.8279,16.7742,16.7742,16.7742,16.7742,16.7742,16.7742,16.7742,16.7742,16.7249,16.6737,16.6243,16.6109,16.6109,16.6176,16.667,16.7005,16.7005,16.7383,16.734,16.6804,16.7115,16.7407,16.6737,16.6938,16.6914,16.6871,16.6737,16.6804,16.7474,16.734,16.7072,16.7005,16.7005,16.7005,16.7072,16.7517,16.7742,16.7943,16.7809,16.7742,16.7742,16.7809,16.8212,16.8949,16.9126,16.9418,17.029,17.065,17.1026,17.2027,17.1508,17.1124,17.1372,17.1505,17.2187,17.2557,17.2657,17.263,17.2658,17.1673,17.153,17.1223,17.108,17.0022,17.0156,17.0156,17.0156,17.1296,17.0424,17.0558,16.1644,16.1609,16.2161,16.2598,16.316,16.3136,16.3294,16.3696,16.4927,16.4702,16.3763,16.4903,16.5463,16.5329,16.4098,16.3294,16.3337,16.3471,16.3562,16.3562,16.3495,16.4165,16.553,16.5597,16.6267,16.7383,16.7474,16.7541,16.7675,16.7809,16.7742,16.7876,16.8011,16.7876,16.8011,16.8078,16.7876,16.8078,16.8078,16.7943,16.7876,16.7876,16.7876,16.7876,16.7742,16.7742,16.7742,16.7651,16.7675,16.7675,16.7383,16.7474,16.734,16.62,16.4927,16.3629,16.3428,16.3337,16.3629,16.4769,16.553,16.5664,16.6511,16.734,16.667,16.6914,16.6938,16.7273,16.5798,16.5396,16.553,16.5975,16.6852,16.7338,16.6508,16.6205,16.6118,16.6581,16.5947,16.6354,16.7174,16.7675,16.7742,16.7767,16.8082,16.8106,16.8154,16.8371,16.8769,16.8462,16.8625,16.8784,16.8908,16.9232,17.1999,17.1719,17.2093,17.2353,17.2014,17.286,17.3082,17.3187,17.3227,17.2891,17.2061,17.1276,17.0525,16.9881,16.9328,16.8692,16.8923,16.9119,17.0424,16.8931,16.9371,15.9723,15.9747,15.9864,16.063,16.1685,16.1685,16.2355,16.3294,16.3696,16.3696,16.3361,16.3696,16.3361,16.2355,16.1977,16.2355,16.316,16.327,16.327,16.327,16.327,16.4122,16.5396,16.4524,16.4702,16.5999,16.62,16.62,16.6334,16.7206,16.7742,16.7742,16.7742,16.7742,16.7742,16.7742,16.7742,16.7742,16.7742,16.7742,16.7742,16.7742,16.7742,16.7742,16.7742,16.7742,16.7718,16.6737,16.62,16.6133,16.5104,16.45,16.45,16.4098,16.3696,16.3361,16.327,16.327,16.327,16.3696,16.3897,16.3988,16.4232,16.4098,16.3361,16.3897,16.3964,16.3278,16.2624,16.3033,16.3562,16.3294,16.402,16.61,16.7278,16.8161,16.9091,16.9252,16.8908,16.8973,16.794,16.7742,16.7937,16.8832,16.9654,16.9794,17.0819,17.1683,17.1683,17.146,17.146,17.1683,17.1661,17.1288,16.9969,17.0321,17.049,17.0926,17.1772,17.2181,17.2979,17.316,17.3251,17.3305,17.2916,17.2262,17.1628,17.1753,17.1598,17.0115,16.8899,16.8505,16.9737,17.0016,17.0479,15.896,15.896,15.896,15.9496,16.0234,16.0234,16.0747,16.1618,16.2154,16.202,16.1551,16.1551,16.1105,16.0301,16.0301,16.0747,16.1484,16.1574,16.1551,16.1551,16.1574,16.2288,16.3586,16.2758,16.3227,16.4567,16.4658,16.4634,16.4927,16.6133,16.7206,16.7675,16.7742,16.7742,16.7742,16.7742,16.7742,16.7742,16.7742,16.7961,16.8274,16.8178,16.8082,16.7966,16.7236,16.6871,16.6737,16.5439,16.4658,16.4591,16.3854,16.327,16.327,16.2691,16.2422,16.2355,16.1886,16.1551,16.1551,16.2087,16.2422,16.2422,16.3551,16.3969,16.3159,16.3811,16.3726,16.2704,16.2903,16.3493,16.4354,16.4309,16.4866,16.6466,16.718,16.7792,16.8903,16.8763,16.8389,16.775,16.723,16.7167,16.7962,16.8955,17.0045,17.157,17.1736,17.1986,17.2063,17.171,17.1412,17.1419,17.2601,17.2373,17.1413,17.0685,17.1164,17.1815,17.2057,17.2198,17.3316,17.3481,17.3442,17.3469,17.263,17.2171,17.2479,17.1872,17.1064,17.0034,16.8615,16.8367,16.9437,17.0202,17.1359,15.896,15.896,15.896,15.896,15.9027,15.9027,15.9094,15.9228,16.0368,16.0143,15.9228,15.9027,15.9094,15.896,15.8467,15.8289,15.8356,15.7954,15.7887,15.8199,15.8423,15.9429,16.1149,16.1015,16.1685,16.2959,16.3093,16.3093,16.3136,16.4634,16.6133,16.7383,16.7742,16.77,16.7614,16.7748,16.784,16.7888,16.7912,16.8395,16.925,16.8895,16.8499,16.8336,16.6604,16.5602,16.5396,16.3921,16.3093,16.3093,16.2959,16.2825,16.2691,16.1685,16.1041,16.1183,15.9997,15.9327,15.96,16.0697,16.1508,16.162,16.4062,16.5491,16.5491,16.5575,16.5157,16.4661,16.5261,16.5581,16.6101,16.6957,16.7491,16.7749,16.7246,16.6583,16.7071,16.6672,16.6053,16.4487,16.6026,16.6652,16.8063,16.847,16.9627,17.2126,17.2036,17.1752,17.1662,17.0765,17.0007,16.9587,17.1129,17.2826,17.2789,17.3245,17.272,17.3145,17.3444,17.3413,17.3539,17.3716,17.3764,17.3553,17.257,17.19,17.1381,17.0259,16.9457,16.95,16.9226,16.8777,16.8674,16.981,17.1103,15.896,15.896,15.896,15.896,15.896,15.896,15.896,15.9027,15.9362,15.9295,15.9027,15.896,15.896,15.8624,15.5406,15.3931,15.3395,15.0244,15.0601,15.3663,15.3909,15.6456,16.0703,15.9942,16.0234,16.1484,16.1618,16.1618,16.1752,16.3093,16.4591,16.6042,16.7182,16.7424,16.6755,16.7765,16.8538,16.8987,16.9229,16.9534,16.9766,16.965,16.8711,16.7016,16.6423,16.5466,16.3854,16.2355,16.1618,16.1551,16.0545,15.9942,15.9965,15.9674,16.005,16.128,16.1137,16.154,16.2759,16.32,16.3407,16.3427,16.4053,16.4465,16.4429,16.4516,16.499,16.5758,16.5087,16.4618,16.4677,16.5034,16.559,16.6898,16.777,16.8624,16.9933,17.0082,16.9745,16.9375,16.8475,16.7975,16.8341,16.848,16.9414,17.1407,17.25,17.3037,17.3092,17.2897,17.1461,17.0042,16.9574,17.0267,17.0158,17.0283,17.0783,17.187,17.1941,17.2441,17.328,17.3636,17.3708,17.3442,17.3182,17.274,17.2989,17.2543,17.1729,17.043,17.0129,16.9901,16.895,16.9818,17.089,15.7351,15.7864,15.7931,15.7931,15.7998,15.8692,15.896,15.8759,15.6121,15.4915,15.5049,15.6412,15.6926,15.6747,15.4445,15.3708,15.4244,15.1786,15.2367,15.5272,15.5406,15.715,15.9875,15.9362,15.9429,16.0099,16.0166,16.0166,16.0301,16.1618,16.2691,16.3562,16.497,16.5995,16.645,16.7147,16.822,16.9534,17.0228,17.073,17.0934,17.0503,16.9364,16.7409,16.6202,16.4818,16.2966,16.1322,16.04,16.0467,15.8851,15.7931,15.7954,15.7985,15.8158,15.8332,15.9699,16.0586,16.077,16.1476,16.1912,16.1932,16.2614,16.3356,16.415,16.4291,16.4693,16.5455,16.4836,16.4293,16.4223,16.4874,16.5643,16.6588,16.8058,16.9368,17.0188,17.0272,16.9823,16.9036,16.8185,16.7922,16.8601,16.869,16.9523,17.1874,17.2989,17.3353,17.2746,17.205,17.0909,16.957,16.9142,16.9142,16.9159,16.9142,16.9444,17.0158,17.0389,17.0728,17.1371,17.1639,17.1568,17.1639,17.1639,17.1639,17.1533,17.1639,17.1258,17.0254,17.0165,16.9948,16.9199,16.9421,16.9865,15.5227,15.6367,15.6367,15.6121,15.583,15.7217,15.7485,15.6725,15.2166,15.0066,15.0267,15.3038,15.4244,15.4244,15.3775,15.4311,15.5384,15.4758,15.5608,15.7418,15.7663,15.8088,15.8692,15.887,15.896,15.896,15.9027,15.896,15.9161,16.0234,16.0948,16.1283,16.2154,16.3846,16.5888,16.6413,16.765,16.982,17.0862,17.1644,17.2268,17.1427,17.025,16.8636,16.6373,16.4269,16.2418,16.0435,15.9086,15.8321,15.6841,15.6056,15.6032,15.6106,15.5951,15.5426,15.7677,15.8559,15.7451,15.8617,15.9543,15.9828,16.1351,16.2609,16.3409,16.3451,16.3539,16.3824,16.3924,16.411,16.4252,16.5438,16.6244,16.6486,16.7644,16.8429,16.8357,16.8378,16.7921,16.6959,16.6636,16.7182,16.8575,16.8927,16.9932,17.2274,17.2498,17.2566,17.1228,16.9944,16.923,16.9142,16.9142,16.9142,16.9142,16.9142,16.9159,16.9142,16.9213,16.9356,16.9516,16.9516,16.9516,16.923,16.9444,16.9356,16.9356,16.9142,16.9306,16.9326,16.9313,16.9204,16.9156,16.9173,16.92,15.4714,15.4915,15.4915,15.3507,15.1273,15.1496,15.0267,14.8056,0.0,0.0,0.0,15.1965,15.277,15.2568,15.0222,14.9217,14.9217,14.5706,14.6154,14.9887,15.1094,15.3574,15.706,15.84,15.896,15.896,15.896,15.896,15.9027,15.9295,15.9942,16.0948,16.0234,16.1338,16.4406,16.6501,16.8299,16.9862,17.0495,17.1438,17.2676,17.2525,17.1402,16.9192,16.7463,16.4952,16.1527,15.9415,15.6429,15.2559,15.2748,15.3002,15.3001,15.3026,15.472,15.8245,15.808,15.8107,15.9189,15.9577,16.0277,16.1522,16.3155,16.2478,15.8854,15.8671,15.9186,16.0558,16.181,16.2524,16.2524,16.3951,16.4895,16.4895,16.5109,16.5323,16.5306,16.5251,16.5723,16.6609,16.6671,16.7362,16.8718,16.8985,16.9404,16.9805,17.0158,16.9784,16.9516,16.9302,16.9016,16.9071,16.9142,16.9142,16.9142,16.9142,16.9142,16.9142,16.9142,16.9142,16.9142,16.9142,16.9142,16.9142,16.9142,16.9142,16.9142,16.9142,16.9142,16.9142,16.9142,16.9142,16.9142,16.9159,16.9088,15.0469,0.0,15.1161,15.0335,0.0,14.9731,14.5865,13.9095,14.1307,14.3519,14.5752,14.7989,14.8949,14.886,14.7385,14.7184,14.7855,14.6401,14.734,15.0222,15.2412,15.4155,15.5652,15.7127,15.7418,15.6792,15.7462,15.7864,15.7864,15.8601,15.9339,16.0032,15.9362,15.9928,16.18,16.4064,16.618,16.8224,16.9443,17.0517,17.1438,17.1458,17.0905,16.9748,16.7627,0.0,0.0,0.0,0.0,0.0,0.0,0.0,0.0,0.0,0.0,14.989,14.7151,14.5466,14.5441,14.6232,14.8754,15.3376,15.4446,15.3249,14.9396,15.2836,15.439,15.2907,15.6332,15.8616,15.8616,16.0027,16.0883,16.0954,16.1612,16.2469,16.3095,16.3237,16.3896,16.5251,16.5608,16.5822,16.6662,16.7392,16.7891,16.7963,16.8588,16.9142,16.9088,16.8462,16.8319,16.8999,16.9142,16.9159,16.9142,16.9142,16.9142,16.9142,16.9142,16.9142,16.9142,16.9142,16.9142,16.9142,16.9142,16.9142,16.9142,16.9142,16.9142,16.9142,16.9142,16.8731,16.7019,16.7392,16.7891,14.5509,14.667,14.667,14.6334,14.5932,14.7072,14.2044,13.3301,13.4595,13.7143,14.0631,14.3184,14.4302,14.4436,14.4906,14.5844,14.7139,14.8525,15.0066,15.163,15.4244,15.4982,15.4244,15.5585,15.5786,15.5049,15.6099,15.6702,15.6702,15.7931,15.8534,15.8557,15.8534,15.8967,15.9804,0.0,0.0,0.0,16.8552,17.0227,17.1083,17.1093,17.1182,17.1123,16.8311,0.0,16.6214,16.2757,16.0949,16.0933,15.7869,0.0,0.0,0.0,0.0,0.0,0.0,0.0,0.0,0.0,0.0,0.0,14.162,14.1049,13.9907,14.6043,14.8127,14.3689,14.9554,15.3509,15.2923,15.4763,15.6245,15.6531,15.7688,15.9044,16.0526,16.074,16.1382,16.2881,16.3396,16.3682,16.411,16.5394,16.6338,16.6409,16.7392,16.816,16.816,16.7035,16.6838,16.7946,16.8017,16.816,16.8231,16.816,16.7946,16.8231,16.8231,16.816,16.8089,16.8089,16.816,16.8089,16.8231,16.816,16.816,16.8231,16.8017,16.8231,16.816,16.7447,16.5021,16.5465,16.6338,14.1972,14.2152,14.2173,14.0677,13.8263,13.8465,13.768,13.6319,13.654,13.6942,13.7526,13.9135,13.9785,14.0007,14.2534,14.3829,14.4164,14.5509,14.705,14.8546,15.0133,15.1563,15.2725,15.411,15.5384,15.6367,15.6568,15.6702,15.6702,15.6859,15.697,15.6993,15.6993,15.8074,16.0186,16.0856,16.2335,16.4706,16.8679,17.1909,17.4269,17.4609,17.4699,17.4269,17.1363,16.8334,16.5321,16.2145,15.7934,15.2509,15.2808,15.3299,15.3499,14.9835,14.565,0.0,13.6506,0.0,0.0,0.0,0.0,0.0,0.0,0.0,0.0,13.8267,13.8494,13.3812,14.279,14.7699,14.5002,14.8683,15.1736,15.3193,15.3621,15.4278,15.5777,15.6006,15.6633,15.8187,15.9543,16.0899,16.2167,16.3824,16.4752,16.4681,16.4823,16.4823,16.4966,16.4752,16.4752,16.495,16.5037,16.5394,16.5394,16.5164,16.5251,16.518,16.5235,16.5037,16.518,16.5109,16.5109,16.5021,16.5021,16.5092,16.5037,16.5109,16.5109,16.5235,16.5037,16.4609,16.4181,16.4252,16.4752,13.8887,13.882,13.88,13.6654,13.3148,13.3167,13.407,13.5607,13.6488,13.7266,13.8146,13.9544,13.9743,13.907,13.9536,14.0222,14.0954,14.1668,14.3208,14.5466,14.6937,14.7922,14.868,15.0938,15.1965,15.1876,15.3507,15.4311,15.4378,15.592,15.7132,15.8085,15.8007,15.6002,15.2504,15.7665,16.1503,16.3485,16.6835,17.0242,17.3605,17.2999,17.3042,17.3837,17.0307,16.7832,16.6687,16.3622,16.055,15.7672,15.6008,15.5263,15.5169,14.2419,13.5939,0.0,0.0,0.0,0.0,0.0,0.0,0.0,0.0,0.0,0.0,0.0,12.746,12.9086,13.8192,14.2062,13.7224,14.0207,14.3118,14.4759,14.3474,14.4802,15.0583,15.0473,15.1288,15.4492,15.6205,15.749,15.8203,15.9615,16.0883,16.1755,16.0344,15.9622,16.0534,16.1423,16.2183,16.3023,16.3879,16.4466,16.4466,16.4466,16.4466,16.4379,16.3753,16.3166,16.3166,16.2469,16.1898,16.1898,16.1826,16.2112,16.2952,16.3166,16.3523,16.3682,16.1771,15.9543,15.9274,15.9987,16.0883,13.4777,13.4634,13.3039,13.0871,12.8508,12.8526,13.0608,13.4054,13.5227,13.6577,13.7878,13.7464,13.6498,13.4951,13.1988,13.2233,13.507,13.5806,13.8547,14.2826,14.4445,14.5262,14.5689,14.7922,14.8807,14.8607,15.0403,15.1851,15.3022,15.4032,15.4813,15.5296,15.5587,15.2348,14.6282,15.3154,15.8617,16.2081,16.5274,16.8671,17.2153,17.1479,17.1657,17.2971,16.9134,16.7169,16.7296,16.4021,16.2066,16.1624,15.6037,15.2571,15.169,13.2429,0.0,0.0,0.0,0.0,0.0,0.0,0.0,0.0,0.0,10.9412,10.3511,0.0,11.9288,0.0,13.3216,13.6408,13.2027,13.3481,0.0,0.0,13.4432,13.5597,14.2816,14.4,14.5659,14.9101,15.1811,15.3565,15.3906,15.5333,15.6562,15.6925,15.5314,15.466,15.637,15.7844,15.9115,16.0257,16.1256,16.2183,16.204,16.2183,16.204,16.2255,16.1168,16.0455,16.0455,15.9488,15.8703,15.8703,15.8631,15.9115,16.0185,16.0455,16.0701,16.0693,15.7751,15.4594,15.4656,15.5879,15.726,12.8828,12.8275,12.205,12.0958,12.3371,12.3405,12.6897,13.2487,13.264,13.3508,13.4398,12.8985,12.5561,12.3471,11.6227,0.0,12.3877,12.6646,13.2649,14.1317,14.2875,14.4341,14.5576,14.5823,14.7356,14.9998,14.872,15.0354,15.4123,15.048,14.7022,14.4438,14.5636,14.6404,14.6695,14.726,15.1935,16.0375,16.4962,16.8518,17.0963,17.2278,17.2847,17.2666,16.9511,16.7225,16.5736,16.1793,15.8835,15.7117,14.6291,13.877,13.5542,0.0,0.0,0.0,0.0,0.0,0.0,0.0,0.0,0.0,0.0,0.0,0.0,0.0,0.0,0.0,12.6591,0.0,13.1554,13.0625,0.0,0.0,0.0,12.8928,13.1054,13.619,13.9649,14.0064,0.0,0.0,15.0437,15.2107,15.2228,14.9707,15.0394,15.1665,15.2983,15.4467,15.5492,15.5665,15.5777,15.5935,15.6205,15.6149,15.6165,15.6149,15.5706,15.5634,15.5665,15.5436,15.542,15.5293,15.5436,15.5492,15.5634,15.5594,15.4941,15.264,15.2476,15.2998,15.3066,15.4017,15.4921,12.1558,11.1844,10.8261,10.9128,11.2758,11.1878,11.6027,12.3354,12.2496,12.1803,12.1169,11.781,11.3291,10.8159,10.408,0.0,0.0,0.0,11.9513,13.1178,13.1866,13.601,14.2626,14.2935,14.404,14.6096,14.6408,14.7497,14.9151,15.0061,14.1439,12.4109,0.0,0.0,12.6194,13.4287,14.3589,15.3464,16.0369,16.5677,16.9414,17.2113,17.302,17.1866,16.8653,16.5793,16.3594,16.0966,15.533,14.6195,13.8483,12.9919,0.0,0.0,0.0,0.0,0.0,0.0,0.0,0.0,0.0,0.0,0.0,8.4979,8.3219,0.0,0.0,0.0,10.3289,10.9452,11.5761,12.1868,0.0,0.0,0.0,0.0,0.0,0.0,0.0,13.3083,13.8938,14.3323,14.4898,14.4826,14.5025,14.5795,14.6396,14.7286,14.8821,0.0,15.1326,15.115,15.275,15.3532,15.2423,15.2401,15.2446,15.2209,15.1409,15.0898,15.1005,15.0101,14.9411,14.9411,14.934,14.9697,15.0639,15.0307,14.9494,14.8533,14.8534,14.8734,14.8835,14.9118,14.9697,11.0777,0.0,0.0,0.0,0.0,9.9447,10.3911,11.155,11.0464,10.9291,10.788,10.4581,0.0,0.0,0.0,0.0,0.0,0.0,11.073,12.1923,12.7201,13.335,14.0418,14.045,14.1533,14.3415,14.3658,14.3684,14.3527,14.1959,12.9119,10.6323,0.0,0.0,0.0,0.0,13.5007,14.6044,15.6043,16.3305,16.7949,17.1305,17.2369,17.08,16.7925,16.4828,16.1509,15.6888,14.8626,13.6398,12.6293,0.0,0.0,0.0,0.0,0.0,0.0,0.0,0.0,0.0,0.0,0.0,0.0,0.0,0.0,0.0,0.0,0.0,0.0,0.0,10.3557,11.2299,11.4137,0.0,0.0,0.0,0.0,0.0,0.0,0.0,0.0,0.0,13.6478,13.7078,13.879,0.0,0.0,14.3212,14.4351,14.6204,14.744,14.7273,14.9537,0.0,14.8161,14.8806,14.9236,14.8018,14.7574,14.7031,14.5944,14.5373,14.4617,14.333,14.4202,14.5002,14.4887,14.3576,14.257,14.2637,14.2736,14.2774,14.2972,14.4283,14.5502,0.0,0.0,0.0,0.0,0.0,0.0,0.0,0.0,9.732,9.7026,0.0,8.889,0.0,0.0,0.0,0.0,0.0,9.7525,0.0,0.0,13.2107,13.9957,13.8668,13.8618,14.0401,14.3085,14.0016,13.8416,13.7437,12.2057,0.0,0.0,0.0,0.0,0.0,0.0,12.6339,13.8925,15.2734,16.2096,16.675,16.9889,17.0728,16.923,16.7589,16.4466,15.9559,14.7984,13.7852,12.9575,10.766,0.0,0.0,0.0,0.0,0.0,0.0,0.0,0.0,0.0,0.0,0.0,0.0,0.0,0.0,0.0,0.0,0.0,0.0,0.0,0.0,10.2864,0.0,0.0,0.0,0.0,0.0,0.0,0.0,0.0,0.0,0.0,12.4449,12.9485,13.4393,13.7234,0.0,0.0,0.0,0.0,14.4181,14.4181,14.563,14.5688,14.249,14.4611,14.5544,14.2418,0.0,0.0,14.0034,14.1679,14.2191,13.8191,14.097,14.266,13.8009,13.4745,13.2966,13.3188,13.4225,13.5071,13.5728,13.949,14.3324,0.0,0.0,0.0,0.0,0.0,0.0,0.0,0.0,0.0,7.8445,0.0,7.2484,0.0,0.0,0.0,0.0,0.0,0.0,0.0,0.0,11.4047,12.3003,12.6464,12.9666,13.0134,0.0,12.5965,11.9035,0.0,0.0,0.0,0.0,0.0,0.0,0.0,0.0,11.9396,13.4012,14.9982,16.1042,16.6552,16.889,16.9658,16.9088,16.7606,15.9702,14.493,13.7281,12.822,0.0,0.0,0.0,0.0,0.0,0.0,0.0,0.0,0.0,0.0,0.0,0.0,0.0,0.0,0.0,0.0,0.0,0.0,0.0,0.0,0.0,0.0,0.0,9.8244,0.0,0.0,0.0,0.0,0.0,0.0,0.0,0.0,0.0,11.1723,12.1281,12.9571,13.2494,13.6061,13.838,13.8115,0.0,0.0,0.0,0.0,0.0,0.0,0.0,13.83,13.6038,13.5066,13.3893,13.1893,13.4124,13.5766,13.4264,0.0,0.0,12.5509,12.3632,12.3954,12.5053,12.6289,12.7565,12.8679,13.1219,13.3259,0.0,0.0,0.0,0.0,0.0,0.0,0.0,0.0,0.0,6.3503,6.0929,0.0,0.0,0.0,0.0,0.0,0.0,0.0,0.0,0.0,0.0,0.0,11.3686,11.7458,0.0,0.0,0.0,0.0,0.0,0.0,0.0,0.0,0.0,0.0,0.0,0.0,11.3791,12.8434,14.6557,15.8901,16.5037,16.675,16.7518,16.7518,16.6536,15.7362,13.9219,0.0,0.0,0.0,0.0,0.0,0.0,0.0,0.0,0.0,0.0,0.0,0.0,0.0,0.0,0.0,0.0,0.0,0.0,0.0,0.0,0.0,0.0,0.0,0.0,0.0,8.7859,0.0,0.0,0.0,0.0,0.0,0.0,0.0,0.0,0.0,0.0,0.0,12.1939,12.8073,13.2673,13.6028,13.7371,13.7723,13.776,0.0,0.0,0.0,0.0,0.0,0.0,0.0,0.0,0.0,0.0,0.0,0.0,0.0,0.0,12.2334,11.2719,11.0912,11.1273,11.2356,0.0,0.0,0.0,0.0,0.0,0.0,0.0,0.0,0.0,0.0,0.0,0.0,0.0,0.0,0.0,0.0,0.0,0.0,4.7249,0.0,0.0,0.0,0.0,0.0,0.0,0.0,0.0,0.0,0.0,0.0,0.0,0.0,0.0,0.0,0.0,0.0,0.0,0.0,0.0,0.0,0.0,10.9716,12.1988,14.2347,15.5761,16.1794,16.3594,16.4466,16.4466,16.4395,15.7679,14.3344,0.0,0.0,0.0,0.0,0.0,0.0,0.0,0.0,0.0,0.0,0.0,0.0,0.0,0.0,0.0,0.0,0.0,0.0,0.0,0.0,0.0,0.0,0.0,0.0,0.0,0.0,7.5309,8.0397,8.4782,0.0,0.0,0.0,0.0,0.0,0.0,0.0,0.0,0.0,0.0,12.8592,13.2491,13.6943,13.7605,13.7533,13.7605,13.7593,13.6594,13.3767,13.7064,13.7594,0.0,0.0,0.0,0.0,0.0,0.0,0.0,0.0,0.0,0.0,0.0,0.0,0.0,0.0,0.0,0.0,0.0,0.0,0.0,0.0,0.0,0.0,0.0,0.0,0.0,0.0,0.0,0.0,0.0,0.0,0.0,0.0,0.0,0.0,0.0,0.0,0.0,0.0,0.0,0.0,0.0,0.0,0.0,0.0,0.0,0.0,0.0,0.0,0.0,0.0,0.0,0.0,0.0,0.0,10.7565,11.8859,13.9035,15.2479,15.8743,16.1454,16.2793,16.2809,16.1755,15.3554,0.0,0.0,0.0,0.0,0.0,0.0,0.0,0.0,0.0,0.0,0.0,0.0,0.0,0.0,0.0,0.0,0.0,0.0,0.0,0.0,0.0,0.0,0.0,0.0,0.0,0.0,0.0,0.0,8.7774,8.7891,8.1665,0.0,0.0,0.0,0.0,0.0,0.0,0.0,0.0,0.0,0.0,13.0108,13.2563,13.2924,13.3273,13.444,13.3646,13.3357,13.4585,13.509,13.4452,13.213,0.0,0.0,0.0,0.0,0.0,0.0,0.0,0.0,0.0,0.0,0.0,0.0,0.0,0.0,0.0,0.0,0.0,0.0,0.0,0.0,0.0,0.0,0.0,0.0,0.0,0.0,0.0,0.0,0.0,0.0,0.0,0.0,0.0,0.0,0.0,0.0,0.0,0.0,0.0,0.0,0.0,0.0,0.0,0.0,0.0,0.0,0.0,0.0,0.0,0.0,0.0,0.0,0.0,10.4226,11.5795,13.5208,14.8326,15.4462,15.7831,15.9456,15.9456,15.7918,14.7301,0.0,0.0,0.0,0.0,0.0,0.0,0.0,0.0,0.0,0.0,0.0,0.0,0.0,0.0,0.0,0.0,0.0,0.0,0.0,0.0,0.0,0.0,0.0,0.0,0.0,0.0,0.0,0.0,8.0778,8.2831,7.7714,0.0,0.0,0.0,0.0,0.0,0.0,0.0,0.0,0.0,0.0,12.5003,12.7967,12.8217,0.0,0.0,12.9299,12.7805,13.2142,13.2996,13.1913,12.8315,12.6076,0.0,0.0,0.0,0.0,0.0,0.0,0.0,0.0,0.0,0.0,0.0,0.0,0.0,0.0,0.0,0.0,0.0,0.0,0.0,0.0,0.0,0.0,0.0,0.0,0.0,0.0,0.0,0.0,0.0,0.0,0.0,0.0,0.0,0.0,0.0,0.0,0.0,0.0,0.0,0.0,0.0,0.0,0.0,0.0,0.0,0.0,0.0,0.0,0.0,0.0,0.0,0.0,0.0,11.248,13.108,14.3831,14.9795,15.3422,15.515,15.4936,15.3351,14.0131,0.0,0.0,0.0,0.0,0.0,0.0,0.0,0.0,0.0,0.0,0.0,0.0,0.0,0.0,0.0,0.0,0.0,0.0,0.0,0.0,0.0,0.0,0.0,0.0,0.0,0.0,0.0,0.0,0.0,0.0,0.0,0.0,0.0,0.0,0.0,0.0,0.0,0.0,0.0,0.0,0.0,11.8215,12.392,12.3805,12.5386,0.0,0.0,12.0779,12.646,13.0048,12.9025,11.9866,0.0,0.0,0.0,0.0,0.0,0.0,0.0,0.0,0.0,0.0,0.0,0.0,0.0,0.0,0.0,0.0,0.0,0.0,0.0,0.0,0.0,0.0,0.0,0.0,0.0,0.0,0.0,0.0,0.0,0.0,0.0,0.0,0.0,0.0,0.0,0.0,0.0,0.0,0.0,0.0,0.0,0.0,0.0,0.0,0.0,0.0,0.0,0.0,0.0,0.0,0.0,0.0,0.0,0.0,10.6422,12.7968,14.1606,14.6671,15.3407,15.5761,15.3422,15.0624,0.0,0.0,0.0,0.0,0.0,0.0,0.0,0.0,0.0,0.0,0.0,0.0,0.0,0.0,0.0,0.0,0.0,0.0,0.0,0.0,0.0,0.0,0.0,0.0,0.0,0.0,0.0,5.2653,0.0,0.0,0.0,0.0,0.0,0.0,0.0,0.0,0.0,0.0,0.0,0.0,0.0,0.0,11.5261,12.5997,12.1328,11.8527,0.0,0.0,11.5654,11.5925,11.9649,12.0083,0.0,0.0,0.0,0.0,0.0,0.0,0.0,0.0,0.0,0.0,0.0,0.0,0.0,0.0,0.0,0.0,0.0,0.0,0.0,0.0,0.0,0.0,0.0,0.0,0.0,0.0,0.0,0.0,0.0,0.0,0.0,0.0,0.0,0.0,0.0,0.0,0.0,0.0,0.0,0.0,0.0,0.0,0.0,0.0,0.0,0.0,0.0,0.0,0.0,0.0,0.0,0.0,0.0,0.0,9.25,10.324,12.3886,13.7944,14.4488,15.1694,15.4263,15.1751,14.7913,13.4216,0.0,0.0,0.0,0.0,0.0,0.0,0.0,0.0,0.0,0.0,0.0,0.0,0.0,0.0,0.0,0.0,0.0,0.0,0.0,0.0,0.0,0.0,0.0,0.0,0.0,0.0,0.0,0.0,0.0,0.0,0.0,0.0,0.0,0.0,0.0,0.0,0.0,0.0,0.0,0.0,0.0,0.0,11.7798,11.3246,0.0,0.0,0.0,10.9095,11.1473,0.0,0.0,0.0,0.0,0.0,0.0,0.0,0.0,0.0,0.0,0.0,0.0,0.0,0.0,0.0,0.0,0.0,0.0,0.0,0.0,0.0,0.0,0.0,0.0,0.0,0.0,0.0,0.0,0.0,0.0,0.0,0.0,0.0,0.0,0.0,0.0,0.0,0.0,0.0,0.0,0.0,0.0,0.0,0.0,0.0,0.0,0.0,0.0,0.0,0.0,0.0,0.0,0.0,0.0,0.0,0.0,0.0,10.1306,12.0501,13.4732,14.3188,14.9699,15.2111,15.0068,14.5287,13.1288,0.0,0.0,0.0,0.0,0.0,0.0,0.0,0.0,0.0,0.0,0.0,0.0,0.0,0.0,0.0,0.0,0.0,0.0,0.0,0.0,0.0,0.0,0.0,0.0,0.0,0.0,0.0,0.0,0.0,0.0,0.0,0.0,0.0,0.0,0.0,0.0,0.0,0.0,0.0,0.0,0.0,10.8965,10.6688,10.3774,10.218,0.0,0.0,10.1275,10.8427,10.8972,0.0,0.0,0.0,0.0,0.0,0.0,0.0,0.0,0.0,0.0,0.0,0.0,0.0,0.0,0.0,0.0,0.0,0.0,0.0,0.0,0.0,0.0,0.0,0.0,0.0,0.0,0.0,0.0,0.0,0.0,0.0,0.0,0.0,0.0,0.0,0.0,0.0,0.0,0.0,0.0,0.0,0.0,0.0,0.0,0.0,0.0,0.0,0.0,0.0,0.0,0.0,0.0,0.0,0.0,0.0,0.0,9.8703,12.2639,13.8131,14.4017,15.1198,15.3027,14.8877,14.2831,12.9696,0.0,0.0,0.0,0.0,0.0,0.0,0.0,0.0,0.0,0.0,0.0,0.0,0.0,0.0,0.0,0.0,0.0,0.0,0.0,0.0,0.0,0.0,0.0,0.0,0.0,0.0,0.0,0.0,0.0,0.0,0.0,0.0,0.0,0.0,0.0,0.0,0.0,0.0,0.0,0.0,0.0,10.0575,10.9544,10.3108,0.0,0.0,0.0,0.0,9.4546,9.1867,0.0,0.0,0.0,0.0,0.0,0.0,0.0,0.0,0.0,0.0,0.0,0.0,0.0,0.0,0.0,0.0,0.0,0.0,0.0,0.0,0.0,0.0,0.0,0.0,0.0,0.0,0.0,0.0,0.0,0.0,0.0,0.0,0.0,0.0,0.0,0.0,0.0,0.0,0.0,0.0,0.0,0.0,0.0,0.0,0.0,0.0,0.0,0.0,0.0,0.0,0.0,0.0,0.0,0.0,0.0,0.0,10.2047,12.2066,13.6124,14.3667,15.0607,15.238,14.852,14.147,12.8155,0.0,0.0,0.0,0.0,0.0,0.0,0.0,0.0,0.0,0.0,0.0,0.0,0.0,0.0,0.0,0.0,0.0,0.0,0.0,0.0,0.0,0.0,0.0,0.0,0.0,0.0,0.0,0.0,0.0,0.0,0.0,0.0,0.0,0.0,0.0,0.0,0.0,0.0,0.0,0.0,9.1706,9.6523,10.4394,0.0,0.0,0.0,0.0,0.0,0.0,8.5292,8.1604,0.0,0.0,0.0,0.0,0.0,0.0,0.0,0.0,0.0,0.0,0.0,0.0,0.0,0.0,0.0,0.0,0.0,0.0,0.0,0.0,0.0,0.0,0.0,0.0,0.0,0.0,0.0,0.0,0.0,0.0,0.0,0.0,0.0,0.0,0.0,0.0,0.0,0.0,0.0,0.0,0.0,0.0,0.0,0.0,0.0,0.0,0.0,0.0,0.0,0.0,0.0,0.0,0.0,0.0,0.0,10.3904,11.9825,13.2644,14.2155,14.909,15.1123,14.7832,14.0374,12.6716,10.6954,0.0,0.0,0.0,0.0,0.0,0.0,0.0,0.0,0.0,0.0,0.0,0.0,0.0,0.0,0.0,0.0,0.0,0.0,0.0,0.0,0.0,0.0,0.0,0.0,0.0,0.0,0.0,0.0,0.0,0.0,0.0,0.0,0.0,0.0,0.0,0.0,0.0,0.0,0.0,8.7359,9.2685,0.0,0.0,0.0,0.0,0.0,0.0,0.0,0.0,7.9538,0.0,0.0,0.0,0.0,0.0,0.0,0.0,0.0,0.0,0.0,0.0,0.0,0.0,0.0,0.0,0.0,0.0,0.0,0.0,0.0,0.0,0.0,0.0,0.0,0.0,0.0,0.0,0.0,0.0,0.0,0.0,0.0,0.0,0.0,0.0,0.0,0.0,0.0,0.0,0.0,0.0,0.0,0.0,0.0,0.0,0.0,0.0,0.0,0.0,0.0,0.0,0.0,0.0,0.0,0.0,0.0,11.6287,13.164,13.8584,14.739,14.9826,14.5236,13.8348,12.4743,10.3972,0.0,0.0,0.0,0.0,0.0,0.0,0.0,0.0,0.0,0.0,0.0,0.0,0.0,0.0,0.0,0.0,0.0,0.0,0.0,0.0,0.0,0.0,0.0,0.0,0.0,0.0,0.0,0.0,0.0,0.0,0.0,0.0,0.0,0.0,0.0,0.0,0.0,0.0,6.0924,7.3692,0.0,0.0,0.0,0.0,0.0,0.0,0.0,0.0,7.9127,0.0,0.0,0.0,0.0,0.0,0.0,0.0,0.0,0.0,0.0,0.0,0.0,0.0,0.0,0.0,0.0,0.0,0.0,0.0,0.0,0.0,0.0,0.0,0.0,0.0,0.0,0.0,0.0,0.0,0.0,0.0,0.0,0.0,0.0,0.0,0.0,0.0,0.0,0.0,0.0,0.0,0.0,0.0,0.0,0.0,0.0,0.0,0.0,0.0,0.0,0.0,0.0,0.0,0.0,0.0,0.0,0.0,0.0,12.7035,13.7124,14.334,14.587,14.4204,13.0885,11.5726,0.0,0.0,0.0,0.0,0.0,0.0,0.0,0.0,0.0,0.0,0.0,0.0,0.0,0.0,0.0,0.0,0.0,0.0,0.0,0.0,0.0,0.0,0.0,0.0,0.0,0.0,0.0,0.0,0.0,0.0,0.0,0.0,0.0,0.0,0.0,0.0,0.0,0.0,0.0,0.0,0.0,0.0,0.0,0.0,0.0,0.0,0.0,0.0,0.0,0.0,0.0,0.0,0.0,0.0,0.0,0.0,0.0,0.0,0.0,0.0,0.0,0.0,0.0,0.0,0.0,0.0,0.0,0.0,0.0,0.0,0.0,0.0,0.0,0.0,0.0,0.0,0.0,0.0,0.0,0.0,0.0,0.0,0.0,0.0,0.0,0.0,0.0,0.0,0.0,0.0,0.0,0.0,0.0,0.0,0.0,0.0,0.0,0.0,0.0,0.0,0.0,0.0,0.0,0.0,0.0,0.0,0.0,0.0,12.0769,13.334,13.8046,14.0809,14.1559,12.2662,10.6357,0.0,0.0,0.0,0.0,0.0,0.0,0.0,0.0,0.0,0.0,0.0,0.0,0.0,0.0,0.0,0.0,0.0,0.0,0.0,0.0,0.0,0.0,0.0,0.0,0.0,0.0,0.0,0.0,0.0,0.0,0.0,0.0,0.0,0.0,0.0,0.0,0.0,0.0,0.0,0.0,0.0,0.0,0.0,0.0,0.0,0.0,0.0,0.0,7.1216,0.0,0.0,0.0,0.0,0.0,0.0,0.0,0.0,0.0,0.0,0.0,0.0,0.0,0.0,0.0,0.0,0.0,0.0,0.0,0.0,0.0,0.0,0.0,0.0,0.0,0.0,0.0,0.0,0.0,0.0,0.0,0.0,0.0,0.0,0.0,0.0,0.0,0.0,0.0,0.0,0.0,0.0,0.0,0.0,0.0,0.0,0.0,0.0,0.0,0.0,0.0,0.0,0.0,0.0,0.0,0.0,0.0,0.0,0.0,11.3027,12.2822,13.1542,13.4874,13.1878,11.64,10.0573,0.0,0.0,0.0,0.0,0.0,0.0,0.0,0.0,0.0,0.0,0.0,0.0,0.0,0.0,0.0,0.0,0.0,0.0,0.0,0.0,0.0,0.0,0.0,0.0,0.0,0.0,0.0,0.0,0.0,0.0,0.0,0.0,0.0,0.0,0.0,0.0,0.0,0.0,0.0,0.0,0.0,0.0,0.0,0.0,0.0,0.0,0.0,0.0,0.0,0.0,0.0,0.0,0.0,0.0,0.0,0.0,0.0,0.0,0.0,0.0,0.0,0.0,0.0,0.0,0.0,0.0,0.0,0.0,0.0,0.0,0.0,0.0,0.0,0.0,0.0,0.0,0.0,0.0,0.0,0.0,0.0,0.0,0.0,0.0,0.0,0.0,0.0,0.0,0.0,0.0,0.0,0.0,0.0,0.0,0.0,0.0,0.0,0.0,0.0,0.0,0.0,0.0,0.0,0.0,0.0,0.0,0.0,0.0,10.4081,11.6978,12.2942,12.4404,12.1227,10.4941,9.2203,0.0,0.0,0.0,0.0,0.0,0.0,0.0,0.0,0.0,0.0,0.0,0.0,0.0,0.0,0.0,0.0,0.0,0.0,0.0,0.0,0.0,0.0,0.0,0.0,0.0,0.0,0.0,0.0,0.0,0.0,0.0,0.0,0.0,0.0,0.0,0.0,0.0,0.0,0.0,0.0,0.0,0.0,0.0,0.0,0.0,0.0,0.0,0.0,0.0,0.0,0.0,0.0,0.0,0.0,0.0,0.0,0.0,0.0,0.0,0.0,0.0,0.0,0.0,0.0,0.0,0.0,0.0,0.0,0.0,0.0,0.0,0.0,0.0,0.0,0.0,0.0,0.0,0.0,0.0,0.0,0.0,0.0,0.0,0.0,0.0,0.0,0.0,0.0,0.0,0.0,0.0,0.0,0.0,0.0,0.0,0.0,0.0,0.0,0.0,0.0,0.0,0.0,0.0,0.0,0.0,0.0,0.0,0.0,0.0,10.883,11.4026,11.4523,11.02,9.5235,8.4583,0.0,0.0,0.0,0.0,0.0,0.0,0.0,0.0,0.0,0.0,0.0,0.0,0.0,0.0,0.0,0.0,0.0,0.0,0.0,0.0,0.0,0.0,0.0,0.0,0.0,0.0,0.0,0.0,0.0,0.0,0.0,0.0,0.0,0.0,0.0,0.0,0.0,0.0,0.0,0.0,0.0,0.0,0.0,0.0,0.0,0.0,0.0,0.0,0.0,0.0,0.0,0.0,0.0,0.0,0.0,0.0,0.0,0.0,0.0,0.0,0.0,0.0,0.0,0.0,0.0,0.0,0.0,0.0,0.0,0.0,0.0,0.0,0.0,0.0,0.0,0.0,0.0,0.0,0.0,0.0,0.0,0.0,0.0,0.0,0.0,0.0,0.0,0.0,0.0,0.0,0.0,0.0,0.0,0.0,0.0,0.0,0.0,0.0,0.0,0.0,0.0,0.0,0.0,0.0,0.0,0.0,0.0,0.0,0.0,9.6223,10.5273,10.6941,10.0884,8.9751,7.8791,0.0,0.0,0.0,0.0,0.0,0.0,0.0,0.0,0.0,0.0,0.0,0.0,0.0,0.0,0.0,0.0,0.0,0.0,0.0,0.0,0.0,0.0,0.0,0.0,0.0,0.0,0.0,0.0,0.0,0.0,0.0,0.0,0.0,0.0,0.0,0.0,0.0,0.0,0.0,0.0,0.0,0.0,0.0,0.0,0.0,0.0,0.0,0.0,0.0,0.0,0.0,0.0,0.0,0.0,0.0,0.0,0.0,0.0,0.0,0.0,0.0,0.0,0.0,0.0,0.0,0.0,0.0,0.0,0.0,0.0,0.0,0.0,0.0,0.0,0.0,0.0,0.0,0.0,0.0,0.0,0.0,0.0,0.0,0.0,0.0,0.0,0.0,0.0,0.0,0.0,0.0,0.0,0.0,0.0,0.0,0.0,0.0,0.0,0.0,0.0,0.0,0.0,0.0,0.0,0.0,0.0,0.0,0.0,0.0,7.6669,8.9141,9.6339,9.6989,8.333,7.5879,7.5365,0.0,0.0,0.0,0.0,0.0,0.0,0.0,0.0,0.0,0.0,0.0,0.0,0.0,0.0,0.0,0.0,0.0,0.0,0.0,0.0,0.0,0.0,0.0,0.0,0.0,0.0,0.0,0.0,0.0,0.0,0.0,0.0,0.0,0.0,0.0,0.0,0.0,0.0,0.0,0.0,0.0,0.0,0.0,0.0,0.0,0.0,0.0,0.0,0.0,0.0,0.0,0.0,0.0,0.0,0.0,0.0,0.0,0.0,0.0,0.0,0.0,0.0,0.0,0.0,0.0,0.0,0.0,0.0,0.0,0.0,0.0,0.0,0.0,0.0,0.0,0.0,0.0,0.0,0.0,0.0,0.0,0.0,0.0,0.0,0.0,0.0,0.0,0.0,0.0,0.0,0.0,0.0,0.0,0.0,0.0,0.0,0.0,0.0,0.0,0.0,0.0,0.0,0.0,0.0,0.0,0.0,0.0,0.0,6.9933,8.3193,9.0982,9.177,7.8817,7.2014,0.0,0.0,0.0,0.0,0.0,0.0,0.0,0.0,0.0,0.0,0.0,0.0,0.0,0.0,0.0,0.0,0.0,0.0,0.0,0.0,0.0,0.0,0.0,0.0,0.0,0.0,0.0,0.0,0.0,0.0,0.0,0.0,0.0,0.0,0.0,0.0,0.0,0.0,0.0,0.0,0.0,0.0,0.0,0.0,0.0,0.0,0.0,0.0,0.0,0.0,0.0,0.0,0.0,0.0,0.0,0.0,0.0,0.0,0.0,0.0,0.0,0.0,0.0,0.0,0.0,0.0,0.0,0.0,0.0,0.0,0.0,0.0,0.0,0.0,0.0,0.0,0.0,0.0,0.0,0.0,0.0,0.0,0.0,0.0,0.0,0.0,0.0,0.0,0.0,0.0,0.0,0.0,0.0,0.0,0.0,0.0,0.0,0.0,0.0,0.0,0.0,0.0,0.0,0.0,0.0,0.0,0.0,0.0,6.0491,7.9688,8.9446,9.1272,8.5855,7.6662,6.6709,0.0,0.0,0.0,0.0,0.0,0.0,0.0,0.0,0.0,0.0,0.0,0.0,0.0,0.0,0.0,0.0,0.0,0.0,0.0,0.0,0.0,0.0,0.0,0.0,0.0,0.0,0.0,0.0,0.0,0.0,0.0,0.0,0.0,0.0,0.0,0.0,0.0,0.0,0.0,0.0,0.0,0.0,0.0,0.0,0.0,0.0,0.0,0.0,0.0,0.0,0.0,0.0,0.0,0.0,0.0,0.0,0.0,0.0,0.0,0.0,0.0,0.0,0.0,0.0,0.0,0.0,0.0,0.0,0.0,0.0,0.0,0.0,0.0,0.0,0.0,0.0,0.0,0.0,0.0,0.0,0.0,0.0,0.0,0.0,0.0,0.0,0.0,0.0,0.0,0.0,0.0,0.0,0.0,0.0,0.0,0.0,0.0,0.0,0.0,0.0,0.0,0.0,0.0,0.0,0.0,0.0,0.0,0.0,0.0,5.8793,0.0,7.8778,0.0,7.3871,6.8899,0.0,0.0,0.0,0.0,0.0,0.0,0.0,0.0,0.0,0.0,0.0,0.0,0.0,0.0,0.0,0.0,0.0,0.0,0.0,0.0,0.0,0.0,0.0,0.0,0.0,0.0,0.0,0.0,0.0,0.0,0.0,0.0,0.0,0.0,0.0,0.0,0.0,0.0,0.0,0.0,0.0,0.0,0.0,0.0,0.0,0.0,0.0,0.0,0.0,0.0,0.0,0.0,0.0,0.0,0.0,0.0,0.0,0.0,0.0,0.0,0.0,0.0,0.0,0.0,0.0,0.0,0.0,0.0,0.0,0.0,0.0,0.0,0.0,0.0,0.0,0.0,0.0,0.0,0.0,0.0,0.0,0.0,0.0,0.0,0.0,0.0,0.0,0.0,0.0,0.0,0.0,0.0,0.0,0.0,0.0,0.0,0.0,0.0,0.0,0.0,0.0,0.0,0.0,0.0,0.0,0.0,0.0,0.0,0.0,5.7255,6.3386,6.9964,7.6554,7.0403,6.7005,0.0,0.0,0.0,0.0,0.0,0.0,0.0,0.0,0.0,0.0,0.0,0.0,0.0,0.0,0.0,0.0,0.0,0.0,0.0,0.0,0.0,0.0,0.0,0.0,0.0,0.0,0.0,0.0,0.0,0.0,0.0,0.0,0.0,0.0,0.0,0.0,0.0,0.0,0.0,0.0,0.0,0.0,0.0,0.0,0.0,0.0,0.0,0.0,0.0,0.0,0.0,0.0,0.0,0.0,0.0,0.0,0.0,0.0,0.0,0.0,0.0,0.0,0.0,0.0,0.0,0.0,0.0,0.0,0.0,0.0,0.0,0.0,0.0,0.0,0.0,0.0,0.0,0.0,0.0,0.0,0.0,0.0,0.0,0.0,0.0,0.0,0.0,0.0,0.0,0.0,0.0,0.0,0.0,0.0,0.0,0.0,0.0,0.0,0.0,0.0,0.0,0.0,0.0,0.0,0.0,0.0,0.0,0.0,0.0,0.0,6.5497,6.5559,7.2848,6.6231,6.1531,0.0,0.0,0.0,0.0,0.0,0.0,0.0,0.0,0.0,0.0,0.0,0.0,0.0,0.0,0.0,0.0,0.0,0.0,0.0,0.0,0.0,0.0,0.0,0.0,0.0,0.0,0.0,0.0,0.0,0.0,0.0,0.0,0.0,0.0,0.0,0.0,0.0,0.0,0.0,0.0,0.0,0.0,0.0,0.0,0.0,0.0,0.0,0.0,0.0,0.0,0.0,0.0,0.0,0.0,0.0,0.0,0.0,0.0,0.0,0.0,0.0,0.0,0.0,0.0,0.0,0.0,0.0,0.0,0.0,0.0,0.0,0.0,0.0,0.0,0.0,0.0,0.0,0.0,0.0,0.0,0.0,0.0,0.0,0.0,0.0,0.0,0.0,0.0,0.0,0.0,0.0,0.0,0.0,0.0,0.0,0.0,0.0,0.0,0.0,0.0,0.0,0.0,0.0,0.0,0.0,0.0,0.0,0.0,0.0,0.0,5.6455,0.0,6.4916,6.3325,6.0529,5.6898,0.0,0.0,0.0,0.0,0.0,0.0,0.0,0.0,0.0,0.0,0.0,0.0,0.0,0.0,0.0,0.0,0.0,0.0,0.0,0.0,0.0,0.0,0.0,0.0,0.0,0.0,0.0,0.0,0.0,0.0,0.0,0.0,0.0,0.0,0.0,0.0,0.0,0.0,0.0,0.0,0.0,0.0,0.0,0.0,0.0,0.0,0.0,0.0,0.0,0.0,0.0,0.0,0.0,0.0,0.0,0.0,0.0,0.0,0.0,0.0,0.0,0.0,0.0,0.0,0.0,0.0,0.0,0.0,0.0,0.0,0.0,0.0,0.0,0.0,0.0,0.0,0.0,0.0,0.0,0.0,0.0,0.0,0.0,0.0,0.0,0.0,0.0,0.0,0.0,0.0,0.0,0.0,0.0,0.0,0.0,0.0,0.0,0.0,0.0,0.0,0.0,0.0,0.0,0.0,0.0,0.0,0.0,0.0,0.0,0.0,0.0,6.138,6.1449,6.0262,0.0,0.0,0.0,0.0,0.0,0.0,0.0,0.0,0.0,0.0,0.0,0.0,0.0,0.0,0.0,0.0,0.0,0.0,0.0,0.0,0.0,0.0,0.0,0.0,0.0,0.0,0.0,0.0,0.0,0.0,0.0,0.0,0.0,0.0,0.0,0.0,0.0,0.0,0.0,0.0,0.0,0.0,0.0,0.0,0.0,0.0,0.0,0.0,0.0,0.0,0.0,0.0,0.0,0.0,0.0,0.0,0.0,0.0,0.0,0.0,0.0,0.0,0.0,0.0,0.0,0.0,0.0,0.0,0.0,0.0,0.0,0.0,0.0,0.0,0.0,0.0,0.0,0.0,0.0,0.0,0.0,0.0,0.0,0.0,0.0,0.0,0.0,0.0,0.0,0.0,0.0,0.0,0.0,0.0,0.0,0.0,0.0,0.0,0.0,0.0,0.0,0.0,0.0,0.0,0.0,0.0,0.0,0.0,0.0,0.0,0.0,5.2862,5.9237,6.0858,0.0,5.9082,0.0,0.0,0.0,0.0,0.0,0.0,0.0,0.0,0.0,0.0,0.0,0.0,0.0,0.0,0.0,0.0,0.0,0.0,0.0,0.0,0.0,0.0,0.0,0.0,0.0,0.0,0.0,0.0,0.0,0.0,0.0,0.0,0.0,0.0,0.0,0.0,0.0,0.0,0.0,0.0,0.0,0.0,0.0,0.0,0.0,0.0,0.0,0.0,0.0,0.0,0.0,0.0,0.0,0.0,0.0,0.0,0.0,0.0,0.0,0.0,0.0,0.0,0.0,0.0,0.0,0.0,0.0,0.0,0.0,0.0,0.0,0.0,0.0,0.0,0.0,0.0,0.0,0.0,0.0,0.0,0.0,0.0,0.0,0.0,0.0,0.0,0.0,0.0,0.0,0.0,0.0,0.0,0.0,0.0,0.0,0.0,0.0,0.0,0.0,0.0,0.0,0.0,0.0,0.0,0.0,0.0,0.0,0.0,0.0,0.0,0.0,0.0,6.3725,6.3854,5.0305,0.0,0.0,0.0,0.0,0.0,0.0,0.0,0.0,0.0,0.0,0.0,0.0,0.0,0.0,0.0,0.0,0.0,0.0,0.0,0.0,0.0,0.0,0.0,0.0,0.0,0.0,0.0,0.0,0.0,0.0,0.0,0.0,0.0,0.0,0.0,0.0,0.0,0.0,0.0,0.0,0.0,0.0,0.0,0.0,0.0,0.0,0.0,0.0,0.0,0.0,0.0,0.0,0.0,0.0,0.0,0.0,0.0,0.0,0.0,0.0,0.0,0.0,0.0,0.0,0.0,0.0,0.0,0.0,0.0,0.0,0.0,0.0,0.0,0.0,0.0,0.0,0.0,0.0,0.0,0.0,0.0,0.0,0.0,0.0,0.0,0.0,0.0,0.0,0.0,0.0,0.0,0.0,0.0,0.0,0.0,0.0,0.0,0.0,0.0,0.0,0.0,0.0,0.0,0.0,0.0,0.0,0.0,0.0,0.0,0.0,5.6567,4.9621,6.2838,6.2822,4.7505,0.0,0.0,0.0,0.0,0.0,0.0,0.0,0.0,0.0,0.0,0.0,0.0,0.0,0.0,0.0,0.0,0.0,0.0,0.0,0.0,0.0,0.0,0.0,0.0,0.0,0.0,0.0,0.0,0.0,0.0,0.0,0.0,0.0,0.0,0.0,0.0,0.0,0.0,0.0,0.0,0.0,0.0,0.0,0.0,0.0,0.0,0.0,0.0,0.0,0.0,0.0,0.0,0.0,0.0,0.0,0.0,0.0,0.0,0.0,0.0,0.0,0.0,0.0,0.0,0.0,0.0,0.0,0.0,0.0,0.0,0.0,0.0,0.0,0.0,0.0,0.0,0.0,0.0,0.0,0.0,0.0,0.0,0.0,0.0,0.0,0.0,0.0,0.0,0.0,0.0,0.0,0.0,0.0,0.0,0.0,0.0,0.0,0.0,0.0,0.0,0.0,0.0,0.0,0.0,0.0,0.0,0.0,0.0,0.0,0.0,0.0,0.0,0.0,0.0,4.9151,0.0,0.0,0.0,0.0,0.0,0.0,0.0,0.0,0.0,0.0,0.0,0.0,0.0,0.0,0.0,0.0,0.0,0.0,0.0,0.0,0.0,0.0,0.0,0.0,0.0,0.0,0.0,0.0,0.0,0.0,0.0,0.0,0.0,0.0,0.0,0.0,0.0,0.0,0.0,0.0,0.0,0.0,0.0,0.0,0.0,0.0,0.0,0.0,0.0,0.0,0.0,0.0,0.0,0.0,0.0,0.0,0.0,0.0,0.0,0.0,0.0,0.0,0.0,0.0,0.0,0.0,0.0,0.0,0.0,0.0,0.0,0.0,0.0,0.0,0.0,0.0,0.0,0.0,0.0,0.0,0.0,0.0,0.0,0.0,0.0,0.0,0.0,0.0,0.0,0.0,0.0,0.0,0.0,0.0,0.0,0.0,0.0,0.0,0.0,0.0,0.0,0.0,0.0,0.0,0.0,0.0,0.0,0.0,0.0,0.0,0.0,0.0,0.0,0.0,0.0,0.0,0.0,0.0,0.0,0.0,0.0,0.0,0.0,0.0,0.0,0.0,0.0,0.0,0.0,0.0,0.0,0.0,0.0,0.0,0.0,0.0,0.0,0.0,0.0,0.0,0.0,0.0,0.0,0.0,0.0,0.0,0.0,0.0,0.0,0.0,0.0,0.0,0.0,0.0,0.0,0.0,0.0,0.0,0.0,0.0,0.0,0.0,0.0,0.0,0.0,0.0,0.0,0.0,0.0,0.0,0.0,0.0,0.0,0.0,0.0,0.0,0.0,0.0,0.0,0.0,0.0,0.0,0.0,0.0,0.0,0.0,0.0,0.0,0.0,0.0,0.0,0.0,0.0,0.0,0.0,0.0,0.0,0.0,0.0,0.0,0.0,0.0,0.0,0.0,0.0,0.0,0.0,0.0,0.0,0.0,0.0,0.0,0.0,0.0,0.0,0.0,0.0,0.0,0.0,0.0,0.0,0.0,0.0,0.0,0.0,0.0,0.0,0.0,0.0,0.0,0.0,0.0,0.0,0.0,0.0,0.0,0.0,0.0,0.0,0.0,0.0,0.0,0.0,0.0,0.0,0.0,0.0,0.0,0.0,0.0,0.0,0.0,0.0,0.0,0.0,0.0,0.0,0.0,0.0,0.0,0.0,0.0,0.0,0.0,0.0,0.0,0.0,0.0,0.0,0.0,0.0,0.0,0.0,0.0,0.0,0.0,0.0,0.0,0.0,0.0,0.0,0.0,0.0,0.0,0.0,0.0,0.0,0.0,0.0,0.0,0.0,0.0,0.0,0.0,0.0,0.0,0.0,0.0,0.0,0.0,0.0,0.0,0.0,0.0,0.0,0.0,0.0,0.0,0.0,0.0,0.0,0.0,0.0,0.0,0.0,0.0,0.0,0.0,0.0,0.0,0.0,0.0,0.0,0.0,0.0,0.0,0.0,0.0,0.0,0.0,0.0,0.0,0.0,0.0,0.0,0.0,0.0,0.0,0.0,0.0,0.0,0.0,0.0,0.0,0.0,0.0,0.0,0.0,0.0,0.0,0.0,0.0,0.0,0.0,0.0,0.0,0.0,0.0,0.0,0.0,0.0,0.0,0.0,0.0,0.0,0.0,0.0,0.0,0.0,0.0,0.0,0.0,0.0,0.0,0.0,0.0,0.0,0.0,0.0,0.0,0.0,0.0,0.0,0.0,0.0,0.0,0.0,0.0,0.0,0.0,0.0,0.0,0.0,0.0,0.0,0.0,0.0,0.0,0.0,0.0,0.0,0.0,0.0,0.0,0.0,0.0,0.0,0.0,0.0,0.0,0.0,0.0,0.0,0.0,0.0,0.0,0.0,0.0,0.0,0.0,0.0,0.0,0.0,0.0,0.0,0.0,0.0,0.0,0.0,0.0,0.0,0.0,0.0,0.0,0.0,0.0,0.0,0.0,0.0,0.0,0.0,0.0,0.0,0.0,0.0,0.0,0.0,0.0,0.0,0.0,0.0,0.0,0.0,0.0,0.0,0.0,0.0,0.0,0.0,0.0,0.0,0.0,0.0,0.0,0.0,0.0,0.0,0.0,0.0,0.0,0.0,0.0,0.0,0.0,0.0,0.0,0.0,0.0,0.0,0.0,0.0,0.0,0.0,0.0,0.0,0.0,0.0,0.0,0.0,0.0,0.0,0.0,0.0,0.0,0.0,0.0,0.0,0.0,0.0,0.0,0.0,0.0,0.0,0.0,0.0,0.0,0.0,0.0,0.0,0.0,0.0,0.0,0.0,0.0,0.0,0.0,0.0,0.0,0.0,0.0,0.0,0.0,0.0,0.0,0.0,0.0,0.0,0.0,0.0,0.0,0.0,0.0,0.0,0.0,0.0,0.0,0.0,0.0,0.0,0.0,0.0,0.0,0.0,0.0,0.0,0.0,0.0,0.0,0.0,0.0,0.0,0.0,0.0,0.0,0.0,0.0,0.0,0.0,0.0,0.0,0.0,0.0,0.0,0.0,0.0,0.0,0.0,0.0,0.0,0.0,0.0,0.0,0.0,0.0,0.0,0.0,0.0,0.0,0.0,0.0,0.0,0.0,0.0,0.0,0.0,0.0,0.0,0.0,0.0,0.0,0.0,0.0,0.0,0.0,0.0,0.0,0.0,0.0,0.0,0.0,0.0,0.0,0.0,0.0,0.0,0.0,0.0,0.0,0.0,0.0,0.0,0.0,0.0,0.0,0.0,0.0,0.0,0.0,0.0,0.0,0.0,0.0,0.0,0.0,0.0,0.0,0.0,0.0,0.0,0.0,0.0,0.0,0.0,0.0,0.0,0.0,0.0,0.0,0.0,0.0,0.0,0.0,0.0,0.0,0.0,0.0,0.0,0.0,0.0,0.0,0.0,0.0,0.0,0.0,0.0,0.0,0.0,0.0,0.0,0.0,0.0,0.0,0.0,0.0,0.0,0.0,0.0,0.0,0.0,0.0,0.0,0.0,0.0,0.0,0.0,0.0,0.0,0.0,0.0,0.0,0.0,0.0,0.0,0.0,0.0,0.0,0.0,0.0,0.0,0.0,0.0,0.0,0.0,0.0,0.0,0.0,0.0,0.0,0.0,0.0,0.0,0.0,0.0,0.0,0.0,0.0,0.0,0.0,0.0,0.0,0.0,0.0,0.0,0.0,0.0,0.0,0.0,0.0,0.0,0.0,0.0,0.0,0.0,0.0,0.0,0.0,0.0,0.0,0.0,0.0,0.0,0.0,0.0,0.0,0.0,0.0,0.0,0.0,0.0,0.0,0.0,0.0,0.0,0.0,0.0,0.0,0.0,0.0,0.0,0.0,0.0,0.0,0.0,0.0,0.0,0.0,0.0,0.0,0.0,0.0,0.0,0.0,0.0,0.0,0.0,0.0,0.0,0.0,0.0,0.0,0.0,0.0,0.0,0.0,0.0,0.0,0.0,0.0,0.0,0.0,0.0,0.0,0.0,0.0,0.0,0.0,0.0,0.0,0.0,0.0,0.0,0.0,0.0,0.0,0.0,0.0,0.0,0.0,0.0,0.0,0.0,0.0,0.0,0.0,0.0,0.0,0.0,0.0,0.0,0.0,0.0,0.0,0.0,0.0,0.0,0.0,0.0,0.0,0.0,0.0,0.0,0.0,0.0,0.0,0.0,0.0,0.0,0.0,0.0,0.0,0.0,0.0,0.0,0.0,0.0,0.0,0.0,0.0,0.0,0.0,0.0,0.0,0.0,0.0,0.0,0.0,0.0,0.0,0.0,0.0,0.0,0.0,0.0,0.0,0.0,0.0,0.0,0.0,0.0,0.0,0.0,0.0,0.0,0.0,0.0,0.0,0.0,0.0,0.0,0.0,0.0,0.0,0.0,0.0,0.0,0.0,0.0,0.0,0.0,0.0,0.0,0.0,0.0,0.0,0.0,0.0,0.0,0.0,0.0,0.0,0.0,0.0,0.0,0.0,0.0,0.0,0.0,0.0,0.0,0.0,0.0,0.0,0.0,0.0,0.0,0.0,0.0,0.0,0.0,0.0,0.0,0.0,0.0,0.0,0.0,0.0,0.0,0.0,0.0,0.0,0.0,0.0,0.0,0.0,0.0,0.0,0.0,0.0,0.0,0.0,0.0,0.0,0.0,0.0,0.0,0.0,0.0,0.0,0.0,0.0,0.0,0.0,0.0,0.0,0.0,0.0,0.0,0.0,0.0,0.0,0.0,0.0,0.0,0.0,0.0,0.0,0.0,0.0,0.0,0.0,0.0,0.0,0.0,0.0,0.0,0.0,0.0,0.0,0.0,0.0,0.0,0.0,0.0,0.0,0.0,0.0,0.0,0.0,0.0,0.0,0.0,0.0,0.0,0.0,0.0,0.0,0.0,0.0]}],[{"header":{"parameterUnit":"kt","parameterCategory":2,"dx":1,"dy":1,"la1":29.587661999999998,"la2":31.0,"lo1":-88.76705300000003,"lo2":-86.6583820000003,"nx":115,"ny":88,"refTime":"2022-10-06T12:00:00:Z","depth":0,"parameterNumber":2,"parameterNumberName":"V-component_of_WINDS"},"data":[9.9907,9.9907,9.9907,9.9907,9.9907,9.9907,9.9907,9.9907,9.9907,9.9907,9.9907,9.9907,9.9907,9.9907,9.9907,9.9907,10.003,10.0457,10.0922,10.1036,10.0685,10.0837,10.0799,10.0372,10.0448,10.0989,10.171,10.2735,10.3695,10.4379,10.4785,10.4963,10.4914,10.4914,10.4914,10.4914,10.4887,10.447,10.3597,10.2583,10.2014,10.1093,10.0135,9.9907,9.9907,9.9907,9.9907,9.9907,9.9907,9.9907,9.9907,9.9907,9.9907,9.9907,9.9907,9.9907,9.9907,9.9907,9.9907,9.9907,9.9907,9.9907,9.9907,9.9869,9.9869,9.9869,9.9633,9.9633,9.986,9.986,9.986,9.986,9.986,9.986,9.986,9.986,9.9822,9.9822,9.9633,9.9481,9.9434,9.9254,9.9207,9.8723,9.8211,9.8059,9.763,9.7535,9.7488,9.7217,9.6861,9.643,9.6035,9.4965,9.4315,9.4229,9.3908,9.3908,9.3908,9.3908,9.3908,9.3908,9.3908,9.3908,9.3908,9.3908,9.3908,9.3908,9.3908,9.3908,9.3908,9.4101,9.4629,9.5061,9.5061,9.9907,9.9907,9.9907,9.9907,9.9907,9.9907,9.9907,9.9907,9.9907,9.9907,9.9907,9.9907,9.9907,9.9907,9.9907,9.9907,10.003,10.0258,10.0182,10.0182,10.0182,10.0296,10.022,9.9983,10.0068,10.0448,10.1178,10.2404,10.382,10.4151,10.4557,10.4887,10.4914,10.4914,10.4914,10.4914,10.4914,10.4546,10.3521,10.2621,10.1738,10.0865,10.0135,9.9907,9.9907,9.9907,9.9907,9.9907,9.9907,9.9907,9.9907,9.9907,9.9907,9.9907,9.9907,9.9907,9.9907,9.9907,9.9907,9.9907,9.9907,9.9907,9.9907,9.9869,9.9869,9.9633,9.9254,9.9302,9.9623,9.9765,9.9765,9.9765,9.9765,9.9765,9.9765,9.9765,9.9727,9.9727,9.9254,9.8723,9.8486,9.8201,9.7868,9.7392,9.7202,9.7154,9.7059,9.7011,9.6761,9.6129,9.5782,9.5398,9.5362,9.53,9.4861,9.443,9.3908,9.3908,9.3908,9.3908,9.3908,9.3908,9.3908,9.3908,9.3908,9.3908,9.3908,9.3908,9.3908,9.3908,9.3908,9.4004,9.4437,9.4533,9.4485,9.9907,9.9907,9.9907,9.9907,9.9907,9.9907,9.9907,9.9907,9.9907,9.9907,9.9907,9.9907,9.9907,9.9907,9.9907,9.9907,9.9907,9.9907,9.9907,9.9907,9.9992,9.9907,9.9907,9.9907,9.9907,10.0144,10.0951,10.21,10.3619,10.4151,10.4481,10.4887,10.4914,10.4914,10.4914,10.4914,10.4914,10.4849,10.3256,10.2317,10.1596,10.0713,9.9945,9.9907,9.9907,9.9907,9.9907,9.9907,9.9907,9.9907,9.9907,9.9907,9.9907,9.9822,9.9822,9.9822,9.9775,9.9907,9.9907,9.9907,9.9907,9.9907,9.9907,9.9254,9.9302,9.8629,9.8249,9.8106,9.8439,9.8629,9.8676,9.8676,9.8676,9.8676,9.8676,9.8676,9.8676,9.8591,9.8259,9.7773,9.7583,9.7249,9.6879,9.6438,9.6151,9.6104,9.5349,9.5157,9.5061,9.4713,9.4665,9.4545,9.4938,9.5004,9.4787,9.4359,9.3944,9.3908,9.3908,9.3908,9.3908,9.3908,9.3908,9.3908,9.3908,9.3908,9.3908,9.3908,9.3908,9.3908,9.3908,9.3908,9.3956,9.4053,9.4101,9.9907,9.9907,9.9907,9.9907,9.9907,9.9907,9.9907,9.9907,9.9907,9.9907,9.9907,9.9907,9.9907,9.9907,9.9907,9.9907,9.9907,9.9907,9.9907,9.9907,9.9907,9.9907,9.9907,9.9907,9.9907,10.0258,10.1017,10.2241,10.3342,10.433,10.4963,10.4914,10.4914,10.4914,10.4914,10.4914,10.4736,10.4443,10.3153,10.2165,10.1406,10.0523,9.9907,9.9907,9.9907,9.9907,9.9907,9.9907,9.9907,9.9907,9.9907,9.9869,9.986,9.9633,9.9586,9.9491,9.916,9.916,9.916,9.9103,9.8913,9.9008,9.896,9.8639,9.8211,9.744,9.7048,9.6905,9.6868,9.7059,9.7154,9.7154,9.7154,9.7154,9.7154,9.7154,9.7154,9.7059,9.7011,9.6772,9.6629,9.6343,9.5971,9.5589,9.5205,9.4725,9.4149,9.3956,9.4101,9.4435,9.4506,9.4708,9.4978,9.4858,9.4466,9.4145,9.398,9.3908,9.3908,9.3908,9.3908,9.3908,9.3908,9.3908,9.3908,9.3908,9.3908,9.3908,9.3908,9.3908,9.3908,9.3908,9.3908,9.3908,9.3908,9.9907,9.9907,9.9907,9.9907,9.9907,9.9907,9.9907,9.9907,9.9907,9.9907,9.9907,9.9907,9.9907,9.9907,9.9907,9.9907,9.9907,9.9907,9.9907,9.9907,9.9907,9.9907,9.9907,9.9907,9.9907,10.0485,10.1282,10.2279,10.2952,10.3901,10.4774,10.4914,10.4914,10.4914,10.4914,10.4914,10.4508,10.3912,10.2811,10.1862,10.1102,10.0448,9.9907,9.9907,9.9907,9.9907,9.9907,9.9869,9.9907,9.9907,9.9822,9.968,9.9396,9.9065,9.8733,9.8496,9.8011,9.8106,9.8296,9.8059,9.7678,9.7488,9.7249,9.7249,9.7059,9.6438,9.596,9.5768,9.596,9.6104,9.6104,9.6104,9.6151,9.6151,9.6151,9.6151,9.6151,9.6104,9.596,9.5721,9.5529,9.5301,9.5013,9.4917,9.4533,9.4245,9.3908,9.3908,9.417,9.4706,9.492,9.5121,9.525,9.5179,9.4716,9.4252,9.4051,9.3908,9.3908,9.3908,9.3908,9.3908,9.3908,9.3908,9.3908,9.3908,9.3908,9.3908,9.3908,9.3908,9.3908,9.3908,9.3908,9.3908,9.3908,9.9907,9.9907,9.9907,9.9907,9.9907,9.9907,9.9907,9.9907,9.9907,9.9907,9.9907,9.9907,9.9907,9.9907,9.9907,9.9907,9.9907,9.9907,9.9907,9.9907,9.9907,9.9907,9.9907,9.9907,9.9907,10.0523,10.132,10.2279,10.2241,10.3304,10.4595,10.4849,10.4914,10.4914,10.4925,10.4774,10.4216,10.3115,10.2165,10.1292,10.0685,10.0106,9.9907,9.9907,9.9907,9.9907,9.9822,9.9207,9.9112,9.9065,9.8344,9.8201,9.8059,9.7916,9.7593,9.7535,9.7059,9.7202,9.7392,9.7143,9.7011,9.7011,9.7059,9.6343,9.5816,9.5433,9.5061,9.4821,9.5049,9.5241,9.5193,9.5145,9.5193,9.5157,9.5157,9.5157,9.5193,9.5241,9.5001,9.4677,9.4485,9.4293,9.4149,9.4053,9.3908,9.3908,9.3908,9.3908,9.4229,9.4787,9.5179,9.5357,9.5429,9.5429,9.4894,9.4395,9.4122,9.3908,9.3908,9.3908,9.3908,9.3908,9.3908,9.3908,9.3908,9.3908,9.3908,9.3908,9.3908,9.3908,9.3908,9.3908,9.3908,9.3908,9.3908,9.9907,9.9907,9.9907,9.9907,9.9907,9.9907,9.9907,9.9907,9.9907,9.9907,9.9907,9.9907,9.9907,9.9907,9.9907,9.9907,9.9907,9.9907,9.9907,9.9907,9.9907,9.9907,9.9907,9.9907,10.0144,10.0713,10.152,10.2241,10.2052,10.306,10.4227,10.4557,10.4519,10.4774,10.4698,10.447,10.3332,10.2317,10.1672,10.0875,10.022,9.9992,9.9671,9.9444,9.9349,9.9103,9.8866,9.8296,9.8154,9.8059,9.7392,9.7059,9.6916,9.6677,9.6534,9.6534,9.6295,9.6295,9.6438,9.6247,9.596,9.5864,9.5912,9.5013,9.4485,9.4101,9.4149,9.4149,9.4293,9.4437,9.4485,9.4437,9.4437,9.4437,9.4437,9.4437,9.4485,9.4485,9.4437,9.4197,9.4197,9.4053,9.4004,9.3908,9.3908,9.3908,9.3908,9.3908,9.4194,9.4965,9.5393,9.5464,9.5464,9.5273,9.4894,9.4443,9.4122,9.3908,9.3908,9.3908,9.3908,9.3908,9.3908,9.3908,9.3908,9.3908,9.3908,9.3908,9.3908,9.3908,9.3908,9.3908,9.3908,9.3908,9.3908,9.9907,9.9907,9.9907,9.9907,9.9907,9.9907,9.9907,9.9907,9.9907,9.9907,9.9907,9.9907,9.9907,9.9907,9.9907,9.9907,9.9907,9.9907,9.9907,9.9907,9.9907,9.9907,9.9907,9.9907,10.022,10.1102,10.1748,10.2052,10.2393,10.3087,10.3554,10.3695,10.3684,10.4064,10.3939,10.3407,10.2355,10.171,10.114,10.0561,10.0011,9.9775,9.9349,9.897,9.8591,9.8201,9.7726,9.7202,9.7059,9.6963,9.682,9.682,9.6581,9.5971,9.5721,9.5253,9.4581,9.4917,9.5193,9.4725,9.4485,9.4581,9.4389,9.4149,9.3908,9.3908,9.3908,9.3908,9.3908,9.3908,9.3908,9.3908,9.3908,9.3908,9.3908,9.3908,9.3908,9.3908,9.3908,9.3908,9.3908,9.3908,9.3908,9.3908,9.3908,9.3908,9.3908,9.398,9.4395,9.5179,9.5393,9.5464,9.5464,9.5201,9.4823,9.4372,9.4087,9.3908,9.3908,9.3908,9.3908,9.3908,9.3908,9.3908,9.3908,9.3908,9.3908,9.3908,9.3908,9.3908,9.3908,9.3908,9.3908,9.3908,9.3908,9.9907,9.9907,9.9907,9.9907,9.9907,9.9907,9.9907,9.9907,9.9907,9.9907,9.9907,9.9907,9.9907,9.9907,9.9907,9.9907,9.9907,9.9907,9.9907,9.9907,9.9907,9.9907,9.9907,9.9945,10.022,10.0448,10.1102,10.1368,10.1093,10.2279,10.2545,10.248,10.2621,10.3077,10.2887,10.2431,10.153,10.1216,10.0637,10.0258,9.9831,9.9349,9.8876,9.8354,9.7916,9.7345,9.6916,9.6438,9.5924,9.5768,9.5433,9.4953,9.4869,9.4629,9.4485,9.4437,9.4053,9.4149,9.4389,9.4004,9.3956,9.3908,9.3908,9.3908,9.3908,9.3908,9.3908,9.3908,9.3908,9.3908,9.3908,9.3908,9.3908,9.3908,9.3908,9.3908,9.3908,9.3908,9.3908,9.3908,9.3908,9.3908,9.3908,9.3908,9.3908,9.3908,9.3908,9.4288,9.4667,9.5023,9.5237,9.55,9.5571,9.5179,9.4716,9.43,9.4051,9.3908,9.3908,9.3908,9.3908,9.3908,9.3908,9.3908,9.3908,9.3908,9.3908,9.3908,9.3908,9.3908,9.3908,9.3908,9.3908,9.3908,9.3908,9.9907,9.9907,9.9907,9.9907,9.9907,9.9907,9.9907,9.9907,9.9907,9.9907,9.9907,9.9907,9.9907,9.9907,9.9907,9.9907,9.9907,9.9907,9.9907,9.9907,9.9907,9.9907,9.9907,9.9907,10.0144,10.0495,10.0799,10.0951,10.0296,10.1444,10.152,10.1216,10.1596,10.1814,10.152,10.1216,10.0837,10.0723,10.0286,9.968,9.9434,9.8876,9.8211,9.7403,9.682,9.6247,9.5721,9.5205,9.4917,9.4821,9.4533,9.4149,9.4101,9.4101,9.3956,9.3956,9.3908,9.3908,9.3908,9.3908,9.3908,9.3908,9.3908,9.3908,9.3908,9.3908,9.3908,9.3908,9.3908,9.3908,9.3908,9.3908,9.3908,9.3908,9.3908,9.3908,9.3908,9.3908,9.3908,9.3908,9.3908,9.3908,9.3908,9.3908,9.3908,9.3908,9.3908,9.4217,9.4395,9.4716,9.4894,9.5179,9.525,9.4894,9.4609,9.4229,9.3944,9.3908,9.3908,9.3908,9.3908,9.3908,9.3908,9.3908,9.3908,9.3908,9.3908,9.3908,9.3908,9.3908,9.3908,9.3908,9.3908,9.3908,9.3908,9.9907,9.9907,9.9907,9.9907,9.9907,9.9907,9.9907,9.9907,9.9907,9.9907,9.9907,9.9907,9.9907,9.9907,9.9907,9.9907,9.9907,9.9907,9.9907,9.9907,9.9907,9.9907,9.9907,9.9992,10.0229,10.1036,10.1027,10.0951,10.0989,10.1178,10.0799,10.0485,10.0799,10.0865,10.0021,9.9954,9.9907,9.9907,9.985,9.9207,9.8639,9.8211,9.7165,9.6306,9.5625,9.5061,9.4677,9.4293,9.4245,9.4197,9.3956,9.3908,9.3908,9.3908,9.3908,9.3908,9.3908,9.3908,9.3908,9.3908,9.3908,9.3908,9.3908,9.3908,9.3908,9.3908,9.3908,9.3908,9.3908,9.3908,9.3908,9.3908,9.3908,9.3908,9.3908,9.3908,9.3908,9.3908,9.3908,9.3908,9.3908,9.3908,9.3908,9.3908,9.3908,9.3908,9.3908,9.3944,9.4015,9.4158,9.4265,9.4443,9.4443,9.4265,9.4265,9.398,9.3908,9.3908,9.3908,9.3908,9.3908,9.3908,9.3908,9.3908,9.3908,9.3908,9.3908,9.3908,9.3908,9.3908,9.3908,9.3908,9.3908,9.3908,9.3908,9.9907,9.9907,9.9907,9.9907,9.9907,9.9907,9.9907,9.9907,9.9907,9.9907,9.9907,9.9907,9.9907,9.9907,9.9907,9.9907,9.9907,9.9907,9.9907,9.9907,9.9907,9.9907,9.9907,9.9992,10.0068,10.0182,10.0343,10.0334,10.041,10.0334,10.0182,10.0106,10.0144,10.022,9.9907,9.986,9.9576,9.9112,9.8876,9.8449,9.744,9.6831,9.5828,9.5541,9.4725,9.4197,9.4053,9.3908,9.3908,9.3908,9.3908,9.3908,9.3908,9.3908,9.3908,9.3908,9.3908,9.3908,9.3908,9.3908,9.3908,9.3908,9.3908,9.3908,9.3908,9.3908,9.3908,9.3908,9.3908,9.3908,9.3908,9.3908,9.3908,9.3908,9.3908,9.3908,9.3908,9.3908,9.3908,9.3908,9.3908,9.3908,9.3908,9.3908,9.3908,9.3908,9.3908,9.3908,9.3908,9.3908,9.3908,9.3908,9.3908,9.3908,9.3908,9.3908,9.3908,9.3908,9.3908,9.3908,9.3908,9.3908,9.3908,9.3908,9.3908,9.3908,9.3908,9.3908,9.3908,9.3908,9.3908,9.3908,9.3908,9.3908,9.3908,9.9907,9.9907,9.9907,9.9907,9.9907,9.9907,9.9907,9.9907,9.9907,9.9907,9.9907,9.9907,9.9907,9.9907,9.9907,9.9907,9.9907,9.9907,9.9907,9.9907,9.9907,9.9907,9.9907,9.9907,9.9907,9.9954,9.9907,9.9907,9.9907,10.003,9.9907,9.9907,9.9945,9.9907,9.968,9.9491,9.8828,9.8211,9.7868,9.744,9.6486,9.5721,9.5289,9.4917,9.4053,9.3956,9.3908,9.3908,9.3908,9.3908,9.3908,9.3908,9.3908,9.3908,9.3908,9.3908,9.3908,9.3908,9.3908,9.3908,9.3908,9.3908,9.3908,9.3908,9.3908,9.3908,9.3908,9.3908,9.3908,9.3908,9.3908,9.3908,9.3908,9.3908,9.3908,9.3908,9.3908,9.3908,9.3908,9.3908,9.3908,9.3908,9.3908,9.3908,9.3908,9.3908,9.3908,9.3908,9.3908,9.3908,9.3908,9.3908,9.3908,9.3908,9.3908,9.3908,9.3908,9.3908,9.3908,9.3908,9.3908,9.3908,9.3908,9.3908,9.3908,9.3908,9.3908,9.3908,9.3908,9.3908,9.3908,9.3908,9.3908,9.3908,9.3908,9.9907,9.9907,9.9907,9.9907,9.9907,9.9907,9.9907,9.9907,9.9907,9.9907,9.9907,9.9907,9.9907,9.9907,9.9907,9.9907,9.9907,9.9907,9.9907,9.9907,9.9907,9.9907,9.9907,9.9907,9.9907,9.9907,9.9907,9.9907,9.9907,9.9907,9.9869,9.9822,9.9586,9.968,9.9349,9.8639,9.7964,9.744,9.6916,9.639,9.5589,9.5157,9.4857,9.4101,9.3956,9.3908,9.3908,9.3908,9.3908,9.3908,9.3908,9.3908,9.3908,9.3908,9.3908,9.3908,9.3908,9.3908,9.3908,9.3908,9.3908,9.3908,9.3908,9.3908,9.3908,9.3908,9.3908,9.3908,9.3908,9.3908,9.3908,9.3908,9.3908,9.3908,9.3908,9.3908,9.3908,9.3908,9.3908,9.3908,9.3908,9.3908,9.3908,9.3908,9.3908,9.3908,9.3908,9.3908,9.3908,9.3908,9.3908,9.3908,9.3908,9.3908,9.3908,9.3908,9.3908,9.3908,9.3908,9.3908,9.3908,9.3908,9.3908,9.3908,9.3908,9.3908,9.3908,9.3908,9.3908,9.3908,9.3908,9.3908,9.3908,9.3908,9.3908,9.9907,9.9907,9.9907,9.9907,9.9907,9.9907,9.9907,9.9907,9.9907,9.9907,9.9907,9.9907,9.9907,9.9907,9.9907,9.9907,9.9907,9.9907,9.9907,9.9907,9.9907,9.9907,9.9907,9.9907,9.9907,9.9907,9.9907,9.9822,9.9822,9.9775,9.9444,9.8876,9.8828,9.8544,9.7916,9.7488,9.7297,9.6772,9.6199,9.5301,9.4533,9.4341,9.4149,9.4004,9.3908,9.3908,9.3908,9.3908,9.3908,9.3908,9.3908,9.3908,9.3908,9.3908,9.3908,9.3908,9.3908,9.3908,9.3908,9.3908,9.3908,9.3908,9.3908,9.3908,9.3908,9.3908,9.3908,9.3908,9.3908,9.3908,9.3908,9.3908,9.3908,9.3908,9.3908,9.3908,9.3908,9.3908,9.3908,9.3908,9.3908,9.3908,9.3908,9.3908,9.3908,9.3908,9.3908,9.3908,9.3908,9.3908,9.3908,9.3908,9.3908,9.3908,9.3908,9.3908,9.3908,9.3908,9.3908,9.3908,9.3908,9.3908,9.3908,9.3908,9.3908,9.3908,9.3908,9.3908,9.3908,9.3908,9.3908,9.3908,9.3908,9.3908,9.3908,9.9907,9.9907,9.9907,9.9907,9.9907,9.9907,9.9907,9.9907,9.9907,9.9907,9.9907,9.9907,9.9907,9.9907,9.9907,9.9907,9.9907,9.9907,9.9907,9.9907,9.9907,9.9907,9.9907,9.9907,9.9907,9.9907,9.9869,9.9727,9.9349,9.9207,9.8781,9.8011,9.7821,9.7488,9.7249,9.6581,9.639,9.6056,9.5337,9.4485,9.4053,9.3908,9.3908,9.3908,9.3908,9.3908,9.3908,9.3908,9.3908,9.3908,9.3908,9.3908,9.3908,9.3908,9.3908,9.3908,9.3908,9.3908,9.3908,9.3908,9.3908,9.3908,9.3908,9.3908,9.3908,9.3908,9.3908,9.3908,9.3908,9.3908,9.3908,9.3908,9.3908,9.3908,9.3908,9.3908,9.3908,9.3908,9.3908,9.3908,9.3908,9.3908,9.3908,9.3908,9.3908,9.3908,9.3908,9.3908,9.3908,9.3908,9.3908,9.3908,9.3908,9.3908,9.3908,9.3908,9.3908,9.3908,9.3908,9.3908,9.3908,9.3908,9.3908,9.3908,9.3908,9.3908,9.3908,9.3908,9.3908,9.3908,9.3908,9.3908,9.3908,9.3908,9.3908,9.9907,9.9907,9.9907,9.9907,9.9907,9.9907,9.9907,9.9907,9.9907,9.9907,9.9907,9.9907,9.9907,9.9907,9.9907,9.9907,9.9907,9.9907,9.9907,9.9907,9.9907,9.9907,9.9907,9.986,9.9633,9.9907,9.9727,9.9207,9.8581,9.8354,9.7784,9.7011,9.6772,9.6629,9.6199,9.5577,9.5301,9.5145,9.4389,9.3956,9.3908,9.3908,9.3908,9.3908,9.3908,9.3908,9.3908,9.3908,9.3908,9.3908,9.3908,9.3908,9.3908,9.3908,9.3908,9.3908,9.3908,9.3908,9.3908,9.3908,9.3908,9.3908,9.3908,9.3908,9.3908,9.3908,9.3908,9.3908,9.3908,9.3908,9.3908,9.3908,9.3908,9.3908,9.3908,9.3908,9.3908,9.3908,9.3908,9.3908,9.3908,9.3908,9.3908,9.3908,9.3908,9.3908,9.3908,9.3908,9.3908,9.3908,9.3908,9.3908,9.3908,9.3908,9.3908,9.3908,9.3908,9.3908,9.3908,9.3908,9.3908,9.3908,9.3908,9.3908,9.3908,9.3908,9.3908,9.3908,9.3908,9.3908,9.3908,9.3908,9.3908,9.3908,9.3908,9.9907,9.9907,9.9907,9.9907,9.9907,9.9907,9.9907,9.9907,9.9907,9.9907,9.9907,9.9907,9.9907,9.9907,9.9907,9.9907,9.9907,9.9907,9.9822,9.9822,9.9775,9.9869,9.9633,9.9349,9.9065,9.9387,9.9065,9.8259,9.7488,9.7345,9.6677,9.6008,9.5768,9.5397,9.4821,9.4533,9.4293,9.4149,9.3956,9.3908,9.3908,9.3908,9.3908,9.3908,9.3908,9.3908,9.3908,9.3908,9.3908,9.3908,9.3908,9.3908,9.3908,9.3908,9.3908,9.3908,9.3908,9.3908,9.3908,9.3908,9.3908,9.3908,9.3908,9.3908,9.3908,9.3908,9.3908,9.3908,9.3908,9.3908,9.3908,9.3908,9.3908,9.3908,9.3908,9.3908,9.3908,9.3908,9.3908,9.3908,9.3908,9.3908,9.3908,9.3908,9.3908,9.3908,9.3908,9.3908,9.3908,9.3908,9.3908,9.3908,9.3908,9.3908,9.3908,9.3908,9.3908,9.3908,9.3908,9.3908,9.3908,9.3908,9.3908,9.3908,9.3908,9.3908,9.3908,9.3908,9.3908,9.3908,9.3908,9.3908,9.3908,9.3908,9.3908,9.9907,9.9907,9.9907,9.9907,9.9907,9.9907,9.9907,9.9907,9.9907,9.9907,9.9907,9.9907,9.9907,9.9907,9.9907,9.9907,9.9907,9.9907,9.9633,9.9254,9.9207,9.9065,9.8391,9.8059,9.8154,9.8106,9.7546,9.664,9.6295,9.6247,9.5673,9.5001,9.4677,9.4437,9.4004,9.3908,9.3956,9.3956,9.3908,9.3908,9.3908,9.3908,9.3908,9.3908,9.3908,9.3908,9.3908,9.3908,9.3908,9.3908,9.3908,9.3908,9.3908,9.3908,9.3908,9.3908,9.3908,9.3908,9.3908,9.3908,9.3908,9.3908,9.3908,9.3908,9.3908,9.3908,9.3908,9.3908,9.3908,9.3908,9.3908,9.3908,9.3908,9.3908,9.3908,9.3908,9.3908,9.3908,9.3908,9.3908,9.3908,9.3908,9.3908,9.3908,9.3908,9.3908,9.3908,9.3908,9.3908,9.3908,9.3908,9.3908,9.3908,9.3908,9.3908,9.3908,9.3908,9.3908,9.3908,9.3908,9.3908,9.3908,9.3908,9.3908,9.3908,9.3908,9.3908,9.3908,9.3908,9.3908,9.3908,9.3908,9.3908,9.3908,9.3908,9.9907,9.9907,9.9907,9.9907,9.9907,9.9907,9.9907,9.9907,9.9907,9.9907,9.9907,9.9907,9.9907,9.9907,9.9907,9.9907,9.9822,9.9538,9.9207,9.8733,9.8296,9.8011,9.7297,9.6963,9.6629,9.6295,9.5732,9.5301,9.5157,9.5193,9.4809,9.4149,9.4004,9.4004,9.3956,9.3908,9.3908,9.3908,9.3908,9.3908,9.3908,9.3908,9.3908,9.3908,9.3908,9.3908,9.3908,9.3908,9.3908,9.3908,9.3908,9.3908,9.3908,9.3908,9.3908,9.3908,9.3908,9.3908,9.3908,9.3908,9.3908,9.3908,9.3908,9.3908,9.3908,9.3908,9.3908,9.3908,9.3908,9.3908,9.3908,9.3908,9.3908,9.3908,9.3908,9.3908,9.3908,9.3908,9.3908,9.3908,9.3908,9.3908,9.3908,9.3908,9.3908,9.3908,9.3908,9.3908,9.3908,9.3908,9.3908,9.3908,9.3908,9.3908,9.3908,9.3908,9.3908,9.3908,9.3908,9.3908,9.3908,9.3908,9.3908,9.3908,9.3908,9.3908,9.3908,9.3908,9.3908,9.3908,9.3908,9.3908,9.3908,9.3908,9.3908,9.9907,9.9907,9.9907,9.9907,9.9907,9.9907,9.9907,9.9907,9.9907,9.9907,9.9907,9.9907,9.9727,9.9822,9.9775,9.986,9.9633,9.916,9.8544,9.8164,9.7535,9.7011,9.6581,9.5924,9.5301,9.4389,9.4293,9.4245,9.4245,9.4101,9.4149,9.4004,9.3908,9.3908,9.3908,9.3908,9.3908,9.3908,9.3908,9.3908,9.3908,9.3908,9.3908,9.3908,9.3908,9.3908,9.3908,9.3908,9.3908,9.3908,9.3908,9.3908,9.3908,9.3908,9.3908,9.3908,9.3908,9.3908,9.3908,9.3908,9.3908,9.3908,9.3908,9.3908,9.3908,9.3908,9.3908,9.3908,9.3908,9.3908,9.3908,9.3908,9.3908,9.3908,9.3908,9.3908,9.3908,9.3908,9.3908,9.3908,9.3908,9.3908,9.3908,9.3908,9.3908,9.3908,9.3908,9.3908,9.3908,9.3908,9.3908,9.3908,9.3908,9.3908,9.3908,9.3908,9.3908,9.3908,9.3908,9.3908,9.3908,9.3908,9.3908,9.3908,9.3908,9.3908,9.3908,9.3908,9.3908,9.3908,9.3908,9.3908,9.3908,9.3908,9.3908,9.9907,9.9907,9.9907,9.9907,9.9907,9.9907,9.9907,9.9907,9.9907,9.9907,9.9822,9.9387,9.916,9.9112,9.8629,9.8391,9.8249,9.7868,9.7488,9.6916,9.6534,9.5864,9.5301,9.4773,9.4437,9.4053,9.3908,9.3908,9.3908,9.3956,9.3908,9.3908,9.3908,9.3908,9.3908,9.3908,9.3908,9.3908,9.3908,9.3908,9.3908,9.3908,9.3908,9.3908,9.3908,9.3908,9.3873,9.3873,9.3873,9.3801,9.3516,9.3445,9.3753,9.3908,9.3908,9.3908,9.3908,9.3908,9.3908,9.3908,9.3873,9.3908,9.3908,9.3908,9.3908,9.3908,9.3908,9.3908,9.3908,9.3908,9.3908,9.3908,9.3908,9.3908,9.3908,9.3908,9.3908,9.3908,9.3908,9.3908,9.3908,9.3908,9.3908,9.3908,9.3908,9.3908,9.3908,9.3908,9.3908,9.3908,9.3908,9.3908,9.3908,9.3908,9.3908,9.3908,9.3908,9.3908,9.3908,9.3908,9.3908,9.3908,9.3908,9.3908,9.3908,9.3908,9.3908,9.3908,9.3908,9.3908,9.3908,9.3908,9.3908,9.3908,9.3908,9.9907,9.9907,9.9907,9.9907,9.9907,9.9907,9.9907,9.9907,9.9907,9.9907,9.968,9.8923,9.8591,9.8496,9.763,9.6963,9.7154,9.7059,9.6438,9.5493,9.5289,9.4581,9.4149,9.4004,9.3908,9.3908,9.3908,9.3908,9.3908,9.3908,9.3908,9.3908,9.3908,9.3908,9.3908,9.3908,9.3908,9.3908,9.3908,9.3908,9.3908,9.3908,9.3908,9.3908,9.3908,9.3837,9.3694,9.3468,9.3587,9.3623,9.3302,9.3004,9.3361,9.3409,9.3266,9.3231,9.3302,9.3338,9.3325,9.3266,9.3409,9.3266,9.3231,9.348,9.3587,9.3623,9.3694,9.3908,9.3908,9.3908,9.3908,9.3908,9.3908,9.3908,9.3908,9.3908,9.3908,9.3908,9.3908,9.3908,9.3908,9.3908,9.3908,9.3908,9.3908,9.3908,9.3908,9.3908,9.3908,9.3908,9.3908,9.3908,9.3908,9.3908,9.3908,9.3908,9.3908,9.3908,9.3908,9.3908,9.3908,9.3908,9.3908,9.3908,9.3908,9.3908,9.3908,9.3908,9.3908,9.3908,9.3908,9.3908,9.3908,9.3908,9.3908,9.9907,9.9907,9.9907,9.9907,9.9907,9.9907,9.9907,9.9869,9.9812,9.9775,9.9491,9.8876,9.8259,9.8496,9.7106,9.6868,9.6868,9.6629,9.6151,9.5301,9.4581,9.4149,9.3908,9.3908,9.3908,9.3908,9.3908,9.3908,9.3908,9.3908,9.3908,9.3908,9.3908,9.3908,9.3908,9.3908,9.3908,9.3908,9.3908,9.3908,9.3908,9.3908,9.3837,9.3801,9.3801,9.3623,9.2981,9.2505,9.2505,9.3801,9.3111,9.2755,9.2684,9.2149,9.1935,9.1971,9.2042,9.2006,9.1864,9.2006,9.1935,9.2006,9.1971,9.2042,9.2684,9.291,9.3076,9.3694,9.3873,9.3837,9.3873,9.3908,9.3908,9.3908,9.3908,9.3908,9.3908,9.3908,9.3908,9.3908,9.3908,9.3908,9.3908,9.3908,9.3908,9.3908,9.3908,9.3908,9.3908,9.3908,9.3908,9.3908,9.3908,9.3908,9.3908,9.3908,9.3908,9.3908,9.3908,9.3908,9.3908,9.3908,9.3908,9.3908,9.3908,9.3908,9.3908,9.3908,9.3908,9.3908,9.3908,9.3908,9.3908,9.3908,9.3908,9.9499,9.9869,9.9907,9.9907,9.9907,9.9907,9.9586,9.916,9.9112,9.8828,9.8106,9.7202,9.6736,9.6593,9.5684,9.5241,9.5157,9.5157,9.4965,9.4401,9.4029,9.3837,9.3873,9.3908,9.3908,9.3908,9.3908,9.3908,9.3908,9.3908,9.3908,9.3908,9.3908,9.3908,9.3908,9.3908,9.3908,9.3908,9.3908,9.3908,9.3908,9.3908,9.3682,9.3325,9.3646,9.3552,9.2945,9.2826,9.2684,9.2434,9.2256,9.2042,9.2006,9.1721,9.1579,9.1532,9.1532,9.1496,9.1532,9.1532,9.1532,9.1543,9.1532,9.1757,9.1971,9.2078,9.2363,9.3124,9.3183,9.3432,9.3766,9.3908,9.3908,9.3908,9.3908,9.3908,9.3908,9.3873,9.3908,9.3908,9.3908,9.3908,9.3908,9.3908,9.3908,9.3908,9.3908,9.3908,9.3908,9.3908,9.3908,9.3908,9.3908,9.3908,9.3908,9.3908,9.3908,9.3908,9.3908,9.3908,9.3908,9.3908,9.3908,9.3908,9.3908,9.3908,9.3908,9.3908,9.3908,9.3908,9.3908,9.3908,9.3908,9.3908,9.3908,9.8647,9.8896,9.8896,9.8755,9.852,9.852,9.8105,9.7577,9.7493,9.7142,9.6595,9.5584,9.5323,9.5349,9.4222,9.3587,9.3647,9.3599,9.3587,9.3539,9.3397,9.3302,9.3254,9.3432,9.3694,9.3873,9.3908,9.3908,9.3908,9.3908,9.3908,9.3908,9.3908,9.3908,9.3908,9.3908,9.3908,9.3908,9.3908,9.3908,9.3908,9.3908,9.3539,9.3076,9.3575,9.348,9.2862,9.3302,9.2898,9.1686,9.14,9.1258,9.1222,9.1008,9.0794,9.0794,9.0866,9.0901,9.0901,9.0866,9.0901,9.0973,9.0794,9.1044,9.1186,9.1436,9.1971,9.2541,9.2969,9.3338,9.3766,9.3908,9.3908,9.3908,9.3908,9.3801,9.3623,9.3587,9.3539,9.3575,9.3552,9.3694,9.3801,9.3908,9.3908,9.3908,9.3908,9.3908,9.3908,9.3908,9.3908,9.3908,9.3908,9.3908,9.3908,9.3908,9.3908,9.3908,9.3908,9.3908,9.3908,9.3908,9.3908,9.3908,9.3908,9.3908,9.3908,9.3908,9.3908,9.3908,9.3908,9.3908,9.3908,9.3908,9.3908,9.7102,9.627,9.6261,9.6002,9.5351,9.5257,9.5238,9.4988,9.4978,9.529,9.5476,9.4594,9.4625,9.482,9.3577,9.2898,9.2838,9.2862,9.2862,9.2541,9.222,9.1935,9.2042,9.2541,9.3076,9.3575,9.3766,9.3837,9.3766,9.3873,9.3908,9.3908,9.3908,9.3908,9.3908,9.3908,9.3908,9.3908,9.3908,9.3908,9.3908,9.3873,9.3766,9.3611,9.3659,9.3338,9.2612,9.2648,9.2398,9.1614,9.0901,9.0556,9.0342,8.9725,8.9511,8.9547,8.9404,8.9475,8.945,8.9582,8.9547,8.9582,8.9618,8.9664,9.0413,9.0937,9.1579,9.2363,9.3004,9.3552,9.3659,9.3766,9.3766,9.3873,9.3623,9.3325,9.291,9.2755,9.2755,9.2791,9.2826,9.3004,9.3623,9.3694,9.373,9.373,9.3659,9.3659,9.3694,9.3694,9.3837,9.3908,9.3908,9.3908,9.3908,9.3908,9.3908,9.3908,9.3908,9.3908,9.3908,9.3908,9.3908,9.3908,9.3908,9.3908,9.3908,9.3908,9.3908,9.3908,9.3908,9.3908,9.3908,9.3908,9.3908,9.6857,9.6943,9.6296,9.5787,9.5462,9.4859,9.4301,9.3789,9.3659,9.3421,9.3159,9.2725,9.3003,9.3445,9.3052,9.2719,9.2719,9.2719,9.2185,9.1329,9.1365,9.1532,9.1614,9.1899,9.2185,9.2434,9.2898,9.3147,9.3231,9.3611,9.3908,9.3908,9.3908,9.3873,9.3908,9.3908,9.3908,9.3908,9.3873,9.3908,9.3801,9.3397,9.2945,9.247,9.2434,9.2006,9.1376,9.1721,9.1817,9.1507,9.0841,9.0117,8.9654,8.9404,8.919,8.919,8.919,8.919,8.919,8.919,8.919,8.919,8.919,8.9414,8.9628,8.9878,9.0484,9.1126,9.1579,9.1864,9.2398,9.2838,9.2862,9.2505,9.247,9.2292,9.2113,9.1971,9.2006,9.2006,9.2006,9.2066,9.2327,9.2434,9.2434,9.2434,9.2434,9.2505,9.3052,9.3111,9.3468,9.3766,9.3694,9.3659,9.3801,9.3837,9.3837,9.3766,9.3659,9.3552,9.3552,9.3516,9.3552,9.3516,9.3552,9.348,9.3516,9.3623,9.3587,9.3873,9.3908,9.3837,9.373,9.3766,9.3623,9.5841,9.5775,9.5133,9.4535,9.3853,9.3289,9.2559,9.1956,9.191,9.1636,9.1244,9.1186,9.1614,9.2185,9.2078,9.2018,9.1971,9.1935,9.1258,9.0306,9.0545,9.0794,9.083,9.108,9.1186,9.1329,9.1971,9.2363,9.2434,9.2862,9.3147,9.3147,9.3111,9.3195,9.3124,9.3147,9.3147,9.3147,9.3147,9.3147,9.3159,9.2612,9.2113,9.1567,9.1496,9.1044,9.0081,9.0509,9.0794,9.0794,9.0295,8.9807,8.9333,8.919,8.919,8.919,8.919,8.919,8.919,8.919,8.919,8.919,8.919,8.919,8.919,8.9521,8.9914,9.0306,9.0627,9.0901,9.1507,9.2078,9.2006,9.1258,9.1436,9.1603,9.1614,9.1365,9.1222,9.1186,9.1186,9.1329,9.1507,9.1614,9.1721,9.1686,9.1686,9.1792,9.222,9.2363,9.2648,9.3004,9.304,9.2933,9.2969,9.3017,9.2945,9.2838,9.2719,9.2648,9.2803,9.2838,9.2862,9.2898,9.2933,9.2933,9.3017,9.3017,9.2826,9.2969,9.3076,9.3266,9.3445,9.3373,9.3195,9.3874,9.2413,9.2186,9.1233,8.9974,8.9745,8.9399,8.9587,8.9506,8.9934,9.0377,9.0413,9.0794,9.1293,9.0984,9.0484,9.052,9.052,9.0046,8.9368,8.9414,8.9404,8.9475,9.0128,9.0413,9.0449,9.1151,9.1543,9.1579,9.1721,9.1792,9.1686,9.1792,9.1864,9.165,9.1792,9.1721,9.1792,9.1828,9.1721,9.1579,9.1614,9.1507,9.1507,9.1353,9.0723,8.9333,8.9333,8.944,8.9368,8.9297,8.9226,8.9226,8.919,8.919,8.919,8.919,8.919,8.919,8.919,8.919,8.919,8.919,8.919,8.919,8.9689,9.0163,9.0188,9.0723,9.1329,9.1329,9.1365,9.108,9.0627,9.0901,9.1258,9.1258,9.0841,9.0413,9.0413,9.0413,9.0687,9.1258,9.1293,9.1222,9.1222,9.1258,9.1329,9.1507,9.1543,9.1579,9.1721,9.1971,9.2149,9.2149,9.2066,9.1876,9.1722,9.1581,9.2042,9.2185,9.222,9.2292,9.2256,9.2292,9.2256,9.2292,9.2292,9.2185,9.2149,9.1971,9.2078,9.2327,9.2505,9.2434,9.1114,9.0492,8.9779,8.94,8.9311,8.8714,8.8772,8.919,8.919,8.9379,8.9593,8.9582,9.001,9.0627,9.052,9.0128,8.9664,8.9628,8.9486,8.919,8.919,8.919,8.9307,8.944,8.9582,8.9654,8.9868,9.026,9.077,9.1293,9.1543,9.1543,9.1532,9.1532,9.1532,9.1532,9.1532,9.1532,9.1532,9.1543,9.1507,9.1044,9.0759,9.0734,9.0224,8.9689,8.9262,8.919,8.919,8.919,8.919,8.919,8.919,8.919,8.919,8.919,8.919,8.919,8.919,8.919,8.919,8.919,8.919,8.8941,8.8549,8.9165,8.9262,8.9083,8.9511,8.9974,8.9868,8.9547,8.9333,8.9618,8.9842,8.9939,8.9939,8.9725,8.9582,8.9582,8.9582,8.9689,8.9903,8.9974,9.001,8.9974,9.0021,9.0224,9.0616,9.0759,9.0866,9.1436,9.1436,9.1353,9.0309,8.9557,8.9277,8.9523,8.9511,9.1002,9.1757,9.1686,9.1639,9.1567,9.1567,9.1532,9.1532,9.1532,9.1567,9.1614,9.14,9.1222,9.1507,9.1603,9.1686,8.9807,8.9719,8.8666,8.8327,8.8438,8.7891,8.7871,8.837,8.8655,8.8655,8.8487,8.8701,8.9083,8.9557,8.9272,8.8879,8.837,8.8335,8.838,8.8416,8.838,8.8558,8.8762,8.8798,8.8905,8.9155,8.9226,8.9486,8.9974,9.0438,9.0723,9.0723,9.0723,9.0723,9.0723,9.0723,9.0723,9.0723,9.0723,9.0723,9.0616,9.0188,8.9985,8.9949,8.9475,8.919,8.919,8.919,8.919,8.919,8.919,8.919,8.919,8.8986,8.8655,8.8451,8.838,8.838,8.8416,8.862,8.8798,8.8798,8.9058,8.8976,8.8691,8.8915,8.9012,8.8655,8.8762,8.8808,8.8727,8.8655,8.8691,8.9048,8.8976,8.8834,8.8798,8.8798,8.8798,8.8834,8.9129,8.919,8.9297,8.9226,8.919,8.919,8.9226,8.944,8.9832,8.9985,9.0081,9.0545,9.0677,8.9802,8.7534,8.6037,8.5786,8.5969,8.6211,8.6377,8.5975,8.5262,8.5659,8.5087,8.7059,8.734,8.7773,8.8053,9.0402,9.0474,9.0474,9.0474,9.108,9.0616,9.0687,8.9601,8.9351,8.8505,8.7539,8.6811,8.6855,8.6882,8.7096,8.7693,8.7631,8.7132,8.7738,8.7978,8.7907,8.731,8.6882,8.6962,8.7034,8.7025,8.7025,8.6989,8.7346,8.8014,8.8049,8.8406,8.9058,8.9048,8.9083,8.9155,8.9226,8.919,8.9262,8.9333,8.9262,8.9333,8.9368,8.9262,8.9368,8.9368,8.9297,8.9262,8.9262,8.9262,8.9262,8.919,8.919,8.919,8.92,8.9155,8.9155,8.9058,8.9048,8.8976,8.837,8.7693,8.706,8.6953,8.6962,8.706,8.7667,8.8014,8.8085,8.8594,8.8976,8.862,8.8808,8.8762,8.8941,8.8156,8.7943,8.8014,8.8309,8.86,8.8332,8.7952,8.7387,8.7226,8.6832,8.7714,8.7755,8.8479,8.9155,8.919,8.9144,8.8549,8.8503,8.8412,8.7999,8.7563,8.7988,8.7839,8.7863,8.746,8.5996,7.9236,7.8936,7.8484,7.883,7.9926,7.8265,7.7401,7.7165,7.7635,7.8563,8.1436,8.3248,8.3747,8.5047,8.6976,8.8694,8.8581,8.886,8.8658,8.9055,8.8051,8.5991,8.5947,8.5729,8.5746,8.6026,8.6026,8.6383,8.6882,8.7096,8.7096,8.6918,8.7096,8.6918,8.6383,8.6125,8.6383,8.6811,8.6927,8.6927,8.6927,8.6927,8.7265,8.7943,8.7479,8.7631,8.8263,8.837,8.837,8.8442,8.8905,8.919,8.919,8.919,8.919,8.919,8.919,8.919,8.919,8.919,8.919,8.919,8.919,8.919,8.919,8.919,8.919,8.9236,8.8655,8.837,8.8335,8.7845,8.7524,8.7524,8.731,8.7096,8.6918,8.6927,8.6927,8.6927,8.7096,8.7203,8.7194,8.7381,8.731,8.6918,8.7203,8.7239,8.6588,8.6525,8.6401,8.7025,8.6882,8.5668,8.3608,8.363,8.2359,8.0256,8.2721,8.4445,8.4823,8.7017,8.919,8.8824,8.6779,8.4991,8.4541,8.2451,8.0456,8.0456,8.0752,8.0752,8.0456,8.0503,7.8965,7.6733,7.5387,7.613,7.6269,7.5861,7.5874,7.7072,7.7039,7.7023,7.4626,7.7213,7.8845,7.8952,7.9406,8.0816,8.4064,8.6814,8.8069,8.5671,8.5115,8.384,8.452,8.452,8.452,8.4806,8.5198,8.5198,8.5527,8.599,8.6276,8.6204,8.5955,8.5955,8.5661,8.5233,8.5233,8.5527,8.5919,8.5911,8.5955,8.5955,8.5911,8.6347,8.698,8.6597,8.6846,8.756,8.755,8.7595,8.7693,8.8335,8.8905,8.9155,8.919,8.919,8.919,8.919,8.919,8.919,8.919,8.8778,8.8182,8.8366,8.8549,8.8605,8.8687,8.8727,8.8655,8.8023,8.755,8.7515,8.7123,8.6927,8.6927,8.6561,8.6418,8.6383,8.6133,8.5955,8.5955,8.624,8.6418,8.6418,8.5253,8.428,8.3863,8.4255,8.3254,8.1232,8.0833,8.1181,8.1497,8.1586,8.0801,7.9233,7.8791,7.802,7.5587,7.7912,8.0317,8.1817,8.4234,8.5866,8.5812,8.418,8.2306,8.0518,7.8717,7.7248,7.6889,7.6562,7.6486,7.6097,7.3376,7.1565,7.0509,7.0482,7.0516,7.0729,7.0939,7.0997,7.1071,7.147,7.1565,7.13,7.2722,7.3804,7.4047,7.5067,7.689,7.8781,8.2296,8.2973,8.059,8.0216,7.7529,8.452,8.452,8.452,8.452,8.4556,8.4556,8.4592,8.4663,8.5269,8.5206,8.4663,8.4556,8.4592,8.452,8.4314,8.4164,8.42,8.3986,8.395,8.4171,8.4235,8.477,8.5741,8.5669,8.6026,8.6704,8.6775,8.6775,8.6855,8.7595,8.8335,8.9058,8.919,8.9109,8.8946,8.9017,8.9007,8.8916,8.887,8.7953,8.6295,8.6987,8.7423,8.7572,8.7771,8.7878,8.7943,8.7158,8.6775,8.6775,8.6704,8.6632,8.6561,8.6026,8.5458,8.5027,8.4346,8.3826,8.347,8.4156,8.4244,8.4358,8.1742,8.0213,8.0213,7.9864,7.7563,7.4282,7.3687,7.4643,7.4225,7.5099,7.5394,7.4632,7.408,7.3515,7.297,7.35,7.5074,7.8621,7.9803,8.0776,8.1347,8.1203,7.9832,7.6748,7.4692,7.3624,7.3641,7.3421,7.3261,7.2313,6.8382,6.4188,6.3852,6.327,6.4255,6.3984,6.3611,6.4352,6.4884,6.4626,6.3621,6.635,6.7001,6.8907,6.9787,7.1505,7.3957,7.4803,7.5234,7.531,7.554,7.5604,7.2629,8.452,8.452,8.452,8.452,8.452,8.452,8.452,8.4556,8.4734,8.4699,8.4556,8.452,8.452,8.4342,8.2631,8.1847,8.1562,7.9886,8.0023,8.1704,8.1889,8.3244,8.5447,8.5099,8.5198,8.5919,8.599,8.599,8.6062,8.6775,8.7515,8.8344,8.8951,8.8494,8.7155,8.7682,8.7677,8.6976,8.6168,8.5568,8.5105,8.5337,8.5847,8.6654,8.6807,8.6998,8.7123,8.6383,8.599,8.5955,8.542,8.5099,8.5055,8.4956,8.3428,8.0686,8.0121,7.8788,7.6058,7.5831,7.5927,7.5882,7.525,7.4897,7.461,7.18,6.9345,6.9083,7.1247,7.3077,7.2943,7.3262,7.2377,6.9505,6.9385,6.8503,6.603,6.834,7.0963,7.1841,7.468,7.6717,7.6829,7.6892,7.5373,7.1712,6.8221,6.6423,6.6281,6.6153,6.5657,6.4689,6.3348,6.213,6.1985,6.2083,6.2265,6.2609,6.2635,6.2817,6.3176,6.3306,6.3332,6.3396,6.432,6.4853,6.4839,6.5802,6.7484,7.0105,7.0633,7.1573,7.379,7.274,6.8773,8.3665,8.3993,8.4029,8.4029,8.4064,8.4378,8.452,8.4413,8.3066,8.2424,8.2495,8.3166,8.3494,8.3344,8.2174,8.1782,8.2067,8.0706,8.1068,8.256,8.2631,8.3558,8.5063,8.4734,8.477,8.5126,8.5162,8.5162,8.5233,8.599,8.6561,8.7025,8.7774,8.7623,8.6591,8.6896,8.6639,8.5568,8.4178,8.3155,8.2736,8.3621,8.4211,8.4553,8.5084,8.5285,8.5061,8.4763,8.4558,8.4594,8.424,8.4029,8.3986,8.2132,8.0803,8.0294,7.7191,7.5149,7.4755,7.3217,7.2247,7.2203,7.0654,6.892,6.7208,6.482,6.3581,6.3927,6.5711,6.7057,6.7029,6.7242,6.6557,6.4365,6.4774,6.4326,6.2786,6.451,6.6521,6.8295,7.0364,7.1766,7.211,7.2094,7.0707,6.7324,6.5055,6.3417,6.3088,6.278,6.2364,6.1823,6.1667,6.1667,6.1621,6.1667,6.1725,6.1985,6.2016,6.2193,6.2427,6.2577,6.2551,6.2577,6.2577,6.2577,6.2645,6.2577,6.3393,6.5621,6.5853,6.641,6.8093,6.7539,6.494,8.2644,8.3251,8.3251,8.3066,8.2966,8.3594,8.3736,8.3387,8.0961,7.9897,8.0004,8.1425,8.2067,8.2067,8.1817,8.2103,8.2673,8.2395,8.2738,8.37,8.3886,8.4057,8.4378,8.4528,8.452,8.452,8.4556,8.452,8.4627,8.5198,8.5634,8.5812,8.6276,8.6489,8.6356,8.6168,8.5422,8.3976,8.2185,8.0896,8.0101,8.1709,8.2405,8.2079,8.2894,8.3023,8.2477,8.2685,8.2484,8.1814,8.2027,8.1888,8.1279,7.7619,7.6906,7.914,7.384,7.1374,7.3787,7.1244,6.9527,6.9443,6.6628,6.3286,5.988,5.9542,5.9523,5.9627,6.0018,5.9731,5.9783,6.0521,6.097,6.075,6.1121,6.1407,6.1381,6.1545,6.2783,6.5714,6.6323,6.6593,6.7201,6.7342,6.6243,6.3929,6.3104,6.2916,6.2375,6.1907,6.1647,6.1667,6.1667,6.1667,6.1667,6.1667,6.1621,6.1667,6.1693,6.1745,6.1751,6.1751,6.1751,6.1647,6.1725,6.1745,6.1745,6.1667,6.1884,6.2048,6.2305,6.2161,6.251,6.2464,6.195,8.2317,8.2424,8.2424,8.1675,8.0539,8.0605,8.0004,7.8826,0.0,0.0,0.0,8.0854,8.1282,8.1175,7.9927,7.9392,7.9392,7.7422,7.7712,7.9749,8.0391,8.171,8.3565,8.4278,8.452,8.452,8.452,8.452,8.4556,8.4699,8.5099,8.5634,8.5198,8.5221,8.5584,8.4665,8.2768,8.0225,7.9051,7.8638,7.9035,7.9364,7.9983,8.0927,8.0493,8.0452,8.07,8.0843,7.9007,7.5027,7.5845,7.4986,7.1651,7.0698,6.9544,6.7937,6.6187,6.413,6.1605,6.0807,6.0674,6.1246,6.1001,5.9992,5.7965,5.7801,5.7939,5.8389,5.8944,5.9204,5.9204,5.9724,6.0017,6.0017,6.0095,6.0173,6.0218,6.0147,6.0626,6.1517,6.2005,6.2106,6.2819,6.2971,6.2496,6.2066,6.1985,6.1901,6.1751,6.1673,6.1569,6.1641,6.1667,6.1667,6.1667,6.1667,6.1667,6.1667,6.1667,6.1667,6.1667,6.1667,6.1667,6.1667,6.1667,6.1667,6.1667,6.1667,6.1667,6.1667,6.1667,6.1667,6.1667,6.1621,6.1595,8.0111,0.0,8.0426,8.0039,0.0,7.9718,7.7609,7.4007,7.5184,7.6361,7.7498,7.8791,7.925,7.9254,7.8469,7.8362,7.8719,7.7894,7.8394,7.9927,8.1146,8.2073,8.2816,8.3601,8.37,8.3422,8.3779,8.3993,8.3993,8.4385,8.4778,8.5091,8.4734,8.4477,8.434,8.3595,8.1052,7.672,7.6051,7.5696,7.549,7.5443,7.5757,7.6299,7.7111,0.0,0.0,0.0,0.0,0.0,0.0,0.0,0.0,0.0,0.0,6.4108,5.922,5.6249,5.6103,5.4447,5.4188,5.5919,5.6309,5.5825,5.4422,5.5628,5.6241,5.5654,5.69,5.7731,5.7731,5.8294,5.8606,5.8632,5.8822,5.9134,5.9412,5.9464,5.9653,6.0147,6.0276,6.0354,6.0711,6.0926,6.1107,6.1133,6.1413,6.1667,6.1595,6.1315,6.1263,6.1615,6.1667,6.1621,6.1667,6.1667,6.1667,6.1667,6.1667,6.1667,6.1667,6.1667,6.1667,6.1667,6.1667,6.1667,6.1667,6.1667,6.1667,6.1667,6.1667,6.1465,6.0841,6.0926,6.1107,7.747,7.8037,7.8037,7.7859,7.7645,7.8251,7.5576,7.0831,7.1471,7.2824,7.4676,7.6182,7.6828,7.6899,7.7149,7.7649,7.8287,7.9076,7.9897,8.0676,8.2067,8.2459,8.2067,8.278,8.2887,8.2495,8.3108,8.3429,8.3429,8.4029,8.435,8.4306,8.435,8.3858,8.2912,0.0,0.0,0.0,7.3562,7.3135,7.2676,7.2459,7.2442,7.2582,7.4113,0.0,7.3786,7.6599,7.6338,7.2389,7.3249,0.0,0.0,0.0,0.0,0.0,0.0,0.0,0.0,0.0,0.0,0.0,5.1589,5.1381,5.0965,5.32,5.3914,5.2343,5.4433,5.5778,5.5612,5.6329,5.6917,5.7021,5.7394,5.7887,5.8476,5.8554,5.8788,5.9334,5.9471,5.9575,5.9731,6.0199,6.0491,6.0517,6.0926,6.1257,6.1257,6.0796,6.0672,6.1179,6.1205,6.1257,6.1283,6.1257,6.1179,6.1283,6.1283,6.1257,6.1231,6.1231,6.1257,6.1231,6.1283,6.1257,6.1257,6.1283,6.1205,6.1283,6.1257,6.0997,6.0114,6.0224,6.0491,7.5388,7.5534,7.5495,7.475,7.3468,7.3574,7.3109,7.2434,7.2504,7.2718,7.3076,7.3931,7.4325,7.4394,7.5787,7.6425,7.6603,7.747,7.8291,7.9036,7.9932,8.064,8.1205,8.1996,8.2673,8.3251,8.3358,8.3429,8.3429,8.3458,8.3572,8.3529,8.3529,8.2947,8.1839,8.1023,7.8192,7.3439,7.1926,7.2087,7.3917,7.3108,7.309,7.3917,7.3181,7.2539,7.2044,7.1346,6.8467,6.3171,6.3442,6.184,5.7773,5.5649,5.4049,0.0,5.0317,0.0,0.0,0.0,0.0,0.0,0.0,0.0,0.0,5.0368,5.0408,4.8621,5.1927,5.3758,5.2732,5.4162,5.5321,5.5758,5.5913,5.6105,5.665,5.6685,5.6961,5.7576,5.8069,5.8562,5.9074,5.9627,5.9965,5.9939,5.9991,5.9991,6.0043,5.9965,5.9965,6.0088,6.0069,6.0199,6.0199,6.0166,6.0147,6.0121,6.0192,6.0069,6.0121,6.0095,6.0095,6.0114,6.0114,6.014,6.0069,6.0095,6.0095,6.0192,6.0069,5.9913,5.9757,5.9783,5.9965,7.375,7.3715,7.3753,7.2612,7.0796,7.076,7.0025,6.8863,6.931,6.8438,6.6819,6.759,6.8913,7.0764,7.3171,7.3335,7.1917,7.4338,7.4997,7.4268,7.7205,7.8755,7.9107,8.0361,8.0854,8.086,8.1675,8.2103,8.2138,8.2959,8.2289,8.0277,8.2747,8.0346,7.3405,7.4045,7.3707,7.1882,6.9853,6.916,6.9756,6.902,6.8709,6.8969,6.9403,6.9036,6.7822,6.8875,6.717,6.2357,6.2636,6.1013,5.6765,5.1836,4.9436,0.0,0.0,0.0,0.0,0.0,0.0,0.0,0.0,0.0,0.0,0.0,4.6313,4.6506,5.0127,5.1706,4.9903,5.1031,5.2135,5.2733,5.1822,5.2168,5.4715,5.435,5.4551,5.6183,5.6806,5.7273,5.7532,5.8095,5.8606,5.8874,5.8311,5.7851,5.7786,5.8454,5.903,5.9386,5.9698,5.9861,5.9861,5.9861,5.9861,5.988,5.9601,5.9438,5.9438,5.9134,5.8926,5.8926,5.89,5.9004,5.936,5.9438,5.9568,5.9575,5.883,5.8069,5.7922,5.8181,5.8606,7.1615,7.1398,6.9209,6.7946,6.7388,6.7353,6.7132,6.6883,6.7422,6.5877,6.2926,6.2918,6.3741,6.5229,6.6934,6.6787,6.5332,6.8638,7.0118,7.0386,7.4095,7.6476,7.7617,7.8755,7.8706,7.7618,7.8608,7.8786,7.8337,8.0024,7.8669,7.4958,7.8316,7.4769,6.4413,6.6891,6.8609,6.9008,6.7668,6.6547,6.576,6.5396,6.5142,6.5102,6.6198,6.6008,6.4428,6.6113,6.5479,6.2042,6.1121,5.914,5.5445,4.82,0.0,0.0,0.0,0.0,0.0,0.0,0.0,0.0,0.0,3.9283,3.7069,0.0,4.3233,0.0,4.8035,4.948,4.7973,4.8418,0.0,0.0,4.8018,4.8142,5.1408,5.148,5.2028,5.39,5.5114,5.5846,5.6017,5.6537,5.6936,5.6825,5.6146,5.5719,5.5902,5.6963,5.7913,5.8329,5.8692,5.903,5.8978,5.903,5.8978,5.9056,5.871,5.845,5.845,5.8,5.7714,5.7714,5.7688,5.7913,5.8303,5.845,5.8441,5.8239,5.7222,5.6125,5.5956,5.6591,5.7238,6.8409,6.7667,5.9116,5.8059,6.1931,6.2033,6.505,6.9936,6.997,6.8301,6.5324,6.3259,6.0226,5.6636,5.4391,0.0,5.7026,5.8636,6.3004,6.9498,7.0458,7.3298,7.7506,7.7688,7.6403,7.3869,7.3542,7.227,7.0492,7.2533,7.0964,6.611,6.7139,6.4324,5.8109,6.1751,6.3955,6.3983,6.5396,6.548,6.4186,6.4573,6.5216,6.6118,6.5228,6.4401,6.362,6.1601,5.9979,5.8939,5.4287,5.098,4.9417,0.0,0.0,0.0,0.0,0.0,0.0,0.0,0.0,0.0,0.0,0.0,0.0,0.0,0.0,0.0,4.5139,0.0,4.7719,4.6939,0.0,0.0,0.0,4.4905,4.5726,4.806,4.9667,4.9857,0.0,0.0,5.4894,5.541,5.5078,5.3336,5.3442,5.4173,5.5445,5.6031,5.6546,5.6513,5.665,5.6659,5.6806,5.6737,5.6695,5.6737,5.6624,5.6598,5.6513,5.6478,5.652,5.6426,5.6478,5.6546,5.6598,5.6487,5.6059,5.4381,5.4838,5.5403,5.4768,5.5488,5.6339,6.1312,5.5269,5.1167,5.1286,5.4085,5.3813,5.4993,5.7071,5.6755,5.4429,5.0733,4.9515,4.8308,4.7169,4.5695,0.0,0.0,0.0,5.4702,5.8576,6.1097,6.46,6.8891,7.1362,7.2209,7.1651,7.1705,7.2588,7.4212,7.1475,6.3343,5.0577,0.0,0.0,4.8402,5.2939,5.6878,5.9775,6.171,6.2924,6.3341,6.3709,6.3884,6.3938,6.3424,6.24,6.0911,5.9483,5.7208,5.3889,5.066,4.7327,0.0,0.0,0.0,0.0,0.0,0.0,0.0,0.0,0.0,0.0,0.0,2.9806,2.9087,0.0,0.0,0.0,3.6102,3.8491,4.0922,4.2782,0.0,0.0,0.0,0.0,0.0,0.0,0.0,4.6597,4.8945,5.0665,5.1222,5.1197,5.1089,5.0959,5.1079,5.1525,5.2426,0.0,5.3541,5.4036,5.4749,5.5266,5.543,5.5046,5.4921,5.5353,5.5108,5.4736,5.4216,5.4262,5.4381,5.4381,5.4355,5.4485,5.4782,5.3688,5.2572,5.187,5.2553,5.3126,5.2842,5.363,5.4485,5.2062,0.0,0.0,0.0,0.0,4.5451,4.6264,4.7745,4.7388,4.4886,4.0805,3.9655,0.0,0.0,0.0,0.0,0.0,0.0,4.7538,5.0502,5.4979,5.911,6.3023,6.5866,6.7129,6.6875,6.6893,6.791,6.9471,6.3483,5.3566,4.0415,0.0,0.0,0.0,0.0,5.0645,5.5377,5.8342,6.0601,6.2272,6.2827,6.2791,6.2219,6.1899,6.0859,5.8884,5.7151,5.4096,4.9729,4.5967,0.0,0.0,0.0,0.0,0.0,0.0,0.0,0.0,0.0,0.0,0.0,0.0,0.0,0.0,0.0,0.0,0.0,0.0,0.0,3.5563,3.8394,3.8883,0.0,0.0,0.0,0.0,0.0,0.0,0.0,0.0,0.0,4.6536,4.6657,4.7282,0.0,0.0,4.9137,4.9792,5.0476,5.1083,5.1791,5.2679,0.0,5.315,5.2923,5.2847,5.3098,5.3212,5.2925,5.1906,5.215,5.2234,5.1549,5.1818,5.2061,5.1931,5.0403,4.9134,4.894,4.9584,5.0165,5.0059,5.1138,5.2241,0.0,0.0,0.0,0.0,0.0,0.0,0.0,0.0,4.6062,4.3803,0.0,3.7389,0.0,0.0,0.0,0.0,0.0,3.5979,0.0,0.0,5.4088,5.9138,6.2102,6.2397,6.1185,5.8538,5.7416,5.5091,5.13,4.4727,0.0,0.0,0.0,0.0,0.0,0.0,4.6062,5.0779,5.5685,5.9048,6.0692,6.1835,6.2193,6.1647,6.1049,5.9861,5.8025,5.3862,5.0174,4.7162,3.9218,0.0,0.0,0.0,0.0,0.0,0.0,0.0,0.0,0.0,0.0,0.0,0.0,0.0,0.0,0.0,0.0,0.0,0.0,0.0,0.0,3.4293,0.0,0.0,0.0,0.0,0.0,0.0,0.0,0.0,0.0,0.0,4.0849,4.2306,4.4154,4.5959,0.0,0.0,0.0,0.0,4.9821,4.9821,5.0278,5.0342,4.9368,4.997,5.0293,4.9343,0.0,0.0,4.9717,5.0302,5.0222,4.8089,4.8884,4.934,4.7689,4.6438,4.5541,4.4887,4.5849,4.6426,4.5909,4.7818,4.9744,0.0,0.0,0.0,0.0,0.0,0.0,0.0,0.0,0.0,3.1644,0.0,2.8347,0.0,0.0,0.0,0.0,0.0,0.0,0.0,0.0,4.36,4.7602,5.0214,5.3834,5.4486,0.0,5.1654,4.7114,0.0,0.0,0.0,0.0,0.0,0.0,0.0,0.0,4.3383,4.8735,5.4589,5.8614,6.0569,6.1471,6.1803,6.1595,6.1004,5.8077,5.2706,4.9966,4.6668,0.0,0.0,0.0,0.0,0.0,0.0,0.0,0.0,0.0,0.0,0.0,0.0,0.0,0.0,0.0,0.0,0.0,0.0,0.0,0.0,0.0,0.0,0.0,3.1566,0.0,0.0,0.0,0.0,0.0,0.0,0.0,0.0,0.0,3.6032,3.9297,4.253,4.4332,4.5154,4.5882,4.6674,0.0,0.0,0.0,0.0,0.0,0.0,0.0,4.7073,4.6883,4.5972,4.541,4.5857,4.6838,4.7204,4.6436,0.0,0.0,4.1995,4.1142,4.1136,4.1199,4.2294,4.3264,4.3289,4.4783,4.6088,0.0,0.0,0.0,0.0,0.0,0.0,0.0,0.0,0.0,2.3113,2.2195,0.0,0.0,0.0,0.0,0.0,0.0,0.0,0.0,0.0,0.0,0.0,4.1308,4.5309,0.0,0.0,0.0,0.0,0.0,0.0,0.0,0.0,0.0,0.0,0.0,0.0,4.1241,4.6746,5.3342,5.7835,6.0069,6.0692,6.1023,6.1023,6.0614,5.7178,5.0414,0.0,0.0,0.0,0.0,0.0,0.0,0.0,0.0,0.0,0.0,0.0,0.0,0.0,0.0,0.0,0.0,0.0,0.0,0.0,0.0,0.0,0.0,0.0,0.0,0.0,2.7386,0.0,0.0,0.0,0.0,0.0,0.0,0.0,0.0,0.0,0.0,0.0,3.9731,4.2465,4.3549,4.4527,4.5547,4.5206,4.5094,0.0,0.0,0.0,0.0,0.0,0.0,0.0,0.0,0.0,0.0,0.0,0.0,0.0,0.0,4.1192,3.6897,3.6071,3.6188,3.6541,0.0,0.0,0.0,0.0,0.0,0.0,0.0,0.0,0.0,0.0,0.0,0.0,0.0,0.0,0.0,0.0,0.0,0.0,1.7154,0.0,0.0,0.0,0.0,0.0,0.0,0.0,0.0,0.0,0.0,0.0,0.0,0.0,0.0,0.0,0.0,0.0,0.0,0.0,0.0,0.0,0.0,3.9561,4.4475,5.181,5.6693,5.8988,5.9594,5.9861,5.9861,5.9835,5.7196,5.151,0.0,0.0,0.0,0.0,0.0,0.0,0.0,0.0,0.0,0.0,0.0,0.0,0.0,0.0,0.0,0.0,0.0,0.0,0.0,0.0,0.0,0.0,0.0,0.0,0.0,0.0,2.2733,2.4268,2.5769,0.0,0.0,0.0,0.0,0.0,0.0,0.0,0.0,0.0,0.0,4.186,4.3129,4.4661,4.4835,4.4812,4.4835,4.4873,4.4506,4.3625,4.4535,4.4624,0.0,0.0,0.0,0.0,0.0,0.0,0.0,0.0,0.0,0.0,0.0,0.0,0.0,0.0,0.0,0.0,0.0,0.0,0.0,0.0,0.0,0.0,0.0,0.0,0.0,0.0,0.0,0.0,0.0,0.0,0.0,0.0,0.0,0.0,0.0,0.0,0.0,0.0,0.0,0.0,0.0,0.0,0.0,0.0,0.0,0.0,0.0,0.0,0.0,0.0,0.0,0.0,0.0,0.0,3.8587,4.2858,5.0476,5.5498,5.7827,5.8814,5.9352,5.9308,5.8874,5.5652,0.0,0.0,0.0,0.0,0.0,0.0,0.0,0.0,0.0,0.0,0.0,0.0,0.0,0.0,0.0,0.0,0.0,0.0,0.0,0.0,0.0,0.0,0.0,0.0,0.0,0.0,0.0,0.0,2.715,2.7028,2.4797,0.0,0.0,0.0,0.0,0.0,0.0,0.0,0.0,0.0,0.0,4.2353,4.3152,4.327,4.3424,4.3763,4.3505,4.3411,4.381,4.3975,4.3727,4.3011,0.0,0.0,0.0,0.0,0.0,0.0,0.0,0.0,0.0,0.0,0.0,0.0,0.0,0.0,0.0,0.0,0.0,0.0,0.0,0.0,0.0,0.0,0.0,0.0,0.0,0.0,0.0,0.0,0.0,0.0,0.0,0.0,0.0,0.0,0.0,0.0,0.0,0.0,0.0,0.0,0.0,0.0,0.0,0.0,0.0,0.0,0.0,0.0,0.0,0.0,0.0,0.0,0.0,3.71,4.1504,4.9003,5.4032,5.6267,5.7446,5.8086,5.8086,5.7429,5.3295,0.0,0.0,0.0,0.0,0.0,0.0,0.0,0.0,0.0,0.0,0.0,0.0,0.0,0.0,0.0,0.0,0.0,0.0,0.0,0.0,0.0,0.0,0.0,0.0,0.0,0.0,0.0,0.0,2.4841,2.5398,2.3435,0.0,0.0,0.0,0.0,0.0,0.0,0.0,0.0,0.0,0.0,4.0126,4.0578,4.1043,0.0,0.0,4.1895,4.1334,4.2975,4.3293,4.2941,4.1731,4.1003,0.0,0.0,0.0,0.0,0.0,0.0,0.0,0.0,0.0,0.0,0.0,0.0,0.0,0.0,0.0,0.0,0.0,0.0,0.0,0.0,0.0,0.0,0.0,0.0,0.0,0.0,0.0,0.0,0.0,0.0,0.0,0.0,0.0,0.0,0.0,0.0,0.0,0.0,0.0,0.0,0.0,0.0,0.0,0.0,0.0,0.0,0.0,0.0,0.0,0.0,0.0,0.0,0.0,4.0177,4.7467,5.2395,5.466,5.5794,5.6374,5.6296,5.5768,5.0571,0.0,0.0,0.0,0.0,0.0,0.0,0.0,0.0,0.0,0.0,0.0,0.0,0.0,0.0,0.0,0.0,0.0,0.0,0.0,0.0,0.0,0.0,0.0,0.0,0.0,0.0,0.0,0.0,0.0,0.0,0.0,0.0,0.0,0.0,0.0,0.0,0.0,0.0,0.0,0.0,0.0,3.7167,3.7738,3.8627,4.0174,0.0,0.0,3.8625,4.1051,4.2294,4.2001,3.8983,0.0,0.0,0.0,0.0,0.0,0.0,0.0,0.0,0.0,0.0,0.0,0.0,0.0,0.0,0.0,0.0,0.0,0.0,0.0,0.0,0.0,0.0,0.0,0.0,0.0,0.0,0.0,0.0,0.0,0.0,0.0,0.0,0.0,0.0,0.0,0.0,0.0,0.0,0.0,0.0,0.0,0.0,0.0,0.0,0.0,0.0,0.0,0.0,0.0,0.0,0.0,0.0,0.0,0.0,3.7034,4.6024,5.1628,5.3474,5.5836,5.6693,5.5794,5.4823,0.0,0.0,0.0,0.0,0.0,0.0,0.0,0.0,0.0,0.0,0.0,0.0,0.0,0.0,0.0,0.0,0.0,0.0,0.0,0.0,0.0,0.0,0.0,0.0,0.0,0.0,0.0,1.5269,0.0,0.0,0.0,0.0,0.0,0.0,0.0,0.0,0.0,0.0,0.0,0.0,0.0,0.0,3.6687,4.0256,3.8655,3.7941,0.0,0.0,3.6952,3.7597,3.8913,3.9053,0.0,0.0,0.0,0.0,0.0,0.0,0.0,0.0,0.0,0.0,0.0,0.0,0.0,0.0,0.0,0.0,0.0,0.0,0.0,0.0,0.0,0.0,0.0,0.0,0.0,0.0,0.0,0.0,0.0,0.0,0.0,0.0,0.0,0.0,0.0,0.0,0.0,0.0,0.0,0.0,0.0,0.0,0.0,0.0,0.0,0.0,0.0,0.0,0.0,0.0,0.0,0.0,0.0,0.0,3.1287,3.5549,4.3908,4.9697,5.2589,5.5212,5.6147,5.528,5.3836,4.8395,0.0,0.0,0.0,0.0,0.0,0.0,0.0,0.0,0.0,0.0,0.0,0.0,0.0,0.0,0.0,0.0,0.0,0.0,0.0,0.0,0.0,0.0,0.0,0.0,0.0,0.0,0.0,0.0,0.0,0.0,0.0,0.0,0.0,0.0,0.0,0.0,0.0,0.0,0.0,0.0,0.0,0.0,3.6718,3.5503,0.0,0.0,0.0,3.4528,3.5817,0.0,0.0,0.0,0.0,0.0,0.0,0.0,0.0,0.0,0.0,0.0,0.0,0.0,0.0,0.0,0.0,0.0,0.0,0.0,0.0,0.0,0.0,0.0,0.0,0.0,0.0,0.0,0.0,0.0,0.0,0.0,0.0,0.0,0.0,0.0,0.0,0.0,0.0,0.0,0.0,0.0,0.0,0.0,0.0,0.0,0.0,0.0,0.0,0.0,0.0,0.0,0.0,0.0,0.0,0.0,0.0,0.0,3.4635,4.186,4.7628,5.1719,5.4255,5.5176,5.4574,5.2835,4.7339,0.0,0.0,0.0,0.0,0.0,0.0,0.0,0.0,0.0,0.0,0.0,0.0,0.0,0.0,0.0,0.0,0.0,0.0,0.0,0.0,0.0,0.0,0.0,0.0,0.0,0.0,0.0,0.0,0.0,0.0,0.0,0.0,0.0,0.0,0.0,0.0,0.0,0.0,0.0,0.0,0.0,3.3672,3.1223,3.1171,3.1453,0.0,0.0,3.1295,3.4122,3.4915,0.0,0.0,0.0,0.0,0.0,0.0,0.0,0.0,0.0,0.0,0.0,0.0,0.0,0.0,0.0,0.0,0.0,0.0,0.0,0.0,0.0,0.0,0.0,0.0,0.0,0.0,0.0,0.0,0.0,0.0,0.0,0.0,0.0,0.0,0.0,0.0,0.0,0.0,0.0,0.0,0.0,0.0,0.0,0.0,0.0,0.0,0.0,0.0,0.0,0.0,0.0,0.0,0.0,0.0,0.0,0.0,3.2607,4.2415,4.8491,5.0293,5.3449,5.4425,5.2949,5.159,4.6605,0.0,0.0,0.0,0.0,0.0,0.0,0.0,0.0,0.0,0.0,0.0,0.0,0.0,0.0,0.0,0.0,0.0,0.0,0.0,0.0,0.0,0.0,0.0,0.0,0.0,0.0,0.0,0.0,0.0,0.0,0.0,0.0,0.0,0.0,0.0,0.0,0.0,0.0,0.0,0.0,0.0,2.9672,3.2546,3.0481,0.0,0.0,0.0,0.0,2.8371,2.8306,0.0,0.0,0.0,0.0,0.0,0.0,0.0,0.0,0.0,0.0,0.0,0.0,0.0,0.0,0.0,0.0,0.0,0.0,0.0,0.0,0.0,0.0,0.0,0.0,0.0,0.0,0.0,0.0,0.0,0.0,0.0,0.0,0.0,0.0,0.0,0.0,0.0,0.0,0.0,0.0,0.0,0.0,0.0,0.0,0.0,0.0,0.0,0.0,0.0,0.0,0.0,0.0,0.0,0.0,0.0,0.0,3.3619,4.151,4.7329,5.0831,5.3749,5.4429,5.2594,5.0662,4.55,0.0,0.0,0.0,0.0,0.0,0.0,0.0,0.0,0.0,0.0,0.0,0.0,0.0,0.0,0.0,0.0,0.0,0.0,0.0,0.0,0.0,0.0,0.0,0.0,0.0,0.0,0.0,0.0,0.0,0.0,0.0,0.0,0.0,0.0,0.0,0.0,0.0,0.0,0.0,0.0,2.5621,2.7564,3.1481,0.0,0.0,0.0,0.0,0.0,0.0,2.6178,2.551,0.0,0.0,0.0,0.0,0.0,0.0,0.0,0.0,0.0,0.0,0.0,0.0,0.0,0.0,0.0,0.0,0.0,0.0,0.0,0.0,0.0,0.0,0.0,0.0,0.0,0.0,0.0,0.0,0.0,0.0,0.0,0.0,0.0,0.0,0.0,0.0,0.0,0.0,0.0,0.0,0.0,0.0,0.0,0.0,0.0,0.0,0.0,0.0,0.0,0.0,0.0,0.0,0.0,0.0,0.0,3.4294,3.9839,4.5309,5.0776,5.3483,5.3887,5.2033,4.9666,4.4329,3.5949,0.0,0.0,0.0,0.0,0.0,0.0,0.0,0.0,0.0,0.0,0.0,0.0,0.0,0.0,0.0,0.0,0.0,0.0,0.0,0.0,0.0,0.0,0.0,0.0,0.0,0.0,0.0,0.0,0.0,0.0,0.0,0.0,0.0,0.0,0.0,0.0,0.0,0.0,0.0,2.3382,2.5214,0.0,0.0,0.0,0.0,0.0,0.0,0.0,0.0,2.4483,0.0,0.0,0.0,0.0,0.0,0.0,0.0,0.0,0.0,0.0,0.0,0.0,0.0,0.0,0.0,0.0,0.0,0.0,0.0,0.0,0.0,0.0,0.0,0.0,0.0,0.0,0.0,0.0,0.0,0.0,0.0,0.0,0.0,0.0,0.0,0.0,0.0,0.0,0.0,0.0,0.0,0.0,0.0,0.0,0.0,0.0,0.0,0.0,0.0,0.0,0.0,0.0,0.0,0.0,0.0,0.0,3.7714,4.3289,4.5991,4.9584,5.0677,4.908,4.8102,4.3067,3.3595,0.0,0.0,0.0,0.0,0.0,0.0,0.0,0.0,0.0,0.0,0.0,0.0,0.0,0.0,0.0,0.0,0.0,0.0,0.0,0.0,0.0,0.0,0.0,0.0,0.0,0.0,0.0,0.0,0.0,0.0,0.0,0.0,0.0,0.0,0.0,0.0,0.0,0.0,1.0417,1.5223,0.0,0.0,0.0,0.0,0.0,0.0,0.0,0.0,2.2666,0.0,0.0,0.0,0.0,0.0,0.0,0.0,0.0,0.0,0.0,0.0,0.0,0.0,0.0,0.0,0.0,0.0,0.0,0.0,0.0,0.0,0.0,0.0,0.0,0.0,0.0,0.0,0.0,0.0,0.0,0.0,0.0,0.0,0.0,0.0,0.0,0.0,0.0,0.0,0.0,0.0,0.0,0.0,0.0,0.0,0.0,0.0,0.0,0.0,0.0,0.0,0.0,0.0,0.0,0.0,0.0,0.0,0.0,4.1736,4.6047,4.8526,4.9339,4.8338,4.435,3.8686,0.0,0.0,0.0,0.0,0.0,0.0,0.0,0.0,0.0,0.0,0.0,0.0,0.0,0.0,0.0,0.0,0.0,0.0,0.0,0.0,0.0,0.0,0.0,0.0,0.0,0.0,0.0,0.0,0.0,0.0,0.0,0.0,0.0,0.0,0.0,0.0,0.0,0.0,0.0,0.0,0.0,0.0,0.0,0.0,0.0,0.0,0.0,0.0,0.0,0.0,0.0,0.0,0.0,0.0,0.0,0.0,0.0,0.0,0.0,0.0,0.0,0.0,0.0,0.0,0.0,0.0,0.0,0.0,0.0,0.0,0.0,0.0,0.0,0.0,0.0,0.0,0.0,0.0,0.0,0.0,0.0,0.0,0.0,0.0,0.0,0.0,0.0,0.0,0.0,0.0,0.0,0.0,0.0,0.0,0.0,0.0,0.0,0.0,0.0,0.0,0.0,0.0,0.0,0.0,0.0,0.0,0.0,0.0,3.9641,4.5385,4.7112,4.7713,4.715,4.0448,3.4365,0.0,0.0,0.0,0.0,0.0,0.0,0.0,0.0,0.0,0.0,0.0,0.0,0.0,0.0,0.0,0.0,0.0,0.0,0.0,0.0,0.0,0.0,0.0,0.0,0.0,0.0,0.0,0.0,0.0,0.0,0.0,0.0,0.0,0.0,0.0,0.0,0.0,0.0,0.0,0.0,0.0,0.0,0.0,0.0,0.0,0.0,0.0,0.0,1.6585,0.0,0.0,0.0,0.0,0.0,0.0,0.0,0.0,0.0,0.0,0.0,0.0,0.0,0.0,0.0,0.0,0.0,0.0,0.0,0.0,0.0,0.0,0.0,0.0,0.0,0.0,0.0,0.0,0.0,0.0,0.0,0.0,0.0,0.0,0.0,0.0,0.0,0.0,0.0,0.0,0.0,0.0,0.0,0.0,0.0,0.0,0.0,0.0,0.0,0.0,0.0,0.0,0.0,0.0,0.0,0.0,0.0,0.0,0.0,3.5943,4.0204,4.3098,4.4149,4.3049,3.761,3.2012,0.0,0.0,0.0,0.0,0.0,0.0,0.0,0.0,0.0,0.0,0.0,0.0,0.0,0.0,0.0,0.0,0.0,0.0,0.0,0.0,0.0,0.0,0.0,0.0,0.0,0.0,0.0,0.0,0.0,0.0,0.0,0.0,0.0,0.0,0.0,0.0,0.0,0.0,0.0,0.0,0.0,0.0,0.0,0.0,0.0,0.0,0.0,0.0,0.0,0.0,0.0,0.0,0.0,0.0,0.0,0.0,0.0,0.0,0.0,0.0,0.0,0.0,0.0,0.0,0.0,0.0,0.0,0.0,0.0,0.0,0.0,0.0,0.0,0.0,0.0,0.0,0.0,0.0,0.0,0.0,0.0,0.0,0.0,0.0,0.0,0.0,0.0,0.0,0.0,0.0,0.0,0.0,0.0,0.0,0.0,0.0,0.0,0.0,0.0,0.0,0.0,0.0,0.0,0.0,0.0,0.0,0.0,0.0,3.2754,3.755,3.9835,4.0496,3.9462,3.356,2.9016,0.0,0.0,0.0,0.0,0.0,0.0,0.0,0.0,0.0,0.0,0.0,0.0,0.0,0.0,0.0,0.0,0.0,0.0,0.0,0.0,0.0,0.0,0.0,0.0,0.0,0.0,0.0,0.0,0.0,0.0,0.0,0.0,0.0,0.0,0.0,0.0,0.0,0.0,0.0,0.0,0.0,0.0,0.0,0.0,0.0,0.0,0.0,0.0,0.0,0.0,0.0,0.0,0.0,0.0,0.0,0.0,0.0,0.0,0.0,0.0,0.0,0.0,0.0,0.0,0.0,0.0,0.0,0.0,0.0,0.0,0.0,0.0,0.0,0.0,0.0,0.0,0.0,0.0,0.0,0.0,0.0,0.0,0.0,0.0,0.0,0.0,0.0,0.0,0.0,0.0,0.0,0.0,0.0,0.0,0.0,0.0,0.0,0.0,0.0,0.0,0.0,0.0,0.0,0.0,0.0,0.0,0.0,0.0,0.0,3.4608,3.6809,3.7245,3.5806,3.0256,2.6416,0.0,0.0,0.0,0.0,0.0,0.0,0.0,0.0,0.0,0.0,0.0,0.0,0.0,0.0,0.0,0.0,0.0,0.0,0.0,0.0,0.0,0.0,0.0,0.0,0.0,0.0,0.0,0.0,0.0,0.0,0.0,0.0,0.0,0.0,0.0,0.0,0.0,0.0,0.0,0.0,0.0,0.0,0.0,0.0,0.0,0.0,0.0,0.0,0.0,0.0,0.0,0.0,0.0,0.0,0.0,0.0,0.0,0.0,0.0,0.0,0.0,0.0,0.0,0.0,0.0,0.0,0.0,0.0,0.0,0.0,0.0,0.0,0.0,0.0,0.0,0.0,0.0,0.0,0.0,0.0,0.0,0.0,0.0,0.0,0.0,0.0,0.0,0.0,0.0,0.0,0.0,0.0,0.0,0.0,0.0,0.0,0.0,0.0,0.0,0.0,0.0,0.0,0.0,0.0,0.0,0.0,0.0,0.0,0.0,3.0657,3.4015,3.4779,3.2779,2.846,2.4583,0.0,0.0,0.0,0.0,0.0,0.0,0.0,0.0,0.0,0.0,0.0,0.0,0.0,0.0,0.0,0.0,0.0,0.0,0.0,0.0,0.0,0.0,0.0,0.0,0.0,0.0,0.0,0.0,0.0,0.0,0.0,0.0,0.0,0.0,0.0,0.0,0.0,0.0,0.0,0.0,0.0,0.0,0.0,0.0,0.0,0.0,0.0,0.0,0.0,0.0,0.0,0.0,0.0,0.0,0.0,0.0,0.0,0.0,0.0,0.0,0.0,0.0,0.0,0.0,0.0,0.0,0.0,0.0,0.0,0.0,0.0,0.0,0.0,0.0,0.0,0.0,0.0,0.0,0.0,0.0,0.0,0.0,0.0,0.0,0.0,0.0,0.0,0.0,0.0,0.0,0.0,0.0,0.0,0.0,0.0,0.0,0.0,0.0,0.0,0.0,0.0,0.0,0.0,0.0,0.0,0.0,0.0,0.0,0.0,2.3738,2.8373,3.1041,3.1251,2.6349,2.372,2.3582,0.0,0.0,0.0,0.0,0.0,0.0,0.0,0.0,0.0,0.0,0.0,0.0,0.0,0.0,0.0,0.0,0.0,0.0,0.0,0.0,0.0,0.0,0.0,0.0,0.0,0.0,0.0,0.0,0.0,0.0,0.0,0.0,0.0,0.0,0.0,0.0,0.0,0.0,0.0,0.0,0.0,0.0,0.0,0.0,0.0,0.0,0.0,0.0,0.0,0.0,0.0,0.0,0.0,0.0,0.0,0.0,0.0,0.0,0.0,0.0,0.0,0.0,0.0,0.0,0.0,0.0,0.0,0.0,0.0,0.0,0.0,0.0,0.0,0.0,0.0,0.0,0.0,0.0,0.0,0.0,0.0,0.0,0.0,0.0,0.0,0.0,0.0,0.0,0.0,0.0,0.0,0.0,0.0,0.0,0.0,0.0,0.0,0.0,0.0,0.0,0.0,0.0,0.0,0.0,0.0,0.0,0.0,0.0,2.136,2.628,2.9096,2.9376,2.4756,2.234,0.0,0.0,0.0,0.0,0.0,0.0,0.0,0.0,0.0,0.0,0.0,0.0,0.0,0.0,0.0,0.0,0.0,0.0,0.0,0.0,0.0,0.0,0.0,0.0,0.0,0.0,0.0,0.0,0.0,0.0,0.0,0.0,0.0,0.0,0.0,0.0,0.0,0.0,0.0,0.0,0.0,0.0,0.0,0.0,0.0,0.0,0.0,0.0,0.0,0.0,0.0,0.0,0.0,0.0,0.0,0.0,0.0,0.0,0.0,0.0,0.0,0.0,0.0,0.0,0.0,0.0,0.0,0.0,0.0,0.0,0.0,0.0,0.0,0.0,0.0,0.0,0.0,0.0,0.0,0.0,0.0,0.0,0.0,0.0,0.0,0.0,0.0,0.0,0.0,0.0,0.0,0.0,0.0,0.0,0.0,0.0,0.0,0.0,0.0,0.0,0.0,0.0,0.0,0.0,0.0,0.0,0.0,0.0,1.7954,2.4768,2.8417,2.9189,2.7431,2.3758,2.0216,0.0,0.0,0.0,0.0,0.0,0.0,0.0,0.0,0.0,0.0,0.0,0.0,0.0,0.0,0.0,0.0,0.0,0.0,0.0,0.0,0.0,0.0,0.0,0.0,0.0,0.0,0.0,0.0,0.0,0.0,0.0,0.0,0.0,0.0,0.0,0.0,0.0,0.0,0.0,0.0,0.0,0.0,0.0,0.0,0.0,0.0,0.0,0.0,0.0,0.0,0.0,0.0,0.0,0.0,0.0,0.0,0.0,0.0,0.0,0.0,0.0,0.0,0.0,0.0,0.0,0.0,0.0,0.0,0.0,0.0,0.0,0.0,0.0,0.0,0.0,0.0,0.0,0.0,0.0,0.0,0.0,0.0,0.0,0.0,0.0,0.0,0.0,0.0,0.0,0.0,0.0,0.0,0.0,0.0,0.0,0.0,0.0,0.0,0.0,0.0,0.0,0.0,0.0,0.0,0.0,0.0,0.0,0.0,0.0,1.7537,0.0,2.4626,0.0,2.2761,2.1106,0.0,0.0,0.0,0.0,0.0,0.0,0.0,0.0,0.0,0.0,0.0,0.0,0.0,0.0,0.0,0.0,0.0,0.0,0.0,0.0,0.0,0.0,0.0,0.0,0.0,0.0,0.0,0.0,0.0,0.0,0.0,0.0,0.0,0.0,0.0,0.0,0.0,0.0,0.0,0.0,0.0,0.0,0.0,0.0,0.0,0.0,0.0,0.0,0.0,0.0,0.0,0.0,0.0,0.0,0.0,0.0,0.0,0.0,0.0,0.0,0.0,0.0,0.0,0.0,0.0,0.0,0.0,0.0,0.0,0.0,0.0,0.0,0.0,0.0,0.0,0.0,0.0,0.0,0.0,0.0,0.0,0.0,0.0,0.0,0.0,0.0,0.0,0.0,0.0,0.0,0.0,0.0,0.0,0.0,0.0,0.0,0.0,0.0,0.0,0.0,0.0,0.0,0.0,0.0,0.0,0.0,0.0,0.0,0.0,1.7113,1.9398,2.1515,2.3336,2.1378,2.0286,0.0,0.0,0.0,0.0,0.0,0.0,0.0,0.0,0.0,0.0,0.0,0.0,0.0,0.0,0.0,0.0,0.0,0.0,0.0,0.0,0.0,0.0,0.0,0.0,0.0,0.0,0.0,0.0,0.0,0.0,0.0,0.0,0.0,0.0,0.0,0.0,0.0,0.0,0.0,0.0,0.0,0.0,0.0,0.0,0.0,0.0,0.0,0.0,0.0,0.0,0.0,0.0,0.0,0.0,0.0,0.0,0.0,0.0,0.0,0.0,0.0,0.0,0.0,0.0,0.0,0.0,0.0,0.0,0.0,0.0,0.0,0.0,0.0,0.0,0.0,0.0,0.0,0.0,0.0,0.0,0.0,0.0,0.0,0.0,0.0,0.0,0.0,0.0,0.0,0.0,0.0,0.0,0.0,0.0,0.0,0.0,0.0,0.0,0.0,0.0,0.0,0.0,0.0,0.0,0.0,0.0,0.0,0.0,0.0,0.0,2.0025,2.0082,2.2729,1.9697,1.7916,0.0,0.0,0.0,0.0,0.0,0.0,0.0,0.0,0.0,0.0,0.0,0.0,0.0,0.0,0.0,0.0,0.0,0.0,0.0,0.0,0.0,0.0,0.0,0.0,0.0,0.0,0.0,0.0,0.0,0.0,0.0,0.0,0.0,0.0,0.0,0.0,0.0,0.0,0.0,0.0,0.0,0.0,0.0,0.0,0.0,0.0,0.0,0.0,0.0,0.0,0.0,0.0,0.0,0.0,0.0,0.0,0.0,0.0,0.0,0.0,0.0,0.0,0.0,0.0,0.0,0.0,0.0,0.0,0.0,0.0,0.0,0.0,0.0,0.0,0.0,0.0,0.0,0.0,0.0,0.0,0.0,0.0,0.0,0.0,0.0,0.0,0.0,0.0,0.0,0.0,0.0,0.0,0.0,0.0,0.0,0.0,0.0,0.0,0.0,0.0,0.0,0.0,0.0,0.0,0.0,0.0,0.0,0.0,0.0,0.0,1.6606,0.0,1.9847,1.9077,1.7553,1.5312,0.0,0.0,0.0,0.0,0.0,0.0,0.0,0.0,0.0,0.0,0.0,0.0,0.0,0.0,0.0,0.0,0.0,0.0,0.0,0.0,0.0,0.0,0.0,0.0,0.0,0.0,0.0,0.0,0.0,0.0,0.0,0.0,0.0,0.0,0.0,0.0,0.0,0.0,0.0,0.0,0.0,0.0,0.0,0.0,0.0,0.0,0.0,0.0,0.0,0.0,0.0,0.0,0.0,0.0,0.0,0.0,0.0,0.0,0.0,0.0,0.0,0.0,0.0,0.0,0.0,0.0,0.0,0.0,0.0,0.0,0.0,0.0,0.0,0.0,0.0,0.0,0.0,0.0,0.0,0.0,0.0,0.0,0.0,0.0,0.0,0.0,0.0,0.0,0.0,0.0,0.0,0.0,0.0,0.0,0.0,0.0,0.0,0.0,0.0,0.0,0.0,0.0,0.0,0.0,0.0,0.0,0.0,0.0,0.0,0.0,0.0,1.7058,1.7095,1.6253,0.0,0.0,0.0,0.0,0.0,0.0,0.0,0.0,0.0,0.0,0.0,0.0,0.0,0.0,0.0,0.0,0.0,0.0,0.0,0.0,0.0,0.0,0.0,0.0,0.0,0.0,0.0,0.0,0.0,0.0,0.0,0.0,0.0,0.0,0.0,0.0,0.0,0.0,0.0,0.0,0.0,0.0,0.0,0.0,0.0,0.0,0.0,0.0,0.0,0.0,0.0,0.0,0.0,0.0,0.0,0.0,0.0,0.0,0.0,0.0,0.0,0.0,0.0,0.0,0.0,0.0,0.0,0.0,0.0,0.0,0.0,0.0,0.0,0.0,0.0,0.0,0.0,0.0,0.0,0.0,0.0,0.0,0.0,0.0,0.0,0.0,0.0,0.0,0.0,0.0,0.0,0.0,0.0,0.0,0.0,0.0,0.0,0.0,0.0,0.0,0.0,0.0,0.0,0.0,0.0,0.0,0.0,0.0,0.0,0.0,0.0,1.1689,1.4119,1.4523,0.0,1.4116,0.0,0.0,0.0,0.0,0.0,0.0,0.0,0.0,0.0,0.0,0.0,0.0,0.0,0.0,0.0,0.0,0.0,0.0,0.0,0.0,0.0,0.0,0.0,0.0,0.0,0.0,0.0,0.0,0.0,0.0,0.0,0.0,0.0,0.0,0.0,0.0,0.0,0.0,0.0,0.0,0.0,0.0,0.0,0.0,0.0,0.0,0.0,0.0,0.0,0.0,0.0,0.0,0.0,0.0,0.0,0.0,0.0,0.0,0.0,0.0,0.0,0.0,0.0,0.0,0.0,0.0,0.0,0.0,0.0,0.0,0.0,0.0,0.0,0.0,0.0,0.0,0.0,0.0,0.0,0.0,0.0,0.0,0.0,0.0,0.0,0.0,0.0,0.0,0.0,0.0,0.0,0.0,0.0,0.0,0.0,0.0,0.0,0.0,0.0,0.0,0.0,0.0,0.0,0.0,0.0,0.0,0.0,0.0,0.0,0.0,0.0,0.0,1.3909,1.4028,1.1296,0.0,0.0,0.0,0.0,0.0,0.0,0.0,0.0,0.0,0.0,0.0,0.0,0.0,0.0,0.0,0.0,0.0,0.0,0.0,0.0,0.0,0.0,0.0,0.0,0.0,0.0,0.0,0.0,0.0,0.0,0.0,0.0,0.0,0.0,0.0,0.0,0.0,0.0,0.0,0.0,0.0,0.0,0.0,0.0,0.0,0.0,0.0,0.0,0.0,0.0,0.0,0.0,0.0,0.0,0.0,0.0,0.0,0.0,0.0,0.0,0.0,0.0,0.0,0.0,0.0,0.0,0.0,0.0,0.0,0.0,0.0,0.0,0.0,0.0,0.0,0.0,0.0,0.0,0.0,0.0,0.0,0.0,0.0,0.0,0.0,0.0,0.0,0.0,0.0,0.0,0.0,0.0,0.0,0.0,0.0,0.0,0.0,0.0,0.0,0.0,0.0,0.0,0.0,0.0,0.0,0.0,0.0,0.0,0.0,0.0,1.1028,0.8931,1.1788,1.1874,0.8684,0.0,0.0,0.0,0.0,0.0,0.0,0.0,0.0,0.0,0.0,0.0,0.0,0.0,0.0,0.0,0.0,0.0,0.0,0.0,0.0,0.0,0.0,0.0,0.0,0.0,0.0,0.0,0.0,0.0,0.0,0.0,0.0,0.0,0.0,0.0,0.0,0.0,0.0,0.0,0.0,0.0,0.0,0.0,0.0,0.0,0.0,0.0,0.0,0.0,0.0,0.0,0.0,0.0,0.0,0.0,0.0,0.0,0.0,0.0,0.0,0.0,0.0,0.0,0.0,0.0,0.0,0.0,0.0,0.0,0.0,0.0,0.0,0.0,0.0,0.0,0.0,0.0,0.0,0.0,0.0,0.0,0.0,0.0,0.0,0.0,0.0,0.0,0.0,0.0,0.0,0.0,0.0,0.0,0.0,0.0,0.0,0.0,0.0,0.0,0.0,0.0,0.0,0.0,0.0,0.0,0.0,0.0,0.0,0.0,0.0,0.0,0.0,0.0,0.0,0.7085,0.0,0.0,0.0,0.0,0.0,0.0,0.0,0.0,0.0,0.0,0.0,0.0,0.0,0.0,0.0,0.0,0.0,0.0,0.0,0.0,0.0,0.0,0.0,0.0,0.0,0.0,0.0,0.0,0.0,0.0,0.0,0.0,0.0,0.0,0.0,0.0,0.0,0.0,0.0,0.0,0.0,0.0,0.0,0.0,0.0,0.0,0.0,0.0,0.0,0.0,0.0,0.0,0.0,0.0,0.0,0.0,0.0,0.0,0.0,0.0,0.0,0.0,0.0,0.0,0.0,0.0,0.0,0.0,0.0,0.0,0.0,0.0,0.0,0.0,0.0,0.0,0.0,0.0,0.0,0.0,0.0,0.0,0.0,0.0,0.0,0.0,0.0,0.0,0.0,0.0,0.0,0.0,0.0,0.0,0.0,0.0,0.0,0.0,0.0,0.0,0.0,0.0,0.0,0.0,0.0,0.0,0.0,0.0,0.0,0.0,0.0,0.0,0.0,0.0,0.0,0.0,0.0,0.0,0.0,0.0,0.0,0.0,0.0,0.0,0.0,0.0,0.0,0.0,0.0,0.0,0.0,0.0,0.0,0.0,0.0,0.0,0.0,0.0,0.0,0.0,0.0,0.0,0.0,0.0,0.0,0.0,0.0,0.0,0.0,0.0,0.0,0.0,0.0,0.0,0.0,0.0,0.0,0.0,0.0,0.0,0.0,0.0,0.0,0.0,0.0,0.0,0.0,0.0,0.0,0.0,0.0,0.0,0.0,0.0,0.0,0.0,0.0,0.0,0.0,0.0,0.0,0.0,0.0,0.0,0.0,0.0,0.0,0.0,0.0,0.0,0.0,0.0,0.0,0.0,0.0,0.0,0.0,0.0,0.0,0.0,0.0,0.0,0.0,0.0,0.0,0.0,0.0,0.0,0.0,0.0,0.0,0.0,0.0,0.0,0.0,0.0,0.0,0.0,0.0,0.0,0.0,0.0,0.0,0.0,0.0,0.0,0.0,0.0,0.0,0.0,0.0,0.0,0.0,0.0,0.0,0.0,0.0,0.0,0.0,0.0,0.0,0.0,0.0,0.0,0.0,0.0,0.0,0.0,0.0,0.0,0.0,0.0,0.0,0.0,0.0,0.0,0.0,0.0,0.0,0.0,0.0,0.0,0.0,0.0,0.0,0.0,0.0,0.0,0.0,0.0,0.0,0.0,0.0,0.0,0.0,0.0,0.0,0.0,0.0,0.0,0.0,0.0,0.0,0.0,0.0,0.0,0.0,0.0,0.0,0.0,0.0,0.0,0.0,0.0,0.0,0.0,0.0,0.0,0.0,0.0,0.0,0.0,0.0,0.0,0.0,0.0,0.0,0.0,0.0,0.0,0.0,0.0,0.0,0.0,0.0,0.0,0.0,0.0,0.0,0.0,0.0,0.0,0.0,0.0,0.0,0.0,0.0,0.0,0.0,0.0,0.0,0.0,0.0,0.0,0.0,0.0,0.0,0.0,0.0,0.0,0.0,0.0,0.0,0.0,0.0,0.0,0.0,0.0,0.0,0.0,0.0,0.0,0.0,0.0,0.0,0.0,0.0,0.0,0.0,0.0,0.0,0.0,0.0,0.0,0.0,0.0,0.0,0.0,0.0,0.0,0.0,0.0,0.0,0.0,0.0,0.0,0.0,0.0,0.0,0.0,0.0,0.0,0.0,0.0,0.0,0.0,0.0,0.0,0.0,0.0,0.0,0.0,0.0,0.0,0.0,0.0,0.0,0.0,0.0,0.0,0.0,0.0,0.0,0.0,0.0,0.0,0.0,0.0,0.0,0.0,0.0,0.0,0.0,0.0,0.0,0.0,0.0,0.0,0.0,0.0,0.0,0.0,0.0,0.0,0.0,0.0,0.0,0.0,0.0,0.0,0.0,0.0,0.0,0.0,0.0,0.0,0.0,0.0,0.0,0.0,0.0,0.0,0.0,0.0,0.0,0.0,0.0,0.0,0.0,0.0,0.0,0.0,0.0,0.0,0.0,0.0,0.0,0.0,0.0,0.0,0.0,0.0,0.0,0.0,0.0,0.0,0.0,0.0,0.0,0.0,0.0,0.0,0.0,0.0,0.0,0.0,0.0,0.0,0.0,0.0,0.0,0.0,0.0,0.0,0.0,0.0,0.0,0.0,0.0,0.0,0.0,0.0,0.0,0.0,0.0,0.0,0.0,0.0,0.0,0.0,0.0,0.0,0.0,0.0,0.0,0.0,0.0,0.0,0.0,0.0,0.0,0.0,0.0,0.0,0.0,0.0,0.0,0.0,0.0,0.0,0.0,0.0,0.0,0.0,0.0,0.0,0.0,0.0,0.0,0.0,0.0,0.0,0.0,0.0,0.0,0.0,0.0,0.0,0.0,0.0,0.0,0.0,0.0,0.0,0.0,0.0,0.0,0.0,0.0,0.0,0.0,0.0,0.0,0.0,0.0,0.0,0.0,0.0,0.0,0.0,0.0,0.0,0.0,0.0,0.0,0.0,0.0,0.0,0.0,0.0,0.0,0.0,0.0,0.0,0.0,0.0,0.0,0.0,0.0,0.0,0.0,0.0,0.0,0.0,0.0,0.0,0.0,0.0,0.0,0.0,0.0,0.0,0.0,0.0,0.0,0.0,0.0,0.0,0.0,0.0,0.0,0.0,0.0,0.0,0.0,0.0,0.0,0.0,0.0,0.0,0.0,0.0,0.0,0.0,0.0,0.0,0.0,0.0,0.0,0.0,0.0,0.0,0.0,0.0,0.0,0.0,0.0,0.0,0.0,0.0,0.0,0.0,0.0,0.0,0.0,0.0,0.0,0.0,0.0,0.0,0.0,0.0,0.0,0.0,0.0,0.0,0.0,0.0,0.0,0.0,0.0,0.0,0.0,0.0,0.0,0.0,0.0,0.0,0.0,0.0,0.0,0.0,0.0,0.0,0.0,0.0,0.0,0.0,0.0,0.0,0.0,0.0,0.0,0.0,0.0,0.0,0.0,0.0,0.0,0.0,0.0,0.0,0.0,0.0,0.0,0.0,0.0,0.0,0.0,0.0,0.0,0.0,0.0,0.0,0.0,0.0,0.0,0.0,0.0,0.0,0.0,0.0,0.0,0.0,0.0,0.0,0.0,0.0,0.0,0.0,0.0,0.0,0.0,0.0,0.0,0.0,0.0,0.0,0.0,0.0,0.0,0.0,0.0,0.0,0.0,0.0,0.0,0.0,0.0,0.0,0.0,0.0,0.0,0.0,0.0,0.0,0.0,0.0,0.0,0.0,0.0,0.0,0.0,0.0,0.0,0.0,0.0,0.0,0.0,0.0,0.0,0.0,0.0,0.0,0.0,0.0,0.0,0.0,0.0,0.0,0.0,0.0,0.0,0.0,0.0,0.0,0.0,0.0,0.0,0.0,0.0,0.0,0.0,0.0,0.0,0.0,0.0,0.0,0.0,0.0,0.0,0.0,0.0,0.0,0.0,0.0,0.0,0.0,0.0,0.0,0.0,0.0,0.0,0.0,0.0,0.0,0.0,0.0,0.0,0.0,0.0,0.0,0.0,0.0,0.0,0.0,0.0,0.0,0.0,0.0,0.0,0.0,0.0,0.0,0.0,0.0,0.0,0.0,0.0,0.0,0.0,0.0,0.0,0.0,0.0,0.0,0.0,0.0,0.0,0.0,0.0,0.0,0.0,0.0,0.0,0.0,0.0,0.0,0.0,0.0,0.0,0.0,0.0,0.0,0.0,0.0,0.0,0.0,0.0,0.0,0.0,0.0,0.0,0.0,0.0,0.0,0.0,0.0,0.0,0.0,0.0,0.0,0.0,0.0,0.0,0.0,0.0,0.0,0.0,0.0,0.0,0.0,0.0,0.0,0.0,0.0,0.0,0.0,0.0,0.0,0.0,0.0,0.0,0.0,0.0,0.0,0.0,0.0,0.0,0.0,0.0,0.0,0.0,0.0,0.0,0.0,0.0,0.0,0.0,0.0,0.0,0.0,0.0,0.0,0.0,0.0,0.0,0.0,0.0,0.0,0.0,0.0,0.0,0.0,0.0,0.0,0.0,0.0,0.0,0.0,0.0,0.0,0.0,0.0,0.0,0.0,0.0,0.0,0.0,0.0,0.0,0.0,0.0,0.0,0.0,0.0,0.0,0.0,0.0,0.0,0.0,0.0,0.0,0.0,0.0,0.0,0.0,0.0,0.0,0.0,0.0,0.0,0.0,0.0,0.0,0.0,0.0,0.0,0.0,0.0,0.0,0.0,0.0,0.0,0.0,0.0,0.0,0.0,0.0,0.0,0.0,0.0,0.0,0.0,0.0,0.0,0.0,0.0,0.0,0.0,0.0,0.0,0.0,0.0,0.0,0.0,0.0,0.0]}]]]